ftp/pub/palmer/observations_modified/2019/June/AR190528_BASE.txt

Download

Sample DateTime	Unit Id	WS Avg 2min	WD Avg 2min	WGS 10min	WGD 10min	Air Temp	Rel Humidity	Dew Point	Pyranometer	Quantum	Air Pressure	Snow Level	Rainfall	PW Current	Visibility	CBase 1	CBase 2	CBase 3	Vert Vis
2019/05/28 00:00:00	BASE	14.08	244	20.01	233	-7.7	75	-11.4	0	0	995.1	NA	0.0000		9999	2460	0	0	0
2019/05/28 00:01:00	BASE	13.81	248	20.01	233	-7.7	75	-11.4	0	0	995.1	NA	0.0000		9999	2820	0	0	0
2019/05/28 00:02:00	BASE	13.45	243	20.01	233	-7.7	75	-11.4	0	0	995.1	NA	0.0000		9999	2360	0	0	0
2019/05/28 00:03:00	BASE	12.43	239	17.90	235	-7.7	74	-11.5	0	0	995.1	NA	0.0000		9999	2560	0	0	0
2019/05/28 00:04:00	BASE	10.79	240	16.98	236	-7.8	74	-11.6	0	0	995.1	NA	0.0000		9999	2330	0	0	0
2019/05/28 00:05:00	BASE	10.19	240	16.31	248	-7.8	74	-11.7	0	0	995.1	NA	0.0000		9999	2330	0	0	0
2019/05/28 00:06:00	BASE	10.65	239	16.31	248	-7.8	74	-11.7	0	0	995.1	NA	0.0000		9999	2400	0	0	0
2019/05/28 00:07:00	BASE	10.45	231	16.31	248	-7.8	73	-11.7	0	0	995.1	NA	0.0000		9999	2330	0	0	0
2019/05/28 00:08:00	BASE	9.87	223	16.31	248	-7.8	73	-11.7	0	0	995.1	NA	0.0000		9999	2400	0	0	0
2019/05/28 00:09:00	BASE	9.12	226	16.31	248	-7.7	73	-11.7	0	0	995.1	NA	0.0000		9999	2300	0	0	0
2019/05/28 00:10:00	BASE	11.03	228	15.64	224	-7.7	73	-11.7	0	0	995.0	NA	0.0000		9999	2330	0	0	0
2019/05/28 00:11:00	BASE	14.68	225	17.08	227	-7.7	73	-11.6	0	0	995.0	NA	0.0000		9999	2300	0	0	0
2019/05/28 00:12:00	BASE	13.94	225	17.08	227	-7.6	73	-11.6	0	0	995.0	NA	0.0000		9999	2330	0	0	0
2019/05/28 00:13:00	BASE	11.91	225	17.08	227	-7.6	74	-11.5	0	0	995.0	NA	0.0000		9999	2360	0	0	0
2019/05/28 00:14:00	BASE	12.28	227	17.08	227	-7.6	74	-11.4	0	0	995.0	NA	0.0000		9999	2360	0	0	0
2019/05/28 00:15:00	BASE	11.42	232	17.08	227	-7.6	74	-11.4	0	0	995.1	NA	0.0000		9999	2400	0	0	0
2019/05/28 00:16:00	BASE	9.95	231	17.08	227	-7.6	74	-11.4	0	0	995.1	NA	0.0000		9999	2100	0	0	0
2019/05/28 00:17:00	BASE	9.71	229	17.08	227	-7.6	74	-11.4	0	0	995.0	NA	0.0000		9999	2230	0	0	0
2019/05/28 00:18:00	BASE	12.18	230	17.08	227	-7.5	74	-11.4	0	0	995.0	NA	0.0000		9999	2300	0	0	0
2019/05/28 00:19:00	BASE	14.72	225	17.08	227	-7.6	74	-11.4	0	0	994.9	NA	0.0000		9999	2170	0	0	0
2019/05/28 00:20:01	BASE	14.29	224	17.08	227	-7.5	74	-11.4	0	0	994.9	NA	0.0000		9999	2100	0	0	0
2019/05/28 00:21:00	BASE	12.54	228	16.98	218	-7.5	74	-11.4	0	0	994.9	NA	0.0000		9999	2130	0	0	0
2019/05/28 00:22:00	BASE	11.73	232	16.98	218	-7.5	74	-11.4	0	0	995.0	NA	0.0000		9999	2130	0	0	0
2019/05/28 00:23:00	BASE	11.73	232	16.98	218	-7.6	74	-11.4	0	0	994.9	NA	0.0000		9999	2200	0	0	0
2019/05/28 00:24:00	BASE	12.73	233	16.98	218	-7.5	74	-11.3	0	0	994.9	NA	0.0000		9999	2230	0	0	0
2019/05/28 00:25:00	BASE	14.88	246	17.39	253	-7.5	74	-11.3	0	0	994.9	NA	0.0000		9999	2130	0	0	0
2019/05/28 00:26:00	BASE	14.64	252	17.39	253	-7.5	75	-11.3	0	0	994.9	NA	0.0000		9999	2100	0	0	0
2019/05/28 00:27:00	BASE	11.65	246	17.39	253	-7.6	75	-11.3	0	0	995.0	NA	0.0000		9999	2170	0	0	0
2019/05/28 00:28:00	BASE	9.05	251	17.39	253	-7.6	75	-11.3	0	0	995.0	NA	0.0000		9999	2130	0	0	0
2019/05/28 00:29:00	BASE	8.81	253	17.39	253	-7.7	75	-11.4	0	0	995.0	NA	0.0000		9999	2100	0	0	0
2019/05/28 00:30:00	BASE	11.07	241	17.39	253	-7.7	75	-11.4	0	0	994.9	NA	0.0000		9999	2100	0	0	0
2019/05/28 00:31:00	BASE	13.50	229	17.39	253	-7.7	75	-11.4	0	0	994.9	NA	0.0000		9999	2230	0	0	0
2019/05/28 00:32:00	BASE	13.44	225	17.39	253	-7.7	75	-11.4	0	0	994.9	NA	0.0000		9999	2300	0	0	0
2019/05/28 00:33:00	BASE	12.04	223	17.39	253	-7.7	75	-11.4	0	0	994.9	NA	0.0000		9999	2230	0	0	0
2019/05/28 00:34:00	BASE	11.68	220	17.39	253	-7.7	75	-11.4	0	0	994.8	NA	0.0000		9999	2300	0	0	0
2019/05/28 00:35:00	BASE	11.49	213	16.67	252	-7.8	75	-11.5	0	0	994.8	NA	0.0000		9999	2230	0	0	0
2019/05/28 00:36:00	BASE	10.55	210	16.51	228	-7.8	74	-11.5	0	0	994.8	NA	0.0000		9999	2300	0	0	0
2019/05/28 00:37:00	BASE	9.74	214	16.51	228	-7.8	74	-11.6	0	0	994.8	NA	0.0000		9999	2360	0	0	0
2019/05/28 00:38:00	BASE	10.85	225	16.51	228	-7.8	74	-11.6	0	0	994.8	NA	0.0000		9999	2400	0	0	0
2019/05/28 00:39:00	BASE	13.34	233	17.18	240	-7.7	74	-11.6	0	0	994.8	NA	0.0000		9999	2430	0	0	0
2019/05/28 00:40:00	BASE	13.54	233	17.18	240	-7.7	74	-11.6	0	0	994.8	NA	0.0000		9999	2360	0	0	0
2019/05/28 00:41:00	BASE	11.72	232	17.18	240	-7.7	73	-11.7	0	0	994.8	NA	0.0000		9999	2230	0	0	0
2019/05/28 00:42:00	BASE	9.47	237	17.18	240	-7.8	73	-11.7	0	0	994.8	NA	0.0000		9999	2460	0	0	0
2019/05/28 00:43:00	BASE	9.58	248	17.18	240	-7.7	73	-11.7	0	0	994.7	NA	0.0000		9999	2230	0	0	0
2019/05/28 00:44:00	BASE	10.92	250	17.18	240	-7.7	73	-11.7	0	0	994.7	NA	0.0000		9999	2100	0	0	0
2019/05/28 00:45:00	BASE	10.25	242	17.18	240	-7.7	73	-11.7	0	0	994.7	NA	0.0000		9999	2130	0	0	0
2019/05/28 00:46:00	BASE	9.86	238	17.18	240	-7.7	73	-11.7	0	0	994.7	NA	0.0000		9999	2170	0	0	0
2019/05/28 00:47:00	BASE	10.24	243	17.18	240	-7.7	73	-11.7	0	0	994.7	NA	0.0000		9999	2170	0	0	0
2019/05/28 00:48:00	BASE	10.37	251	17.18	240	-7.7	73	-11.6	0	0	994.7	NA	0.0000		9999	2130	0	0	0
2019/05/28 00:49:00	BASE	10.02	252	14.66	233	-7.7	74	-11.6	0	0	994.7	NA	0.0000		9999	2200	0	0	0
2019/05/28 00:50:00	BASE	8.97	247	13.02	250	-7.7	74	-11.6	0	0	994.7	NA	0.0000		9999	2130	0	0	0
2019/05/28 00:51:00	BASE	9.14	247	13.02	250	-7.7	74	-11.5	0	0	994.7	NA	0.0000		9999	2200	0	0	0
2019/05/28 00:52:00	BASE	11.27	249	13.99	239	-7.7	74	-11.5	0	0	994.7	NA	0.0000		9999	2130	0	0	0
2019/05/28 00:53:00	BASE	12.53	249	14.35	247	-7.7	74	-11.5	0	0	994.7	NA	0.0000		9999	2100	0	0	0
2019/05/28 00:54:00	BASE	12.75	250	14.35	247	-7.7	74	-11.4	0	0	994.7	NA	0.0000		9999	2030	0	0	0
2019/05/28 00:55:00	BASE	13.31	247	15.02	232	-7.6	75	-11.4	0	0	994.7	NA	0.0000		9999	1970	0	0	0
2019/05/28 00:56:00	BASE	13.50	246	15.38	251	-7.6	75	-11.3	0	0	994.7	NA	0.0000		9999	2070	0	0	0
2019/05/28 00:57:00	BASE	13.68	251	15.38	251	-7.6	75	-11.3	0	0	994.7	NA	0.0000		9999	2130	0	0	0
2019/05/28 00:58:00	BASE	13.34	248	15.38	251	-7.6	75	-11.3	0	0	994.7	NA	0.0000		9999	2070	0	0	0
2019/05/28 00:59:00	BASE	11.42	239	15.38	251	-7.6	75	-11.3	0	0	994.7	NA	0.0000		9999	2030	0	0	0
2019/05/28 01:00:01	BASE	9.41	241	15.38	251	-7.6	75	-11.3	0	0	994.7	NA	0.0000		9999	2130	0	0	0
2019/05/28 01:01:00	BASE	8.20	246	15.38	251	-7.7	75	-11.3	0	0	994.7	NA	0.0000		9999	2130	0	0	0
2019/05/28 01:02:00	BASE	8.38	248	15.38	251	-7.7	75	-11.3	0	0	994.7	NA	0.0000		9999	2130	0	0	0
2019/05/28 01:03:00	BASE	9.09	256	15.38	251	-7.7	75	-11.3	0	0	994.7	NA	0.0000		9999	2100	0	0	0
2019/05/28 01:04:00	BASE	11.05	256	15.38	251	-7.7	75	-11.3	0	0	994.7	NA	0.0000		9999	2130	0	0	0
2019/05/28 01:05:00	BASE	13.72	251	15.74	247	-7.6	75	-11.3	0	0	994.7	NA	0.0000		9999	2230	0	0	0
2019/05/28 01:06:00	BASE	13.93	249	15.74	247	-7.7	75	-11.3	0	0	994.7	NA	0.0000		9999	2330	0	0	0
2019/05/28 01:07:00	BASE	13.50	251	15.74	247	-7.7	75	-11.3	0	0	994.7	NA	0.0000		9999	2330	0	0	0
2019/05/28 01:08:00	BASE	12.48	251	15.74	247	-7.7	75	-11.3	0	0	994.7	NA	0.0000		9999	2360	0	0	0
2019/05/28 01:09:00	BASE	11.01	249	15.74	247	-7.7	75	-11.4	0	0	994.7	NA	0.0000		9999	2200	0	0	0
2019/05/28 01:10:00	BASE	9.95	245	15.74	247	-7.7	75	-11.4	0	0	994.7	NA	0.0000		9999	2200	0	0	0
2019/05/28 01:11:00	BASE	9.00	237	15.74	247	-7.7	75	-11.3	0	0	994.7	NA	0.0000		9999	2170	0	0	0
2019/05/28 01:12:00	BASE	10.25	235	15.74	247	-7.6	75	-11.3	0	0	994.7	NA	0.0000		9999	2200	0	0	0
2019/05/28 01:13:00	BASE	11.81	246	15.74	247	-7.6	75	-11.3	0	0	994.7	NA	0.0000		9999	2200	0	0	0
2019/05/28 01:14:00	BASE	13.09	254	15.74	247	-7.5	75	-11.2	0	0	994.6	NA	0.0000		9999	2130	0	0	0
2019/05/28 01:15:00	BASE	13.79	253	15.38	254	-7.5	75	-11.1	0	0	994.6	NA	0.0000		9999	2130	0	0	0
2019/05/28 01:16:00	BASE	12.69	254	15.38	254	-7.5	76	-11.1	0	0	994.6	NA	0.0000		9999	2130	0	0	0
2019/05/28 01:17:00	BASE	11.88	261	15.38	254	-7.5	76	-11.1	0	0	994.6	NA	0.0000		9999	2070	0	0	0
2019/05/28 01:18:00	BASE	10.25	260	15.38	254	-7.6	76	-11.1	0	0	994.6	NA	0.0000		9999	2000	0	0	0
2019/05/28 01:19:00	BASE	10.48	253	15.38	254	-7.6	76	-11.1	0	0	994.5	NA	0.0000		9999	2100	0	0	0
2019/05/28 01:20:00	BASE	11.54	248	15.38	254	-7.6	76	-11.1	0	0	994.6	NA	0.0000		9999	2070	0	0	0
2019/05/28 01:21:00	BASE	11.21	253	15.38	254	-7.6	76	-11.1	0	0	994.5	NA	0.0000		9999	2130	0	0	0
2019/05/28 01:22:00	BASE	10.37	261	15.38	254	-7.6	76	-11.1	0	0	994.5	NA	0.0000		9999	2000	0	0	0
2019/05/28 01:23:00	BASE	10.35	258	15.38	254	-7.5	76	-11.1	0	0	994.5	NA	0.0000		9999	2100	0	0	0
2019/05/28 01:24:00	BASE	10.82	254	14.66	255	-7.5	76	-11.0	0	0	994.5	NA	0.0000		9999	2100	0	0	0
2019/05/28 01:25:00	BASE	10.33	253	14.46	260	-7.5	76	-11.0	0	0	994.5	NA	0.0000		9999	2200	0	0	0
2019/05/28 01:26:00	BASE	11.26	250	14.15	256	-7.5	76	-11.0	0	0	994.5	NA	0.0000		9999	2130	0	0	0
2019/05/28 01:27:00	BASE	11.96	246	14.15	256	-7.5	76	-11.0	0	0	994.5	NA	0.0000		9999	2100	0	0	0
2019/05/28 01:28:00	BASE	11.55	246	14.15	256	-7.5	76	-11.0	0	0	994.5	NA	0.0000		9999	2030	0	0	0
2019/05/28 01:29:00	BASE	10.79	249	13.32	260	-7.6	76	-11.1	0	0	994.5	NA	0.0000		9999	2070	0	0	0
2019/05/28 01:30:00	BASE	9.47	255	13.32	260	-7.6	76	-11.1	0	0	994.5	NA	0.0000		9999	2030	0	0	0
2019/05/28 01:31:00	BASE	9.49	256	13.32	260	-7.6	76	-11.0	0	0	994.5	NA	0.0000		9999	2000	0	0	0
2019/05/28 01:32:00	BASE	10.42	256	13.32	260	-7.5	76	-11.0	0	0	994.4	NA	0.0000		9999	2000	0	0	0
2019/05/28 01:33:00	BASE	11.24	254	13.27	240	-7.5	77	-10.9	0	0	994.4	NA	0.0000		9999	2000	0	0	0
2019/05/28 01:34:00	BASE	12.68	244	16.10	246	-7.4	77	-10.8	0	0	994.3	NA	0.0000		9999	2070	0	0	0
2019/05/28 01:35:00	BASE	13.11	236	16.41	235	-7.4	77	-10.7	0	0	994.3	NA	0.0000		9999	1870	0	0	0
2019/05/28 01:36:00	BASE	11.55	241	16.41	235	-7.4	77	-10.7	0	0	994.4	NA	0.0000		9999	1970	0	0	0
2019/05/28 01:37:00	BASE	9.66	249	16.41	235	-7.4	77	-10.7	0	0	994.4	NA	0.0000		9999	1900	0	0	0
2019/05/28 01:38:00	BASE	8.14	248	16.41	235	-7.4	77	-10.7	0	0	994.4	NA	0.0000		9999	1870	0	0	0
2019/05/28 01:39:00	BASE	7.50	251	16.41	235	-7.5	78	-10.7	0	0	994.5	NA	0.0000		9999	2000	0	0	0
2019/05/28 01:40:00	BASE	8.21	257	16.41	235	-7.5	78	-10.7	0	0	994.4	NA	0.0000		9999	1970	0	0	0
2019/05/28 01:41:00	BASE	8.31	259	16.41	235	-7.5	78	-10.7	0	0	994.4	NA	0.0000		9999	2070	0	0	0
2019/05/28 01:42:00	BASE	9.51	262	16.41	235	-7.5	78	-10.7	0	0	994.3	NA	0.0000		9999	1970	0	0	0
2019/05/28 01:43:00	BASE	12.27	248	16.41	235	-7.5	78	-10.7	0	0	994.3	NA	0.0000		9999	2070	0	0	0
2019/05/28 01:44:00	BASE	13.24	234	16.41	235	-7.4	78	-10.6	0	0	994.4	NA	0.0000		9999	2070	0	0	0
2019/05/28 01:45:00	BASE	13.38	241	16.31	234	-7.4	78	-10.6	0	0	994.4	NA	0.0000		9999	2030	0	0	0
2019/05/28 01:46:00	BASE	13.61	246	16.31	234	-7.4	78	-10.6	0	0	994.3	NA	0.0000		9999	1940	0	0	0
2019/05/28 01:47:00	BASE	12.53	241	16.31	234	-7.4	78	-10.6	0	0	994.4	NA	0.0000		9999	1970	0	0	0
2019/05/28 01:48:00	BASE	11.41	241	16.31	234	-7.4	78	-10.6	0	0	994.4	NA	0.0000		9999	1940	0	0	0
2019/05/28 01:49:00	BASE	11.06	246	16.31	234	-7.5	78	-10.6	0	0	994.4	NA	0.0000		9999	1900	0	0	0
2019/05/28 01:50:00	BASE	9.70	244	16.31	234	-7.5	78	-10.7	0	0	994.4	NA	0.0000		9999	2070	0	0	0
2019/05/28 01:51:00	BASE	8.57	248	16.31	234	-7.5	78	-10.7	0	0	994.4	NA	0.0000		9999	2170	0	0	0
2019/05/28 01:52:00	BASE	8.39	252	16.31	234	-7.5	78	-10.7	0	0	994.4	NA	0.0000		9999	2170	0	0	0
2019/05/28 01:53:00	BASE	7.42	250	15.48	243	-7.6	78	-10.8	0	0	994.4	NA	0.0000		9999	2100	0	0	0
2019/05/28 01:54:00	BASE	7.26	256	15.48	243	-7.6	77	-10.9	0	0	994.3	NA	0.0000		9999	2070	0	0	0
2019/05/28 01:55:00	BASE	7.62	255	15.48	243	-7.6	77	-10.9	0	0	994.4	NA	0.0000		9999	2130	0	0	0
2019/05/28 01:56:00	BASE	6.68	249	13.84	234	-7.7	77	-11.0	0	0	994.4	NA	0.0000		9999	2130	0	0	0
2019/05/28 01:57:00	BASE	6.94	250	12.40	246	-7.7	77	-11.0	0	0	994.3	NA	0.0000		9999	2200	0	0	0
2019/05/28 01:58:00	BASE	8.97	240	11.73	235	-7.6	77	-11.0	0	0	994.3	NA	0.0000		9999	2170	0	0	0
2019/05/28 01:59:00	BASE	10.89	239	13.58	239	-7.6	76	-11.0	0	0	994.2	NA	0.0000		9999	2170	0	0	0
2019/05/28 02:00:00	BASE	12.69	243	16.15	234	-7.5	76	-11.0	0	0	994.2	NA	0.0000		9999	2170	0	0	0
2019/05/28 02:01:00	BASE	13.69	245	16.15	234	-7.5	76	-11.0	0	0	994.2	NA	0.0000		9999	2260	0	0	0
2019/05/28 02:02:00	BASE	12.41	251	16.15	234	-7.5	76	-11.0	0	0	994.3	NA	0.0000		9999	2260	0	0	0
2019/05/28 02:03:00	BASE	10.29	247	16.15	234	-7.5	76	-11.0	0	0	994.3	NA	0.0000		9999	2100	0	0	0
2019/05/28 02:04:00	BASE	8.98	244	16.15	234	-7.5	76	-11.0	0	0	994.2	NA	0.0000		9999	2170	0	0	0
2019/05/28 02:05:00	BASE	9.51	250	16.15	234	-7.5	76	-11.0	0	0	994.2	NA	0.0000		9999	2230	0	0	0
2019/05/28 02:06:00	BASE	10.12	254	16.15	234	-7.5	76	-11.1	0	0	994.2	NA	0.0000		9999	2260	0	0	0
2019/05/28 02:07:00	BASE	9.99	253	16.15	234	-7.5	75	-11.1	0	0	994.2	NA	0.0000		9999	2030	0	0	0
2019/05/28 02:08:00	BASE	10.88	251	16.15	234	-7.5	75	-11.1	0	0	994.2	NA	0.0000		9999	2170	0	0	0
2019/05/28 02:09:00	BASE	11.48	241	16.15	234	-7.4	75	-11.1	0	0	994.2	NA	0.0000		9999	2170	0	0	0
2019/05/28 02:10:00	BASE	12.63	233	15.59	247	-7.4	75	-11.0	0	0	994.2	NA	0.0000		9999	1670	0	0	0
2019/05/28 02:11:00	BASE	13.41	231	15.48	230	-7.4	75	-11.0	0	0	994.2	NA	0.0000		9999	2200	0	0	0
2019/05/28 02:12:00	BASE	12.87	225	15.48	230	-7.3	76	-10.9	0	0	994.2	NA	0.0000		9999	2130	0	0	0
2019/05/28 02:13:00	BASE	11.88	221	15.48	230	-7.3	76	-10.8	0	0	994.2	NA	0.0000		9999	2130	0	0	0
2019/05/28 02:14:00	BASE	11.51	227	15.48	230	-7.3	76	-10.8	0	0	994.2	NA	0.0000		9999	2200	0	0	0
2019/05/28 02:15:00	BASE	11.20	236	15.48	230	-7.3	76	-10.8	0	0	994.2	NA	0.0000		9999	2070	0	0	0
2019/05/28 02:16:00	BASE	10.29	247	15.48	230	-7.3	76	-10.8	0	0	994.2	NA	0.0000		9999	2200	0	0	0
2019/05/28 02:17:00	BASE	9.50	257	15.48	230	-7.3	76	-10.9	0	0	994.1	NA	0.0000		9999	2200	0	0	0
2019/05/28 02:18:00	BASE	9.41	255	15.48	230	-7.4	76	-10.9	0	0	994.1	NA	0.0000		9999	2300	0	0	0
2019/05/28 02:19:00	BASE	10.85	245	15.48	230	-7.4	76	-10.9	0	0	994.1	NA	0.0000		9999	2200	0	0	0
2019/05/28 02:20:00	BASE	11.43	241	14.15	243	-7.4	76	-10.9	0	0	994.1	NA	0.0000		9999	1970	0	0	0
2019/05/28 02:21:00	BASE	9.81	240	14.15	243	-7.4	76	-10.9	0	0	994.1	NA	0.0000		9999	1940	0	0	0
2019/05/28 02:22:00	BASE	8.27	238	14.15	243	-7.4	76	-10.9	0	0	994.1	NA	0.0000		9999	1900	0	0	0
2019/05/28 02:23:00	BASE	7.57	241	14.15	243	-7.4	76	-10.9	0	0	994.1	NA	0.0000		9999	1870	0	0	0
2019/05/28 02:24:00	BASE	6.94	247	13.22	243	-7.4	76	-10.9	0	0	994.1	NA	0.0000		9999	2000	0	0	0
2019/05/28 02:25:00	BASE	8.10	247	13.22	243	-7.4	76	-10.9	0	0	994.1	NA	0.0000		9999	1940	0	0	0
2019/05/28 02:26:00	BASE	9.87	240	13.22	243	-7.4	76	-10.8	0	0	994.1	NA	0.0000		9999	1870	2530	0	0
2019/05/28 02:27:00	BASE	10.25	238	13.22	243	-7.4	77	-10.8	0	0	994.1	NA	0.0000		9999	1970	0	0	0
2019/05/28 02:28:00	BASE	10.77	244	13.22	243	-7.4	77	-10.7	0	0	994.0	NA	0.0000		9999	2000	0	0	0
2019/05/28 02:29:00	BASE	12.66	244	15.43	236	-7.3	77	-10.7	0	0	994.0	NA	0.0000		9999	1940	0	0	0
2019/05/28 02:30:00	BASE	14.29	232	17.08	227	-7.3	77	-10.6	0	0	994.0	NA	0.0000		9999	1840	0	0	0
2019/05/28 02:31:00	BASE	15.03	227	17.08	232	-7.3	78	-10.6	0	0	994.0	NA	0.0000		9999	1940	0	0	0
2019/05/28 02:32:00	BASE	15.27	231	17.29	243	-7.3	78	-10.5	0	0	994.0	NA	0.0000		9999	2070	0	0	0
2019/05/28 02:33:00	BASE	14.51	228	17.29	243	-7.3	78	-10.5	0	0	994.0	NA	0.0000		9999	2030	0	0	0
2019/05/28 02:34:00	BASE	12.36	231	17.29	243	-7.3	78	-10.5	0	0	994.1	NA	0.0000		9999	1800	0	0	0
2019/05/28 02:35:00	BASE	10.59	242	17.29	243	-7.4	78	-10.6	0	0	994.1	NA	0.0000		9999	1900	0	0	0
2019/05/28 02:36:00	BASE	10.32	241	17.29	243	-7.5	78	-10.6	0	0	994.1	NA	0.0000		9999	1940	0	0	0
2019/05/28 02:37:00	BASE	10.66	248	17.29	243	-7.5	78	-10.7	0	0	994.1	NA	0.0000		9999	2000	0	0	0
2019/05/28 02:38:00	BASE	12.03	253	17.44	260	-7.6	78	-10.7	0	0	994.1	NA	0.0000		9999	1900	0	0	0
2019/05/28 02:39:00	BASE	13.71	253	17.44	260	-7.6	78	-10.8	0	0	994.1	NA	0.0000		9999	1940	0	0	0
2019/05/28 02:40:00	BASE	13.45	257	17.44	260	-7.6	78	-10.8	0	0	994.1	NA	0.0000		9999	2000	0	0	0
2019/05/28 02:41:00	BASE	12.53	251	17.44	260	-7.6	78	-10.7	0	0	994.1	NA	0.0000		9999	2100	0	0	0
2019/05/28 02:42:00	BASE	14.12	236	17.44	260	-7.6	78	-10.7	0	0	994.1	NA	0.0000		9999	2070	0	0	0
2019/05/28 02:43:00	BASE	15.21	227	17.44	260	-7.6	79	-10.7	0	0	994.1	NA	0.0000		9999	2070	0	0	0
2019/05/28 02:44:00	BASE	13.99	229	17.44	260	-7.6	79	-10.7	0	0	994.1	NA	0.0000		9999	2230	0	0	0
2019/05/28 02:45:00	BASE	12.57	234	17.44	260	-7.6	79	-10.7	0	0	994.1	NA	0.0000		9999	2360	0	0	0
2019/05/28 02:46:00	BASE	12.44	236	17.44	260	-7.7	79	-10.7	0	0	994.1	NA	0.0000		9999	2230	0	0	0
2019/05/28 02:47:00	BASE	13.49	238	17.44	260	-7.7	79	-10.7	0	0	994.1	NA	0.0000		9999	2330	0	0	0
2019/05/28 02:48:00	BASE	12.80	242	16.62	230	-7.7	79	-10.8	0	0	994.2	NA	0.0000		9999	2200	0	0	0
2019/05/28 02:49:00	BASE	10.73	247	16.62	230	-7.8	79	-10.8	0	0	994.2	NA	0.0000		9999	2260	0	0	0
2019/05/28 02:50:00	BASE	9.89	246	16.62	230	-7.8	78	-10.9	0	0	994.2	NA	0.0000		9999	2400	0	0	0
2019/05/28 02:51:00	BASE	11.42	245	16.62	230	-7.9	78	-11.0	0	0	994.2	NA	0.0000		9999	2360	0	0	0
2019/05/28 02:52:00	BASE	13.05	247	16.46	228	-7.9	78	-11.1	0	0	994.1	NA	0.0000		9999	2170	0	0	0
2019/05/28 02:53:00	BASE	12.31	245	16.20	238	-7.9	77	-11.2	0	0	994.2	NA	0.0000		9999	2230	0	0	0
2019/05/28 02:54:00	BASE	10.69	243	16.20	238	-8.0	77	-11.3	0	0	994.2	NA	0.0000		9999	2260	0	0	0
2019/05/28 02:55:00	BASE	9.47	240	16.20	238	-8.0	77	-11.3	0	0	994.1	NA	0.0000		9999	2490	0	0	0
2019/05/28 02:56:00	BASE	8.28	240	16.20	238	-8.0	76	-11.4	0	0	994.1	NA	0.0000		9999	2490	0	0	0
2019/05/28 02:57:00	BASE	8.04	238	16.15	237	-8.0	76	-11.4	0	0	994.1	NA	0.0000		9999	2030	0	0	0
2019/05/28 02:58:00	BASE	10.49	227	16.15	237	-7.9	76	-11.4	0	0	994.1	NA	0.0000		9999	2200	0	0	0
2019/05/28 02:59:00	BASE	12.60	225	16.15	237	-7.9	76	-11.4	0	0	994.1	NA	0.0000		9999	2200	0	0	0
2019/05/28 03:00:00	BASE	11.26	229	16.15	237	-7.9	76	-11.4	0	0	994.1	NA	0.0000		9999	2170	0	0	0
2019/05/28 03:01:00	BASE	11.53	227	14.71	223	-7.9	76	-11.5	0	0	994.0	NA	0.0000		9999	2260	0	0	0
2019/05/28 03:02:00	BASE	12.36	229	14.71	223	-7.9	76	-11.4	0	0	994.1	NA	0.0000		9999	2330	0	0	0
2019/05/28 03:03:00	BASE	12.21	237	14.71	223	-7.8	76	-11.4	0	0	994.1	NA	0.0000		9999	2330	0	0	0
2019/05/28 03:04:00	BASE	11.55	245	14.71	223	-7.8	76	-11.4	0	0	994.1	NA	0.0000		9999	2200	0	0	0
2019/05/28 03:05:00	BASE	9.00	246	14.71	223	-7.8	76	-11.4	0	0	994.1	NA	0.0000		9999	2490	0	0	0
2019/05/28 03:06:00	BASE	8.08	244	14.71	223	-7.8	76	-11.4	0	0	994.1	NA	0.0000		9999	2360	0	0	0
2019/05/28 03:07:00	BASE	8.51	243	14.71	223	-7.9	75	-11.5	0	0	994.1	NA	0.0000		9999	2230	0	0	0
2019/05/28 03:08:00	BASE	8.91	248	14.71	223	-7.9	75	-11.5	0	0	994.1	NA	0.0000		9999	2300	0	0	0
2019/05/28 03:09:00	BASE	9.48	248	14.71	223	-7.9	75	-11.6	0	0	994.1	NA	0.0000		9999	2130	0	0	0
2019/05/28 03:10:00	BASE	8.83	243	14.71	223	-7.9	75	-11.5	0	0	994.1	NA	0.0000		9999	2200	0	0	0
2019/05/28 03:11:00	BASE	8.96	242	14.04	245	-7.8	75	-11.5	0	0	994.1	NA	0.0000		9999	2230	0	0	0
2019/05/28 03:12:00	BASE	10.98	239	14.04	245	-7.8	75	-11.4	0	0	994.1	NA	0.0000		9999	2030	0	0	0
2019/05/28 03:13:00	BASE	10.55	234	13.53	237	-7.8	75	-11.4	0	0	994.1	NA	0.0000		9999	2130	0	0	0
2019/05/28 03:14:00	BASE	10.22	227	13.79	227	-7.7	76	-11.3	0	0	994.1	NA	0.0000		9999	2170	0	0	0
2019/05/28 03:15:00	BASE	11.78	225	13.79	227	-7.7	76	-11.2	0	0	994.1	NA	0.0000		9999	2100	0	0	0
2019/05/28 03:16:00	BASE	12.64	226	14.04	227	-7.6	76	-11.1	0	0	994.1	NA	0.0000		9999	2000	0	0	0
2019/05/28 03:17:00	BASE	10.84	230	14.04	227	-7.6	76	-11.1	0	0	994.1	NA	0.0000		9999	2300	0	0	0
2019/05/28 03:18:00	BASE	8.98	234	14.04	227	-7.6	76	-11.1	0	0	994.1	NA	0.0000		9999	2230	0	0	0
2019/05/28 03:19:00	BASE	9.21	238	14.04	227	-7.6	76	-11.1	0	0	994.1	NA	0.0000		9999	2230	0	0	0
2019/05/28 03:20:01	BASE	10.26	235	14.04	227	-7.7	76	-11.2	0	0	994.1	NA	0.0000		9999	2260	0	0	0
2019/05/28 03:21:00	BASE	11.13	234	14.04	227	-7.7	76	-11.2	0	0	994.1	NA	0.0000		9999	2200	0	0	0
2019/05/28 03:22:00	BASE	11.03	237	14.04	227	-7.7	76	-11.2	0	0	994.1	NA	0.0000		9999	2300	3080	0	0
2019/05/28 03:23:00	BASE	10.66	228	14.04	227	-7.8	76	-11.2	0	0	994.1	NA	0.0000		9999	2070	0	0	0
2019/05/28 03:24:00	BASE	9.85	221	14.04	227	-7.8	76	-11.3	0	0	994.1	NA	0.0000		9999	1940	0	0	0
2019/05/28 03:25:00	BASE	9.33	219	14.04	227	-7.8	76	-11.4	0	0	994.1	NA	0.0000		9999	2130	0	0	0
2019/05/28 03:26:00	BASE	9.01	222	12.76	228	-7.9	75	-11.5	0	0	994.1	NA	0.0000		9999	2100	0	0	0
2019/05/28 03:27:00	BASE	9.11	224	13.27	225	-7.8	75	-11.5	0	0	994.1	NA	0.0000		9999	2200	0	0	0
2019/05/28 03:28:00	BASE	9.82	223	13.27	225	-7.8	75	-11.5	0	0	994.1	NA	0.0000		9999	2070	0	0	0
2019/05/28 03:29:00	BASE	9.47	225	13.27	225	-7.8	75	-11.5	0	0	994.1	NA	0.0000		9999	2100	0	0	0
2019/05/28 03:30:00	BASE	8.01	233	13.27	225	-7.8	75	-11.4	0	0	994.1	NA	0.0000		9999	2170	0	0	0
2019/05/28 03:31:00	BASE	7.29	244	13.27	225	-7.8	75	-11.4	0	0	994.1	NA	0.0000		9999	2100	0	0	0
2019/05/28 03:32:00	BASE	8.41	242	13.27	225	-7.8	75	-11.4	0	0	994.1	NA	0.0000		9999	2100	0	0	0
2019/05/28 03:33:00	BASE	9.23	234	13.27	225	-7.8	75	-11.4	0	0	994.1	NA	0.0000		9999	2000	0	0	0
2019/05/28 03:34:00	BASE	8.64	233	13.27	225	-7.7	75	-11.3	0	0	994.1	NA	0.0000		9999	2100	0	0	0
2019/05/28 03:35:00	BASE	10.37	233	15.54	237	-7.7	76	-11.3	0	0	994.0	NA	0.0000		9999	2130	0	0	0
2019/05/28 03:36:00	BASE	12.32	237	15.54	237	-7.7	76	-11.3	0	0	994.0	NA	0.0000		9999	2100	0	0	0
2019/05/28 03:37:00	BASE	12.20	243	15.54	237	-7.7	76	-11.2	0	0	994.0	NA	0.0000		9999	2100	0	0	0
2019/05/28 03:38:00	BASE	11.96	241	15.54	237	-7.7	76	-11.2	0	0	994.0	NA	0.0000		9999	2000	0	0	0
2019/05/28 03:39:00	BASE	10.73	236	15.54	237	-7.7	76	-11.2	0	0	994.1	NA	0.0000		9999	2130	0	0	0
2019/05/28 03:40:00	BASE	10.29	234	15.54	237	-7.7	76	-11.2	0	0	994.0	NA	0.0000		9999	2260	0	0	0
2019/05/28 03:41:00	BASE	10.22	231	15.54	237	-7.8	76	-11.3	0	0	994.0	NA	0.0000		9999	2200	0	0	0
2019/05/28 03:42:00	BASE	9.81	225	15.54	237	-7.8	76	-11.3	0	0	994.0	NA	0.0000		9999	2200	0	0	0
2019/05/28 03:43:00	BASE	9.64	221	15.54	237	-7.8	76	-11.4	0	0	994.0	NA	0.0000		9999	2200	0	0	0
2019/05/28 03:44:00	BASE	10.35	224	15.54	237	-7.8	75	-11.4	0	0	994.0	NA	0.0000		9999	2230	0	0	0
2019/05/28 03:45:00	BASE	11.20	232	14.46	239	-7.7	75	-11.3	0	0	994.0	NA	0.0000		9999	2200	0	0	0
2019/05/28 03:46:00	BASE	10.66	234	13.89	238	-7.7	75	-11.3	0	0	994.0	NA	0.0000		9999	2100	0	0	0
2019/05/28 03:47:00	BASE	11.00	226	13.89	238	-7.6	76	-11.2	0	0	994.0	NA	0.0000		9999	2000	0	0	0
2019/05/28 03:48:00	BASE	11.30	222	13.89	238	-7.6	76	-11.1	0	0	994.0	NA	0.0000		9999	2030	0	0	0
2019/05/28 03:49:00	BASE	10.40	218	13.89	238	-7.6	76	-11.1	0	0	994.0	NA	0.0000		9999	2000	0	0	0
2019/05/28 03:50:00	BASE	9.41	212	13.89	238	-7.7	76	-11.2	0	0	994.0	NA	0.0000		9999	2000	0	0	0
2019/05/28 03:51:00	BASE	9.40	215	13.89	238	-7.7	76	-11.2	0	0	994.0	NA	0.0000		9999	2070	0	0	0
2019/05/28 03:52:00	BASE	11.09	220	15.07	219	-7.8	76	-11.2	0	0	993.9	NA	0.0000		9999	2070	0	0	0
2019/05/28 03:53:00	BASE	12.87	219	15.12	223	-7.8	76	-11.3	0	0	993.9	NA	0.0000		9999	2100	0	0	0
2019/05/28 03:54:00	BASE	12.37	221	15.12	223	-7.8	76	-11.3	0	0	993.9	NA	0.0000		9999	2070	0	0	0
2019/05/28 03:55:00	BASE	10.78	230	15.12	223	-7.8	76	-11.3	0	0	994.0	NA	0.0000		9999	2070	0	0	0
2019/05/28 03:56:00	BASE	9.30	241	15.12	223	-7.7	76	-11.2	0	0	994.0	NA	0.0000		9999	1800	0	0	0
2019/05/28 03:57:00	BASE	8.65	250	15.12	223	-7.7	76	-11.2	0	0	994.0	NA	0.0000		9999	1900	0	0	0
2019/05/28 03:58:00	BASE	9.40	253	15.12	223	-7.7	76	-11.2	0	0	993.9	NA	0.0000		9999	1870	0	0	0
2019/05/28 03:59:00	BASE	10.95	257	15.12	223	-7.7	76	-11.2	0	0	993.9	NA	0.0000		9999	2030	0	0	0
2019/05/28 04:00:00	BASE	10.43	254	15.12	223	-7.8	76	-11.3	0	0	994.0	NA	0.0000		9999	1970	0	0	0
2019/05/28 04:01:00	BASE	9.11	246	15.12	223	-7.8	76	-11.3	0	0	994.0	NA	0.0000		9999	2000	0	0	0
2019/05/28 04:02:04	BASE	9.16	247	15.12	223	-7.8	76	-11.3	0	0	M	NA	0.0000		M	2070	0	0	0
2019/05/28 04:03:04	BASE	10.25	247	14.71	214	-7.8	76	-11.3	0	0	993.9	NA	0.0000		9999	2000	0	0	0
2019/05/28 04:04:04	BASE	11.90	242	14.15	258	-7.8	76	-11.3	0	0	993.9	NA	0.0000		9999	1940	0	0	0
2019/05/28 04:05:04	BASE	10.13	235	14.15	258	-7.8	76	-11.3	0	0	994.0	NA	0.0000		9999	1840	0	0	0
2019/05/28 04:06:04	BASE	7.82	234	14.15	258	-7.8	76	-11.3	0	0	994.0	NA	0.0000		9999	2000	0	0	0
2019/05/28 04:07:04	BASE	6.09	231	14.15	258	-7.8	76	-11.3	0	0	994.0	NA	0.0000		9999	2000	0	0	0
2019/05/28 04:08:03	BASE	4.91	236	14.15	258	-7.8	76	-11.3	0	0	994.1	NA	0.0000		9999	1900	0	0	0
2019/05/28 04:09:04	BASE	5.93	249	13.94	259	-7.8	76	-11.3	0	0	994.0	NA	0.0000		9999	1870	0	0	0
2019/05/28 04:10:01	BASE	7.01	241	13.79	243	-7.8	76	-11.3	0	0	994.0	NA	0.0000		9999	1840	0	0	0
2019/05/28 04:11:04	BASE	9.72	231	15.59	218	-7.8	76	-11.2	0	0	993.9	NA	0.0000		9999	1970	0	0	0
2019/05/28 04:12:04	BASE	14.00	229	17.90	229	-7.7	76	-11.1	0	0	993.9	NA	0.0000		9999	2000	0	0	0
2019/05/28 04:13:03	BASE	14.97	224	17.90	229	-7.7	77	-11.1	0	0	993.9	NA	0.0000		9999	2030	0	0	0
2019/05/28 04:14:04	BASE	13.05	222	17.90	229	-7.6	77	-11.0	0	0	993.9	NA	0.0000		9999	2360	0	0	0
2019/05/28 04:15:03	BASE	12.62	221	17.90	229	-7.6	77	-11.0	0	0	993.9	NA	0.0000		9999	2170	0	0	0
2019/05/28 04:16:04	BASE	13.15	220	17.90	229	-7.6	77	-11.0	0	0	993.9	NA	0.0000		9999	2030	0	0	0
2019/05/28 04:17:04	BASE	11.69	214	17.90	229	-7.7	77	-11.0	0	0	994.0	NA	0.0000		9999	2260	0	0	0
2019/05/28 04:18:04	BASE	9.46	219	17.90	229	-7.7	77	-11.0	0	0	994.0	NA	0.0000		9999	1870	0	0	0
2019/05/28 04:19:03	BASE	9.59	231	17.90	229	-7.7	77	-11.0	0	0	993.9	NA	0.0000		9999	1900	0	0	0
2019/05/28 04:20:03	BASE	10.45	233	17.90	229	-7.7	77	-11.0	0	0	993.9	NA	0.0000		9999	1770	0	0	0
2019/05/28 04:21:03	BASE	8.82	233	17.90	229	-7.7	77	-11.0	0	0	994.0	NA	0.0000		9999	1770	0	0	0
2019/05/28 04:22:04	BASE	7.90	236	16.67	223	-7.7	77	-11.0	0	0	993.9	NA	0.0000		9999	1870	0	0	0
2019/05/28 04:23:04	BASE	8.29	236	16.05	219	-7.7	77	-11.0	0	0	993.9	NA	0.0000		9999	1800	0	0	0
2019/05/28 04:24:04	BASE	8.14	235	16.05	219	-7.7	77	-11.0	0	0	994.0	NA	0.0000		9999	1800	0	0	0
2019/05/28 04:25:03	BASE	8.61	234	15.28	221	-7.7	77	-11.0	0	0	993.9	NA	0.0000		9999	1800	0	0	0
2019/05/28 04:26:04	BASE	8.45	222	13.48	231	-7.7	77	-10.9	0	0	994.0	NA	0.0000		9999	1770	0	0	0
2019/05/28 04:27:04	BASE	7.52	220	13.48	231	-7.6	78	-10.9	0	0	994.0	NA	0.0000		9999	1740	0	0	0
2019/05/28 04:28:04	BASE	7.85	227	13.48	231	-7.6	78	-10.8	0	0	993.9	NA	0.0000		9999	1770	0	0	0
2019/05/28 04:29:03	BASE	8.29	230	13.48	231	-7.5	78	-10.7	0	0	993.9	NA	0.0000		9999	1770	0	0	0
2019/05/28 04:30:03	BASE	8.85	239	11.37	248	-7.5	79	-10.6	0	0	993.9	NA	0.0000		9999	1800	0	0	0
2019/05/28 04:31:05	BASE	9.50	245	11.52	233	-7.5	79	-10.5	0	0	993.9	NA	0.0000		9999	1740	0	0	0
2019/05/28 04:32:05	BASE	11.57	237	14.92	242	-7.5	79	-10.5	0	0	993.9	NA	0.0000		9999	1840	0	0	0
2019/05/28 04:33:04	BASE	12.76	226	14.92	242	-7.5	79	-10.5	0	0	993.9	NA	0.0000		9999	1840	0	0	0
2019/05/28 04:34:04	BASE	11.39	226	14.92	242	-7.5	79	-10.5	0	0	993.9	NA	0.0000		9999	1740	0	0	0
2019/05/28 04:35:03	BASE	11.00	226	14.92	242	-7.5	79	-10.4	0	0	993.9	NA	0.0000		9999	1740	0	0	0
2019/05/28 04:36:04	BASE	9.70	219	14.92	242	-7.5	79	-10.4	0	0	993.9	NA	0.0000		9999	1740	0	0	0
2019/05/28 04:37:04	BASE	8.30	226	14.92	242	-7.5	80	-10.4	0	0	994.0	NA	0.0000		9999	1770	0	0	0
2019/05/28 04:38:06	BASE	7.73	235	14.92	242	-7.5	80	-10.4	0	0	994.0	NA	0.0000		9999	1840	0	0	0
2019/05/28 04:39:04	BASE	8.94	229	14.92	242	-7.6	80	-10.5	0	0	993.9	NA	0.0000		9999	1840	0	0	0
2019/05/28 04:40:03	BASE	11.48	227	14.92	242	-7.6	80	-10.5	0	0	993.9	NA	0.0000		9999	1840	0	0	0
2019/05/28 04:41:03	BASE	13.27	232	14.92	242	-7.6	80	-10.4	0	0	993.9	NA	0.0000		9999	1840	0	0	0
2019/05/28 04:42:04	BASE	12.20	227	14.76	230	-7.6	80	-10.4	0	0	993.9	NA	0.0000		9999	1840	0	0	0
2019/05/28 04:43:04	BASE	9.86	222	14.76	230	-7.5	80	-10.4	0	0	993.9	NA	0.0000		9999	1740	0	0	0
2019/05/28 04:44:04	BASE	10.65	217	14.76	230	-7.5	80	-10.4	0	0	993.9	NA	0.0000		9999	1740	0	0	0
2019/05/28 04:45:03	BASE	12.44	206	15.64	200	-7.5	80	-10.4	0	0	993.8	NA	0.0000		9999	1770	0	0	0
2019/05/28 04:46:04	BASE	13.03	220	15.64	200	-7.6	80	-10.4	0	0	993.9	NA	0.0000		9999	1740	0	0	0
2019/05/28 04:47:05	BASE	12.14	238	15.64	200	-7.5	80	-10.4	0	0	993.9	NA	0.0000		9999	1740	0	0	0
2019/05/28 04:48:05	BASE	12.93	229	16.31	222	-7.5	80	-10.3	0	0	993.8	NA	0.0000		9999	1840	0	0	0
2019/05/28 04:49:04	BASE	14.43	221	16.31	222	-7.6	80	-10.4	0	0	993.9	NA	0.0000		9999	1870	0	0	0
2019/05/28 04:50:04	BASE	14.54	220	16.31	222	-7.6	81	-10.3	0	0	993.9	NA	0.0000		9999	1840	0	0	0
2019/05/28 04:51:04	BASE	13.35	224	16.31	222	-7.6	81	-10.4	0	0	993.9	NA	0.0000		9999	1840	0	0	0
2019/05/28 04:52:04	BASE	10.53	232	16.31	222	-7.6	81	-10.3	0	0	994.0	NA	0.0000		9999	1800	0	0	0
2019/05/28 04:53:04	BASE	8.76	237	16.31	222	-7.6	81	-10.3	0	0	994.0	NA	0.0000		9999	1670	0	0	0
2019/05/28 04:54:04	BASE	8.73	234	16.31	222	-7.6	81	-10.3	0	0	994.0	NA	0.0000		9999	1840	0	0	0
2019/05/28 04:55:04	BASE	9.92	241	16.31	222	-7.6	81	-10.3	0	0	993.9	NA	0.0000		9999	1740	0	0	0
2019/05/28 04:56:04	BASE	10.64	250	16.31	222	-7.5	81	-10.2	0	0	993.9	NA	0.0000		9999	1740	0	0	0
2019/05/28 04:57:03	BASE	10.14	251	16.31	222	-7.6	81	-10.3	0	0	993.9	NA	0.0000		9999	1710	0	0	0
2019/05/28 04:58:04	BASE	9.25	251	15.84	225	-7.6	81	-10.3	0	0	993.9	NA	0.0000		9999	1710	0	0	0
2019/05/28 04:59:04	BASE	8.54	244	15.84	225	-7.6	81	-10.3	0	0	993.9	NA	0.0000		9999	1740	0	0	0
2019/05/28 05:00:04	BASE	8.24	234	13.32	221	-7.6	81	-10.3	0	0	993.9	NA	0.0000		9999	1740	0	0	0
2019/05/28 05:01:04	BASE	7.58	229	11.57	248	-7.5	81	-10.2	0	0	993.9	NA	0.0000		9999	1740	0	0	0
2019/05/28 05:02:04	BASE	6.54	227	11.57	248	-7.5	81	-10.2	0	0	993.9	NA	0.0000		9999	1770	0	0	0
2019/05/28 05:03:04	BASE	7.78	221	11.57	248	-7.5	81	-10.2	0	0	993.8	NA	0.0000		9999	1670	0	0	0
2019/05/28 05:04:04	BASE	9.55	219	11.57	248	-7.5	81	-10.2	0	0	993.7	NA	0.0000		9999	1670	0	0	0
2019/05/28 05:05:03	BASE	10.11	227	12.50	233	-7.4	81	-10.1	0	0	993.7	NA	0.0000	-SN	9999	1710	0	0	0
2019/05/28 05:06:04	BASE	10.95	232	12.91	237	-7.4	81	-10.0	0	0	993.7	NA	0.0000	-SN	9999	1610	0	0	0
2019/05/28 05:07:04	BASE	11.91	230	14.30	234	-7.3	81	-10.0	0	0	993.7	NA	0.0000	-SN	9999	1640	0	0	0
2019/05/28 05:08:03	BASE	11.72	229	14.30	234	-7.3	82	-9.9	0	0	993.7	NA	0.0000	-SN	9999	1640	0	0	0
2019/05/28 05:09:06	BASE	10.06	227	14.30	234	-7.3	82	-9.9	0	0	993.7	NA	0.0000	-SN	9999	1640	0	0	0
2019/05/28 05:10:01	BASE	10.28	231	14.30	234	-7.3	82	-9.9	0	0	993.7	NA	0.0000	-SN	9999	1640	0	0	0
2019/05/28 05:11:04	BASE	10.17	235	14.30	234	-7.3	82	-9.8	0	0	993.7	NA	0.0000	-SN	9999	1670	0	0	0
2019/05/28 05:12:04	BASE	8.57	236	14.30	234	-7.3	82	-9.9	0	0	993.7	NA	0.0000	-SN	9999	1670	0	0	0
2019/05/28 05:13:04	BASE	8.27	248	14.30	234	-7.4	82	-9.9	0	0	993.7	NA	0.0000	-SN	9999	1640	0	0	0
2019/05/28 05:14:04	BASE	9.57	253	14.30	234	-7.4	82	-9.9	0	0	993.6	NA	0.0000	-SN	9999	1570	0	0	0
2019/05/28 05:15:03	BASE	10.46	233	14.30	234	-7.4	82	-9.9	0	0	993.6	NA	0.0000	-SN	9999	1610	0	0	0
2019/05/28 05:16:04	BASE	10.53	220	14.30	234	-7.3	82	-9.9	0	0	993.7	NA	0.0000	-SN	9999	1670	0	0	0
2019/05/28 05:17:03	BASE	11.47	232	13.84	249	-7.3	82	-9.9	0	0	993.6	NA	0.0000	-SN	9999	1670	0	0	0
2019/05/28 05:18:04	BASE	12.32	241	13.84	249	-7.3	82	-9.8	0	0	993.6	NA	0.0000	-SN	9999	1640	0	0	0
2019/05/28 05:19:03	BASE	10.33	238	13.84	249	-7.3	82	-9.8	0	0	993.6	NA	0.0000	-SN	9999	1640	0	0	0
2019/05/28 05:20:03	BASE	8.62	246	13.84	249	-7.3	82	-9.9	0	0	993.6	NA	0.0000	-SN	9999	1670	0	0	0
2019/05/28 05:21:03	BASE	10.08	242	13.84	249	-7.4	82	-9.9	0	0	993.6	NA	0.0000	-SN	9999	1640	0	0	0
2019/05/28 05:22:04	BASE	10.93	219	13.84	249	-7.4	82	-9.8	0	0	993.6	NA	0.0000	-SN	9999	1710	0	0	0
2019/05/28 05:23:04	BASE	10.61	216	13.84	249	-7.3	83	-9.8	0	0	993.6	NA	0.0000	-SN	9999	1640	0	0	0
2019/05/28 05:24:05	BASE	10.76	226	13.84	249	-7.3	83	-9.7	0	0	993.7	NA	0.0000	-SN	9999	1740	0	0	0
2019/05/28 05:25:03	BASE	10.23	230	13.84	249	-7.2	83	-9.6	0	0	993.7	NA	0.0000	-SN	9999	1740	0	0	0
2019/05/28 05:26:04	BASE	8.85	232	13.84	249	-7.2	83	-9.6	0	0	993.7	NA	0.0000	-SN	9999	1770	0	0	0
2019/05/28 05:27:04	BASE	9.14	229	13.58	238	-7.2	83	-9.6	0	0	993.7	NA	0.0000	-SN	9999	1770	0	0	0
2019/05/28 05:28:04	BASE	9.37	219	13.58	238	-7.2	83	-9.6	0	0	993.7	NA	0.0000	-SN	9999	1670	0	0	0
2019/05/28 05:29:04	BASE	9.89	222	14.71	231	-7.2	83	-9.6	0	0	993.7	NA	0.0000	-SN	9999	1800	0	0	0
2019/05/28 05:30:03	BASE	11.96	231	14.71	231	-7.3	83	-9.7	0	0	993.6	NA	0.0000	-SN	9999	1940	0	0	0
2019/05/28 05:31:04	BASE	11.85	230	14.71	231	-7.3	83	-9.7	0	0	993.7	NA	0.0000	-SN	9999	1970	0	0	0
2019/05/28 05:32:05	BASE	10.08	232	14.71	231	-7.4	83	-9.7	0	0	993.7	NA	0.0000	-SN	9999	2000	0	0	0
2019/05/28 05:33:04	BASE	8.07	235	14.71	231	-7.4	83	-9.8	0	0	993.7	NA	0.0000	-SN	9999	2030	0	0	0
2019/05/28 05:34:04	BASE	8.51	237	14.71	231	-7.4	83	-9.8	0	0	993.6	NA	0.0000	-SN	9999	1840	0	0	0
2019/05/28 05:35:04	BASE	10.98	240	14.71	231	-7.4	83	-9.8	0	0	993.6	NA	0.0000		9999	1940	0	0	0
2019/05/28 05:36:04	BASE	11.57	233	14.71	231	-7.4	83	-9.8	0	0	993.6	NA	0.0000		9999	1870	0	0	0
2019/05/28 05:37:05	BASE	10.94	233	14.71	231	-7.4	83	-9.8	0	0	993.6	NA	0.0000		9999	1840	0	0	0
2019/05/28 05:38:05	BASE	11.24	237	14.71	231	-7.4	83	-9.8	0	0	993.6	NA	0.0000		9999	1940	0	0	0
2019/05/28 05:39:05	BASE	11.29	240	14.04	235	-7.4	83	-9.8	0	0	993.6	NA	0.0000		9999	1840	0	0	0
2019/05/28 05:40:03	BASE	9.60	244	13.32	224	-7.5	83	-9.9	0	0	993.6	NA	0.0000		9999	1940	0	0	0
2019/05/28 05:41:04	BASE	7.81	237	13.32	224	-7.5	82	-10.0	0	0	993.7	NA	0.0000		9999	1940	0	0	0
2019/05/28 05:42:05	BASE	6.50	234	13.32	224	-7.5	82	-10.1	0	0	993.6	NA	0.0000		9999	2000	0	0	0
2019/05/28 05:43:04	BASE	5.89	236	13.32	224	-7.6	82	-10.1	0	0	993.6	NA	0.0000		9999	2030	0	0	0
2019/05/28 05:44:05	BASE	6.16	235	13.32	224	-7.6	82	-10.2	0	0	993.6	NA	0.0000		9999	2030	0	0	0
2019/05/28 05:45:03	BASE	8.36	231	14.66	228	-7.6	82	-10.1	0	0	993.6	NA	0.0000		9999	2100	0	0	0
2019/05/28 05:46:04	BASE	10.58	225	14.66	228	-7.5	82	-10.1	0	0	993.6	NA	0.0000		9999	2100	0	0	0
2019/05/28 05:47:04	BASE	11.95	223	14.66	228	-7.5	82	-10.0	0	0	993.6	NA	0.0000		9999	2130	0	0	0
2019/05/28 05:48:04	BASE	12.18	230	14.66	228	-7.5	82	-10.0	0	0	993.6	NA	0.0000		9999	1900	0	0	0
2019/05/28 05:49:04	BASE	10.30	234	14.66	228	-7.5	82	-10.0	0	0	993.6	NA	0.0000		9999	1970	0	0	0
2019/05/28 05:50:03	BASE	7.60	237	14.66	228	-7.5	82	-10.0	0	0	993.6	NA	0.0000		9999	1800	0	0	0
2019/05/28 05:51:04	BASE	6.83	238	14.66	228	-7.5	82	-10.0	0	0	993.6	NA	0.0000		9999	1940	0	0	0
2019/05/28 05:52:04	BASE	7.07	238	14.66	228	-7.5	82	-10.1	0	0	993.6	NA	0.0000		9999	1900	0	0	0
2019/05/28 05:53:04	BASE	6.09	244	14.66	228	-7.6	82	-10.1	0	0	993.6	NA	0.0000		9999	1900	0	0	0
2019/05/28 05:54:04	BASE	5.08	249	14.66	228	-7.6	82	-10.2	0	0	993.6	NA	0.0000		9999	1870	0	0	0
2019/05/28 05:55:03	BASE	4.26	240	14.04	230	-7.6	82	-10.2	0	0	993.6	NA	0.0000		9999	1900	0	0	0
2019/05/28 05:56:04	BASE	4.23	237	14.04	230	-7.7	81	-10.3	0	0	993.6	NA	0.0000		9999	1900	0	0	0
2019/05/28 05:57:04	BASE	6.00	233	12.35	236	-7.7	81	-10.3	0	0	993.6	NA	0.0000		9999	1970	0	0	0
2019/05/28 05:58:04	BASE	9.33	223	12.91	235	-7.6	81	-10.2	0	0	993.5	NA	0.0000		9999	2000	0	0	0
2019/05/28 05:59:04	BASE	12.22	227	14.76	227	-7.5	81	-10.2	0	0	993.5	NA	0.0000		9999	1900	0	0	0
2019/05/28 06:00:04	BASE	12.09	234	14.76	227	-7.4	81	-10.1	0	0	993.6	NA	0.0000		9999	1870	0	0	0
2019/05/28 06:01:04	BASE	9.84	237	14.76	227	-7.4	81	-10.0	0	0	993.6	NA	0.0000		9999	1840	0	0	0
2019/05/28 06:02:04	BASE	8.62	230	14.76	227	-7.4	81	-10.0	0	0	993.6	NA	0.0000		9999	1970	0	0	0
2019/05/28 06:03:03	BASE	8.23	223	14.76	227	-7.4	81	-10.1	0	0	993.6	NA	0.0000		9999	2030	0	0	0
2019/05/28 06:04:05	BASE	9.98	222	14.76	227	-7.4	81	-10.1	0	0	993.6	NA	0.0000		9999	2000	0	0	0
2019/05/28 06:05:03	BASE	10.62	218	14.76	227	-7.5	81	-10.2	0	0	993.6	NA	0.0000		9999	1840	0	0	0
2019/05/28 06:06:04	BASE	8.93	211	14.76	227	-7.5	81	-10.2	0	0	993.6	NA	0.0000		9999	1800	0	0	0
2019/05/28 06:07:04	BASE	8.34	209	14.76	227	-7.5	81	-10.2	0	0	993.5	NA	0.0000		9999	1840	0	0	0
2019/05/28 06:08:05	BASE	7.56	214	14.76	227	-7.5	81	-10.2	0	0	993.5	NA	0.0000		9999	1840	0	0	0
2019/05/28 06:09:05	BASE	7.51	223	13.63	222	-7.5	81	-10.2	0	0	993.5	NA	0.0000		9999	1800	0	0	0
2019/05/28 06:10:01	BASE	8.21	227	13.63	222	-7.5	81	-10.2	0	0	993.5	NA	0.0000		9999	1840	0	0	0
2019/05/28 06:11:05	BASE	11.04	224	15.54	219	-7.4	81	-10.1	0	0	993.5	NA	0.0000		9999	1900	0	0	0
2019/05/28 06:12:04	BASE	13.93	226	15.54	228	-7.4	81	-10.1	0	0	993.5	NA	0.0000		9999	1870	0	0	0
2019/05/28 06:13:04	BASE	13.62	229	15.54	228	-7.4	81	-10.1	0	0	993.5	NA	0.0000		9999	1870	0	0	0
2019/05/28 06:14:04	BASE	13.04	230	15.54	228	-7.3	81	-10.0	0	0	993.5	NA	0.0000		9999	1740	0	0	0
2019/05/28 06:15:04	BASE	12.71	236	15.54	228	-7.3	81	-10.0	0	0	993.5	NA	0.0000		9999	1840	0	0	0
2019/05/28 06:16:03	BASE	11.29	236	15.54	228	-7.4	81	-10.1	0	0	993.6	NA	0.0000		9999	1900	0	0	0
2019/05/28 06:17:04	BASE	10.03	230	15.54	228	-7.4	81	-10.1	0	0	993.6	NA	0.0000		9999	1840	0	0	0
2019/05/28 06:18:04	BASE	10.26	222	15.54	228	-7.4	81	-10.1	0	0	993.7	NA	0.0000		9999	1900	0	0	0
2019/05/28 06:19:02	BASE	9.65	216	15.54	228	-7.5	81	-10.2	0	0	993.6	NA	0.0000		9999	1900	0	0	0
2019/05/28 06:20:03	BASE	7.49	215	15.54	228	-7.5	81	-10.3	0	0	993.7	NA	0.0000		9999	1740	0	0	0
2019/05/28 06:21:03	BASE	7.02	212	15.54	228	-7.6	81	-10.3	0	0	993.6	NA	0.0000		9999	1740	0	0	0
2019/05/28 06:22:03	BASE	7.32	211	14.71	228	-7.6	80	-10.4	0	0	993.6	NA	0.0000		9999	1900	0	0	0
2019/05/28 06:23:02	BASE	7.11	228	14.56	232	-7.6	80	-10.4	0	0	993.6	NA	0.0000		9999	1840	0	0	0
2019/05/28 06:24:04	BASE	8.38	242	13.89	240	-7.6	80	-10.5	0	0	993.6	NA	0.0000		9999	1870	0	0	0
2019/05/28 06:25:03	BASE	11.53	234	15.28	225	-7.6	80	-10.4	0	0	993.5	NA	0.0000		9999	1940	0	0	0
2019/05/28 06:26:04	BASE	13.97	227	15.28	225	-7.5	80	-10.4	0	0	993.6	NA	0.0000		9999	1800	0	0	0
2019/05/28 06:27:03	BASE	11.86	229	15.28	225	-7.5	80	-10.4	0	0	993.6	NA	0.0000		9999	2000	0	0	0
2019/05/28 06:28:03	BASE	8.65	235	15.28	225	-7.6	80	-10.4	0	0	993.6	NA	0.0000		9999	1800	0	0	0
2019/05/28 06:29:03	BASE	7.99	238	15.28	225	-7.6	80	-10.5	0	0	993.6	NA	0.0000		9999	2030	0	0	0
2019/05/28 06:30:03	BASE	7.89	234	15.28	225	-7.6	80	-10.5	0	0	993.6	NA	0.0000		9999	1940	0	0	0
2019/05/28 06:31:03	BASE	6.81	227	15.28	225	-7.6	80	-10.5	0	0	993.6	NA	0.0000		9999	1970	0	0	0
2019/05/28 06:32:05	BASE	6.17	225	15.28	225	-7.6	80	-10.5	0	0	993.6	NA	0.0000		9999	1900	0	0	0
2019/05/28 06:33:05	BASE	6.93	243	15.28	225	-7.6	80	-10.5	0	0	993.6	NA	0.0000		9999	1940	0	0	0
2019/05/28 06:34:04	BASE	8.51	248	15.28	225	-7.6	80	-10.4	0	0	993.6	NA	0.0000		9999	1970	0	0	0
2019/05/28 06:35:03	BASE	10.00	230	15.12	227	-7.6	80	-10.4	0	0	993.6	NA	0.0000		9999	1840	0	0	0
2019/05/28 06:36:04	BASE	9.05	231	12.35	224	-7.6	80	-10.4	0	0	993.6	NA	0.0000		9999	1940	0	0	0
2019/05/28 06:37:04	BASE	7.10	237	11.73	223	-7.6	80	-10.5	0	0	993.6	NA	0.0000		9999	1940	0	0	0
2019/05/28 06:38:04	BASE	6.22	234	11.73	223	-7.6	80	-10.5	0	0	993.6	NA	0.0000		9999	2070	0	0	0
2019/05/28 06:39:04	BASE	6.74	228	11.73	223	-7.6	80	-10.5	0	0	993.6	NA	0.0000		9999	2100	0	0	0
2019/05/28 06:40:04	BASE	8.79	220	11.73	223	-7.6	80	-10.5	0	0	993.6	NA	0.0000		9999	2070	0	0	0
2019/05/28 06:41:04	BASE	9.22	213	11.73	223	-7.6	80	-10.5	0	0	993.6	NA	0.0000		9999	2070	0	0	0
2019/05/28 06:42:04	BASE	8.42	207	11.73	223	-7.6	80	-10.4	0	0	993.6	NA	0.0000		9999	2000	0	0	0
2019/05/28 06:43:03	BASE	8.74	210	11.73	223	-7.5	80	-10.4	0	0	993.6	NA	0.0000		9999	1970	0	0	0
2019/05/28 06:44:04	BASE	8.72	208	11.73	223	-7.5	80	-10.4	0	0	993.6	NA	0.0000		9999	1940	0	0	0
2019/05/28 06:45:04	BASE	9.11	201	11.42	225	-7.5	80	-10.4	0	0	993.6	NA	0.0000		9999	1940	0	0	0
2019/05/28 06:46:04	BASE	9.28	207	11.42	225	-7.5	80	-10.3	0	0	993.6	NA	0.0000		9999	1940	0	0	0
2019/05/28 06:47:04	BASE	8.79	217	11.42	225	-7.4	80	-10.3	0	0	993.6	NA	0.0000		9999	1900	0	0	0
2019/05/28 06:48:04	BASE	8.48	215	11.42	225	-7.4	80	-10.3	0	0	993.6	NA	0.0000		9999	1970	0	0	0
2019/05/28 06:49:03	BASE	8.21	209	11.42	225	-7.4	80	-10.3	0	0	993.6	NA	0.0000		9999	1940	0	0	0
2019/05/28 06:50:04	BASE	7.63	209	11.42	225	-7.5	80	-10.3	0	0	993.6	NA	0.0000		9999	1870	0	0	0
2019/05/28 06:51:03	BASE	6.57	210	11.42	225	-7.5	80	-10.4	0	0	993.6	NA	0.0000		9999	1870	0	0	0
2019/05/28 06:52:04	BASE	6.02	206	11.42	225	-7.6	80	-10.5	0	0	993.6	NA	0.0000		9999	1900	0	0	0
2019/05/28 06:53:03	BASE	5.87	203	11.06	193	-7.7	79	-10.6	0	0	993.6	NA	0.0000		9999	1900	0	0	0
2019/05/28 06:54:04	BASE	6.22	197	11.06	193	-7.7	79	-10.7	0	0	993.6	NA	0.0000		9999	1970	0	0	0
2019/05/28 06:55:03	BASE	6.55	201	10.08	210	-7.7	79	-10.7	0	0	993.5	NA	0.0000		9999	2070	0	0	0
2019/05/28 06:56:04	BASE	6.07	217	9.88	212	-7.7	79	-10.7	0	0	993.5	NA	0.0000		9999	1970	0	0	0
2019/05/28 06:57:03	BASE	7.94	212	12.81	201	-7.6	79	-10.7	0	0	993.5	NA	0.0000		9999	1900	0	0	0
2019/05/28 06:58:03	BASE	10.14	208	12.81	201	-7.6	79	-10.6	0	0	993.5	NA	0.0000		9999	1840	0	0	0
2019/05/28 06:59:04	BASE	9.61	212	12.81	201	-7.6	79	-10.6	0	0	993.5	NA	0.0000		9999	1840	0	0	0
2019/05/28 07:00:04	BASE	8.28	210	12.81	201	-7.5	79	-10.5	0	0	993.5	NA	0.0000		9999	1940	0	0	0
2019/05/28 07:01:03	BASE	7.23	208	12.81	201	-7.5	79	-10.5	0	0	993.5	NA	0.0000		9999	1870	0	0	0
2019/05/28 07:02:03	BASE	8.15	208	12.81	201	-7.5	79	-10.5	0	0	993.5	NA	0.0000		9999	1900	0	0	0
2019/05/28 07:03:03	BASE	8.62	207	12.81	201	-7.5	79	-10.5	0	0	993.5	NA	0.0000		9999	1970	0	0	0
2019/05/28 07:04:03	BASE	8.51	204	12.81	201	-7.5	79	-10.5	0	0	993.5	NA	0.0000		9999	1940	0	0	0
2019/05/28 07:05:04	BASE	8.69	205	12.81	201	-7.5	79	-10.5	0	0	993.5	NA	0.0000		9999	1970	0	0	0
2019/05/28 07:06:04	BASE	8.73	206	12.81	201	-7.5	79	-10.5	0	0	993.5	NA	0.0000		9999	1940	0	0	0
2019/05/28 07:07:03	BASE	8.77	204	11.47	209	-7.5	79	-10.6	0	0	993.5	NA	0.0000		9999	1940	0	0	0
2019/05/28 07:08:03	BASE	9.14	210	11.47	209	-7.6	79	-10.6	0	0	993.5	NA	0.0000		9999	2070	0	0	0
2019/05/28 07:09:05	BASE	9.05	223	11.11	221	-7.6	79	-10.6	0	0	993.5	NA	0.0000		9999	2130	0	0	0
2019/05/28 07:10:03	BASE	8.76	225	11.11	221	-7.6	79	-10.6	0	0	993.5	NA	0.0000		9999	2100	0	0	0
2019/05/28 07:11:03	BASE	9.67	229	11.57	227	-7.6	79	-10.6	0	0	993.4	NA	0.0000		9999	2200	0	0	0
2019/05/28 07:12:03	BASE	9.82	236	11.57	227	-7.5	79	-10.5	0	0	993.4	NA	0.0000		9999	2170	0	0	0
2019/05/28 07:13:03	BASE	9.85	245	11.57	227	-7.5	79	-10.5	0	0	993.4	NA	0.0000		9999	2000	0	0	0
2019/05/28 07:14:04	BASE	9.35	253	11.57	227	-7.5	79	-10.6	0	0	993.4	NA	0.0000		9999	2070	0	0	0
2019/05/28 07:15:04	BASE	8.09	252	11.57	227	-7.6	79	-10.6	0	0	993.5	NA	0.0000		9999	2400	0	0	0
2019/05/28 07:16:04	BASE	7.39	249	11.57	227	-7.6	78	-10.7	0	0	993.5	NA	0.0000		9999	2170	0	0	0
2019/05/28 07:17:03	BASE	6.79	249	11.57	227	-7.6	78	-10.8	0	0	993.5	NA	0.0000		9999	2300	0	0	0
2019/05/28 07:18:04	BASE	6.30	240	11.57	227	-7.7	78	-10.8	0	0	993.5	NA	0.0000		9999	2070	0	0	0
2019/05/28 07:19:03	BASE	7.04	226	11.57	227	-7.7	78	-10.8	0	0	993.5	NA	0.0000		9999	2130	0	0	0
2019/05/28 07:20:04	BASE	7.17	214	11.57	227	-7.6	78	-10.8	0	0	993.5	NA	0.0000		9999	2030	0	0	0
2019/05/28 07:21:03	BASE	5.54	212	11.27	250	-7.6	78	-10.8	0	0	993.5	NA	0.0000		9999	1970	0	0	0
2019/05/28 07:22:04	BASE	5.36	219	11.27	250	-7.6	78	-10.8	0	0	993.5	NA	0.0000		9999	2070	0	0	0
2019/05/28 07:23:04	BASE	6.16	220	9.88	259	-7.6	78	-10.8	0	0	993.5	NA	0.0000		9999	2070	0	0	0
2019/05/28 07:24:04	BASE	7.78	217	11.16	214	-7.6	78	-10.8	0	0	993.4	NA	0.0000		9999	2030	0	0	0
2019/05/28 07:25:03	BASE	9.62	220	11.16	214	-7.6	78	-10.8	0	0	993.4	NA	0.0000		9999	2000	0	0	0
2019/05/28 07:26:03	BASE	9.73	220	11.16	214	-7.6	78	-10.7	0	0	993.4	NA	0.0000		9999	1970	0	0	0
2019/05/28 07:27:03	BASE	9.53	218	11.16	214	-7.5	78	-10.7	0	0	993.4	NA	0.0000		9999	1870	0	0	0
2019/05/28 07:28:03	BASE	9.09	218	11.16	214	-7.5	78	-10.7	0	0	993.5	NA	0.0000		9999	2070	0	0	0
2019/05/28 07:29:03	BASE	7.80	218	11.16	214	-7.5	78	-10.7	0	0	993.5	NA	0.0000		9999	2000	0	0	0
2019/05/28 07:30:03	BASE	6.65	218	11.16	214	-7.6	78	-10.7	0	0	993.5	NA	0.0000		9999	2000	0	0	0
2019/05/28 07:31:04	BASE	6.05	222	11.16	214	-7.6	78	-10.7	0	0	993.5	NA	0.0000		9999	1970	0	0	0
2019/05/28 07:32:03	BASE	6.86	234	11.16	214	-7.5	78	-10.7	0	0	993.5	NA	0.0000		9999	1970	0	0	0
2019/05/28 07:33:03	BASE	7.95	239	11.16	214	-7.5	78	-10.7	0	0	993.5	NA	0.0000		9999	1800	0	0	0
2019/05/28 07:34:03	BASE	7.73	238	11.06	220	-7.5	78	-10.6	0	0	993.5	NA	0.0000		9999	1770	0	0	0
2019/05/28 07:35:03	BASE	7.56	244	10.75	216	-7.5	78	-10.6	0	0	993.5	NA	0.0000		9999	1840	0	0	0
2019/05/28 07:36:04	BASE	7.37	252	10.65	221	-7.5	79	-10.6	0	0	993.5	NA	0.0000		9999	1940	0	0	0
2019/05/28 07:37:03	BASE	7.42	254	10.03	220	-7.5	79	-10.5	0	0	993.5	NA	0.0000		9999	1970	0	0	0
2019/05/28 07:38:04	BASE	8.03	247	10.19	242	-7.5	79	-10.5	0	0	993.5	NA	0.0000		9999	2000	0	0	0
2019/05/28 07:39:03	BASE	8.33	244	10.19	242	-7.5	79	-10.5	0	0	993.5	NA	0.0000		9999	1970	0	0	0
2019/05/28 07:40:03	BASE	8.80	250	10.19	242	-7.6	79	-10.6	0	0	993.5	NA	0.0000		9999	1970	0	0	0
2019/05/28 07:41:03	BASE	8.72	243	10.19	242	-7.6	79	-10.6	0	0	993.5	NA	0.0000		9999	1940	0	0	0
2019/05/28 07:42:03	BASE	7.99	232	10.19	242	-7.6	79	-10.6	0	0	993.5	NA	0.0000		9999	1970	0	0	0
2019/05/28 07:43:02	BASE	7.46	230	10.19	242	-7.7	79	-10.7	0	0	993.5	NA	0.0000		9999	1940	0	0	0
2019/05/28 07:44:03	BASE	6.75	235	10.19	242	-7.7	79	-10.7	0	0	993.5	NA	0.0000		9999	2070	0	0	0
2019/05/28 07:45:03	BASE	6.28	243	10.19	242	-7.6	79	-10.7	0	0	993.5	NA	0.0000		9999	2030	0	0	0
2019/05/28 07:46:03	BASE	7.12	245	10.19	242	-7.6	79	-10.6	0	0	993.5	NA	0.0000		9999	2070	0	0	0
2019/05/28 07:47:03	BASE	8.37	240	10.19	242	-7.6	79	-10.7	0	0	993.5	NA	0.0000		9999	2100	0	0	0
2019/05/28 07:48:03	BASE	9.57	239	11.73	234	-7.6	79	-10.6	0	0	993.5	NA	0.0000		9999	2070	0	0	0
2019/05/28 07:49:04	BASE	10.07	245	11.73	234	-7.7	79	-10.7	0	0	993.5	NA	0.0000		9999	2030	0	0	0
2019/05/28 07:50:03	BASE	9.56	248	11.73	234	-7.7	79	-10.7	0	0	993.5	NA	0.0000		9999	2030	0	0	0
2019/05/28 07:51:03	BASE	8.38	248	11.73	234	-7.7	79	-10.8	0	0	993.5	NA	0.0000		9999	2070	0	0	0
2019/05/28 07:52:03	BASE	7.51	243	11.73	234	-7.7	79	-10.7	0	0	993.5	NA	0.0000		9999	2030	0	0	0
2019/05/28 07:53:03	BASE	8.41	239	11.73	234	-7.7	79	-10.7	0	0	993.5	NA	0.0000		9999	2070	0	0	0
2019/05/28 07:54:03	BASE	8.56	241	11.73	234	-7.7	79	-10.8	0	0	993.5	NA	0.0000		9999	2070	0	0	0
2019/05/28 07:55:03	BASE	7.63	241	11.73	234	-7.8	79	-10.8	0	0	993.5	NA	0.0000		9999	2300	0	0	0
2019/05/28 07:56:04	BASE	6.58	238	11.73	234	-7.8	79	-10.8	0	0	993.5	NA	0.0000		9999	2460	0	0	0
2019/05/28 07:57:04	BASE	5.60	229	11.73	234	-7.8	79	-10.8	0	0	993.5	NA	0.0000		9999	0	0	0	0
2019/05/28 07:58:03	BASE	5.35	229	10.39	239	-7.8	78	-10.9	0	0	993.5	NA	0.0000		9999	2130	0	0	0
2019/05/28 07:59:03	BASE	4.50	241	10.39	239	-7.8	78	-10.9	0	0	993.5	NA	0.0000		9999	1900	0	0	0
2019/05/28 08:00:04	BASE	3.39	241	10.39	239	-7.8	78	-11.0	0	0	993.5	NA	0.0000		9999	2070	0	0	0
2019/05/28 08:01:04	BASE	3.15	240	10.39	239	-7.8	78	-11.0	0	0	993.5	NA	0.0000		9999	1970	0	0	0
2019/05/28 08:02:03	BASE	3.82	243	10.39	239	-7.9	78	-11.1	0	0	993.5	NA	0.0000		9999	2070	0	0	0
2019/05/28 08:03:03	BASE	4.19	243	8.95	243	-7.9	78	-11.1	0	0	993.5	NA	0.0000		9999	2030	0	0	0
2019/05/28 08:04:03	BASE	4.79	240	8.49	234	-7.8	77	-11.1	0	0	993.5	NA	0.0000		9999	1970	0	0	0
2019/05/28 08:05:03	BASE	4.87	236	7.15	238	-7.8	77	-11.1	0	0	993.5	NA	0.0000		9999	1900	0	0	0
2019/05/28 08:06:04	BASE	5.99	231	8.75	236	-7.8	77	-11.0	0	0	993.5	NA	0.0000		9999	1970	0	0	0
2019/05/28 08:07:03	BASE	8.71	228	10.91	237	-7.7	78	-11.0	0	0	993.4	NA	0.0000		9999	2030	0	0	0
2019/05/28 08:08:04	BASE	9.60	233	10.91	237	-7.7	78	-10.9	0	0	993.4	NA	0.0000		9999	2070	0	0	0
2019/05/28 08:09:05	BASE	10.80	231	12.71	228	-7.7	78	-10.8	0	0	993.4	NA	0.0000		9999	2070	0	0	0
2019/05/28 08:10:04	BASE	11.13	224	12.71	228	-7.7	78	-10.8	0	0	993.4	NA	0.0000		9999	2130	0	0	0
2019/05/28 08:11:03	BASE	9.67	226	12.71	228	-7.7	78	-10.9	0	0	993.5	NA	0.0000		9999	1970	0	0	0
2019/05/28 08:12:04	BASE	8.97	241	12.71	228	-7.7	78	-10.9	0	0	993.5	NA	0.0000		9999	2230	0	0	0
2019/05/28 08:13:03	BASE	7.93	262	12.71	228	-7.8	78	-11.0	0	0	993.5	NA	0.0000		9999	2170	0	0	0
2019/05/28 08:14:03	BASE	6.22	266	12.71	228	-7.8	78	-11.1	0	0	993.5	NA	0.0000		9999	2400	0	0	0
2019/05/28 08:15:03	BASE	5.33	255	12.71	228	-7.9	77	-11.2	0	0	993.5	NA	0.0000		9999	0	0	0	0
2019/05/28 08:16:04	BASE	5.30	244	12.71	228	-7.9	77	-11.2	0	0	993.5	NA	0.0000		9999	2170	0	0	0
2019/05/28 08:17:03	BASE	4.63	235	12.71	228	-8.0	77	-11.3	0	0	993.5	NA	0.0000		9999	2130	0	0	0
2019/05/28 08:18:03	BASE	5.09	233	12.71	228	-8.0	77	-11.3	0	0	993.5	NA	0.0000		9999	2000	0	0	0
2019/05/28 08:19:04	BASE	6.31	241	11.99	221	-7.9	77	-11.3	0	0	993.5	NA	0.0000		9999	1970	0	0	0
2019/05/28 08:20:03	BASE	6.71	243	10.65	225	-7.9	77	-11.3	0	0	993.5	NA	0.0000		9999	1800	0	0	0
2019/05/28 08:21:03	BASE	6.71	241	10.08	280	-7.9	76	-11.3	0	0	993.5	NA	0.0000		9999	1870	0	0	0
2019/05/28 08:22:04	BASE	5.24	241	10.08	280	-7.9	76	-11.3	0	0	993.5	NA	0.0000		9999	1940	0	0	0
2019/05/28 08:23:03	BASE	4.12	243	8.39	235	-7.9	76	-11.4	0	0	993.5	NA	0.0000		9999	1940	0	0	0
2019/05/28 08:24:04	BASE	4.11	244	8.39	235	-7.9	76	-11.4	0	0	993.5	NA	0.0000		9999	2030	0	0	0
2019/05/28 08:25:04	BASE	3.95	245	8.39	235	-7.9	76	-11.4	0	0	993.4	NA	0.0000		9999	2030	0	0	0
2019/05/28 08:26:04	BASE	3.41	246	8.39	235	-7.9	76	-11.4	0	0	993.4	NA	0.0000		9999	2030	0	0	0
2019/05/28 08:27:03	BASE	3.42	244	8.39	235	-7.9	76	-11.4	0	0	993.4	NA	0.0000		9999	2070	0	0	0
2019/05/28 08:28:03	BASE	5.26	246	8.85	250	-7.9	76	-11.4	0	0	993.4	NA	0.0000		9999	2070	0	0	0
2019/05/28 08:29:04	BASE	7.78	241	9.88	250	-7.9	76	-11.4	0	0	993.4	NA	0.0000		9999	1970	0	0	0
2019/05/28 08:30:03	BASE	8.48	233	9.88	250	-7.9	76	-11.4	0	0	993.3	NA	0.0000		9999	2030	0	0	0
2019/05/28 08:31:03	BASE	8.46	230	10.44	230	-7.8	76	-11.3	0	0	993.3	NA	0.0000		9999	2100	0	0	0
2019/05/28 08:32:04	BASE	8.64	232	10.44	230	-7.8	76	-11.3	0	0	993.3	NA	0.0000		9999	2130	0	0	0
2019/05/28 08:33:03	BASE	9.33	231	10.49	227	-7.8	76	-11.3	0	0	993.3	NA	0.0000		9999	2170	0	0	0
2019/05/28 08:34:03	BASE	9.56	225	10.49	227	-7.8	76	-11.3	0	0	993.3	NA	0.0000		9999	2200	0	0	0
2019/05/28 08:35:03	BASE	7.87	230	10.49	227	-7.8	76	-11.3	0	0	993.3	NA	0.0000		9999	2100	0	0	0
2019/05/28 08:36:03	BASE	6.21	246	10.49	227	-7.9	76	-11.4	0	0	993.3	NA	0.0000		9999	2430	0	0	0
2019/05/28 08:37:04	BASE	5.94	253	10.49	227	-7.9	76	-11.4	0	0	993.3	NA	0.0000		9999	1970	0	0	0
2019/05/28 08:38:04	BASE	5.83	250	10.49	227	-7.9	76	-11.4	0	0	993.3	NA	0.0000		9999	2100	0	0	0
2019/05/28 08:39:03	BASE	5.00	250	10.49	227	-7.9	76	-11.5	0	0	993.3	NA	0.0000		9999	2070	0	0	0
2019/05/28 08:40:03	BASE	4.19	253	10.49	227	-8.0	76	-11.5	0	0	993.3	NA	0.0000		9999	2130	0	0	0
2019/05/28 08:41:03	BASE	3.76	250	10.49	227	-8.0	75	-11.6	0	0	993.3	NA	0.0000		9999	2030	0	0	0
2019/05/28 08:42:04	BASE	3.52	254	10.49	227	-8.0	75	-11.6	0	0	993.3	NA	0.0000		9999	2130	0	0	0
2019/05/28 08:43:03	BASE	3.84	256	9.98	229	-8.0	75	-11.6	0	0	993.3	NA	0.0000		9999	2070	0	0	0
2019/05/28 08:44:04	BASE	5.90	242	8.49	223	-7.9	75	-11.6	0	0	993.2	NA	0.0000		9999	1970	0	0	0
2019/05/28 08:45:03	BASE	8.37	230	10.24	222	-7.9	75	-11.5	0	0	993.2	NA	0.0000		9999	2030	0	0	0
2019/05/28 08:46:04	BASE	9.32	225	10.24	222	-7.8	75	-11.4	0	0	993.2	NA	0.0000		9999	2070	0	0	0
2019/05/28 08:47:04	BASE	8.39	227	10.24	222	-7.8	76	-11.4	0	0	993.1	NA	0.0000		9999	2070	0	0	0
2019/05/28 08:48:03	BASE	7.35	231	10.24	222	-7.8	76	-11.3	0	0	993.1	NA	0.0000		9999	2000	0	0	0
2019/05/28 08:49:03	BASE	7.38	231	10.24	222	-7.8	76	-11.3	0	0	993.0	NA	0.0000		9999	1970	0	0	0
2019/05/28 08:50:03	BASE	6.63	232	10.24	222	-7.8	76	-11.3	0	0	993.0	NA	0.0000		9999	2100	0	0	0
2019/05/28 08:51:03	BASE	5.20	237	10.24	222	-7.8	76	-11.3	0	0	993.0	NA	0.0000		9999	2130	0	0	0
2019/05/28 08:52:04	BASE	4.24	234	10.24	222	-7.8	76	-11.3	0	0	993.0	NA	0.0000		9999	2200	0	0	0
2019/05/28 08:53:03	BASE	5.06	231	10.24	222	-7.9	76	-11.3	0	0	993.0	NA	0.0000		9999	2100	0	0	0
2019/05/28 08:54:04	BASE	6.87	231	10.24	222	-7.8	76	-11.3	0	0	993.0	NA	0.0000		9999	2130	0	0	0
2019/05/28 08:55:03	BASE	8.32	224	10.29	214	-7.8	76	-11.2	0	0	992.9	NA	0.0000		9999	2170	0	0	0
2019/05/28 08:56:03	BASE	9.16	219	10.29	214	-7.8	77	-11.2	0	0	992.9	NA	0.0000		9999	2260	0	0	0
2019/05/28 08:57:03	BASE	9.37	221	10.65	218	-7.8	77	-11.1	0	0	992.9	NA	0.0000		9999	2130	0	0	0
2019/05/28 08:58:02	BASE	8.94	220	10.65	218	-7.8	77	-11.1	0	0	992.9	NA	0.0000		9999	2130	0	0	0
2019/05/28 08:59:03	BASE	7.30	216	10.65	218	-7.8	77	-11.1	0	0	992.9	NA	0.0000		9999	2100	0	0	0
2019/05/28 09:00:04	BASE	5.72	211	10.65	218	-7.8	77	-11.2	0	0	992.9	NA	0.0000		9999	2130	0	0	0
2019/05/28 09:01:03	BASE	5.31	205	10.65	218	-7.9	77	-11.2	0	0	992.9	NA	0.0000		9999	2070	0	0	0
2019/05/28 09:02:03	BASE	4.86	201	10.65	218	-7.9	77	-11.2	0	0	992.9	NA	0.0000		9999	2100	0	0	0
2019/05/28 09:03:03	BASE	3.69	207	10.65	218	-7.9	77	-11.3	0	0	992.9	NA	0.0000		9999	2130	0	0	0
2019/05/28 09:04:03	BASE	2.66	200	10.65	218	-7.9	77	-11.3	0	0	992.9	NA	0.0000		9999	2130	0	0	0
2019/05/28 09:05:03	BASE	2.72	195	10.65	218	-7.9	77	-11.3	0	0	992.9	NA	0.0000		9999	1970	0	0	0
2019/05/28 09:06:03	BASE	3.11	205	10.65	218	-7.9	77	-11.3	0	0	992.9	NA	0.0000		9999	1900	0	0	0
2019/05/28 09:07:03	BASE	3.00	210	10.24	227	-8.0	76	-11.4	0	0	992.9	NA	0.0000		9999	1870	0	0	0
2019/05/28 09:08:04	BASE	2.53	202	7.97	223	-7.9	76	-11.4	0	0	992.9	NA	0.0000		9999	1800	0	0	0
2019/05/28 09:09:04	BASE	2.63	191	6.28	216	-7.9	76	-11.4	0	0	992.9	NA	0.0000		9999	1840	0	0	0
2019/05/28 09:10:04	BASE	3.75	190	6.02	200	-7.9	76	-11.4	0	0	992.9	NA	0.0000		9999	1870	0	0	0
2019/05/28 09:11:04	BASE	4.21	180	5.35	198	-7.9	76	-11.4	0	0	992.9	NA	0.0000		9999	1940	0	0	0
2019/05/28 09:12:04	BASE	3.93	174	4.84	191	-7.9	76	-11.4	0	0	992.9	NA	0.0000		9999	1940	0	0	0
2019/05/28 09:13:03	BASE	3.51	187	4.84	191	-7.9	76	-11.4	0	0	992.9	NA	0.0000		9999	1940	0	0	0
2019/05/28 09:14:03	BASE	4.21	207	6.33	228	-7.9	76	-11.3	0	0	992.9	NA	0.0000		9999	2000	0	0	0
2019/05/28 09:15:04	BASE	6.17	210	8.23	203	-7.8	76	-11.3	0	0	992.9	NA	0.0000		9999	1970	0	0	0
2019/05/28 09:16:03	BASE	7.23	200	8.23	203	-7.8	77	-11.2	0	0	992.9	NA	0.0000		9999	1940	0	0	0
2019/05/28 09:17:03	BASE	7.98	203	9.93	214	-7.8	77	-11.2	0	0	992.8	NA	0.0000		9999	1970	0	0	0
2019/05/28 09:18:03	BASE	8.64	208	10.08	205	-7.8	77	-11.1	0	0	992.8	NA	0.0000		9999	2070	0	0	0
2019/05/28 09:19:03	BASE	9.05	207	10.24	202	-7.7	77	-11.1	0	0	992.9	NA	0.0000		9999	2030	0	0	0
2019/05/28 09:20:03	BASE	9.35	200	10.24	202	-7.8	77	-11.1	0	0	992.9	NA	0.0000		9999	2030	0	0	0
2019/05/28 09:21:03	BASE	8.57	193	10.24	202	-7.8	77	-11.1	0	0	992.9	NA	0.0000		9999	2030	0	0	0
2019/05/28 09:22:04	BASE	7.22	197	10.24	202	-7.8	77	-11.1	0	0	992.9	NA	0.0000		9999	2030	0	0	0
2019/05/28 09:23:03	BASE	5.83	215	10.24	202	-7.8	77	-11.2	0	0	992.9	NA	0.0000		9999	1900	0	0	0
2019/05/28 09:24:03	BASE	4.28	221	10.24	202	-7.9	77	-11.2	0	0	992.9	NA	0.0000		9999	1940	0	0	0
2019/05/28 09:25:03	BASE	3.70	207	10.24	202	-7.9	77	-11.2	0	0	992.9	NA	0.0000		9999	2100	0	0	0
2019/05/28 09:26:03	BASE	4.01	203	10.24	202	-7.9	77	-11.2	0	0	992.9	NA	0.0000		9999	2070	0	0	0
2019/05/28 09:27:04	BASE	3.91	209	10.24	202	-7.9	77	-11.2	0	0	992.9	NA	0.0000		9999	1900	0	0	0
2019/05/28 09:28:03	BASE	3.80	220	10.24	202	-7.9	77	-11.2	0	0	992.9	NA	0.0000		9999	1900	0	0	0
2019/05/28 09:29:03	BASE	3.73	230	10.03	198	-7.9	77	-11.2	0	0	992.9	NA	0.0000		9999	1900	0	0	0
2019/05/28 09:30:03	BASE	3.18	235	9.67	185	-7.9	77	-11.2	0	0	992.9	NA	0.0000		9999	1870	0	0	0
2019/05/28 09:31:03	BASE	3.05	219	6.94	206	-7.9	77	-11.2	0	0	992.9	NA	0.0000		9999	1900	0	0	0
2019/05/28 09:32:03	BASE	3.05	192	6.22	233	-7.9	77	-11.2	0	0	992.9	NA	0.0000		9999	1940	0	0	0
2019/05/28 09:33:03	BASE	3.63	195	5.56	206	-7.9	77	-11.2	0	0	992.9	NA	0.0000		9999	2030	0	0	0
2019/05/28 09:34:04	BASE	4.13	207	5.56	206	-7.9	77	-11.2	0	0	992.9	NA	0.0000		9999	1940	0	0	0
2019/05/28 09:35:03	BASE	3.62	208	5.56	206	-7.9	77	-11.1	0	0	992.9	NA	0.0000		9999	1900	0	0	0
2019/05/28 09:36:03	BASE	4.16	212	5.66	213	-7.9	78	-11.1	0	0	992.9	NA	0.0000		9999	1870	0	0	0
2019/05/28 09:37:03	BASE	4.22	217	5.66	213	-7.8	78	-11.0	0	0	992.9	NA	0.0000		9999	1840	0	0	0
2019/05/28 09:38:04	BASE	4.09	225	5.66	213	-7.8	78	-11.0	0	0	992.9	NA	0.0000		9999	1870	0	0	0
2019/05/28 09:39:03	BASE	3.75	232	5.66	213	-7.8	78	-11.0	0	0	992.9	NA	0.0000		9999	1900	0	0	0
2019/05/28 09:40:03	BASE	2.69	228	5.66	213	-7.8	78	-11.0	0	0	992.9	NA	0.0000		9999	1900	0	0	0
2019/05/28 09:41:03	BASE	2.87	208	5.66	213	-7.8	78	-11.0	0	0	992.9	NA	0.0000		9999	1870	0	0	0
2019/05/28 09:42:03	BASE	3.22	195	5.66	213	-7.8	78	-11.0	0	0	992.9	NA	0.0000		9999	1840	0	0	0
2019/05/28 09:43:03	BASE	2.84	202	5.66	213	-7.8	78	-11.0	0	0	992.9	NA	0.0000		9999	1870	0	0	0
2019/05/28 09:44:04	BASE	2.58	207	5.66	213	-7.8	78	-11.0	0	0	992.9	NA	0.0000		9999	1870	0	0	0
2019/05/28 09:45:04	BASE	2.34	211	5.66	213	-7.8	78	-11.0	0	0	992.9	NA	0.0000		9999	1870	0	0	0
2019/05/28 09:46:04	BASE	2.30	224	5.14	233	-7.8	78	-11.0	0	0	992.9	NA	0.0000		9999	1940	0	0	0
2019/05/28 09:47:03	BASE	2.17	241	5.14	233	-7.8	78	-11.0	0	0	992.9	NA	0.0000		9999	1970	0	0	0
2019/05/28 09:48:04	BASE	1.79	243	3.81	202	-7.8	78	-11.0	0	0	992.8	NA	0.0000		9999	1970	0	0	0
2019/05/28 09:49:02	BASE	1.90	236	3.81	202	-7.8	78	-11.0	0	0	992.8	NA	0.0000		9999	1870	0	0	0
2019/05/28 09:50:03	BASE	2.33	232	4.78	241	-7.8	78	-11.0	0	0	992.8	NA	0.0000		9999	1900	0	0	0
2019/05/28 09:51:03	BASE	4.69	222	7.97	212	-7.8	78	-10.9	0	0	992.8	NA	0.0000		9999	1870	0	0	0
2019/05/28 09:52:04	BASE	7.22	220	8.54	221	-7.7	78	-10.8	0	0	992.8	NA	0.0000		9999	1840	0	0	0
2019/05/28 09:53:03	BASE	7.52	221	8.54	221	-7.7	79	-10.8	0	0	992.8	NA	0.0000		9999	1870	0	0	0
2019/05/28 09:54:04	BASE	6.88	219	8.54	221	-7.7	79	-10.7	0	0	992.8	NA	0.0000		9999	1670	0	0	0
2019/05/28 09:55:03	BASE	6.16	215	8.54	221	-7.7	79	-10.7	0	0	992.8	NA	0.0000		9999	1740	0	0	0
2019/05/28 09:56:03	BASE	5.88	209	8.54	221	-7.6	79	-10.6	0	0	992.8	NA	0.0000		9999	1840	0	0	0
2019/05/28 09:57:03	BASE	5.65	208	8.54	221	-7.6	79	-10.6	0	0	992.8	NA	0.0000		9999	1840	0	0	0
2019/05/28 09:58:03	BASE	6.45	220	8.54	221	-7.7	79	-10.7	0	0	992.8	NA	0.0000		9999	1900	0	0	0
2019/05/28 09:59:03	BASE	6.22	228	8.54	221	-7.7	79	-10.7	0	0	992.8	NA	0.0000		9999	1840	0	0	0
2019/05/28 10:00:03	BASE	5.01	232	8.54	221	-7.7	79	-10.7	0	0	992.8	NA	0.0000		9999	1970	0	0	0
2019/05/28 10:01:02	BASE	6.40	238	9.72	235	-7.7	79	-10.7	0	0	992.8	NA	0.0000		9999	2000	0	0	0
2019/05/28 10:02:03	BASE	7.64	244	9.72	235	-7.7	79	-10.7	0	0	992.8	NA	0.0000		9999	1840	0	0	0
2019/05/28 10:03:03	BASE	8.10	243	9.98	246	-7.7	79	-10.7	0	0	992.8	NA	0.0000		9999	1900	0	0	0
2019/05/28 10:04:03	BASE	8.06	236	9.98	246	-7.7	79	-10.7	0	0	992.8	NA	0.0000		9999	1940	0	0	0
2019/05/28 10:05:03	BASE	7.24	236	9.98	246	-7.7	79	-10.7	0	0	992.8	NA	0.0000		9999	2000	0	0	0
2019/05/28 10:06:03	BASE	6.50	239	9.98	246	-7.8	79	-10.8	0	0	992.8	NA	0.0000		9999	1970	0	0	0
2019/05/28 10:07:04	BASE	6.36	245	9.98	246	-7.8	79	-10.8	0	0	992.8	NA	0.0000		9999	1970	0	0	0
2019/05/28 10:08:03	BASE	7.18	248	9.98	246	-7.8	79	-10.8	0	0	992.8	NA	0.0000		9999	1970	0	0	0
2019/05/28 10:09:04	BASE	6.73	238	9.98	246	-7.8	79	-10.8	0	0	992.8	NA	0.0000		9999	2000	2560	0	0
2019/05/28 10:10:03	BASE	7.20	229	10.39	236	-7.8	79	-10.8	0	0	992.7	NA	0.0000		9999	2070	0	0	0
2019/05/28 10:11:03	BASE	7.78	231	10.39	236	-7.8	79	-10.8	0	0	992.8	NA	0.0000		9999	2000	0	0	0
2019/05/28 10:12:04	BASE	8.00	231	10.39	236	-7.8	79	-10.8	0	0	992.7	NA	0.0000		9999	1940	0	0	0
2019/05/28 10:13:03	BASE	8.49	224	10.39	236	-7.8	79	-10.8	0	0	992.7	NA	0.0000		9999	1870	0	0	0
2019/05/28 10:14:03	BASE	6.89	217	10.39	236	-7.8	79	-10.8	0	0	992.7	NA	0.0000		9999	1870	0	0	0
2019/05/28 10:15:03	BASE	6.63	230	10.39	236	-7.7	79	-10.7	0	0	992.7	NA	0.0000		9999	1870	0	0	0
2019/05/28 10:16:03	BASE	7.91	252	10.39	236	-7.8	79	-10.8	0	0	992.7	NA	0.0000		9999	1840	0	0	0
2019/05/28 10:17:03	BASE	8.10	257	10.39	236	-7.8	79	-10.8	0	0	992.7	NA	0.0000		9999	1800	0	0	0
2019/05/28 10:18:03	BASE	7.99	256	10.39	236	-7.8	79	-10.8	0	0	992.7	NA	0.0000		9999	1740	0	0	0
2019/05/28 10:19:03	BASE	7.36	253	10.39	236	-7.8	79	-10.8	0	0	992.7	NA	0.0000		9999	1710	0	0	0
2019/05/28 10:20:03	BASE	6.31	249	10.29	231	-7.8	79	-10.8	0	0	992.7	NA	0.0000		9999	1840	0	0	0
2019/05/28 10:21:03	BASE	5.24	243	10.29	231	-7.8	79	-10.8	0	0	992.7	NA	0.0000		9999	1770	0	0	0
2019/05/28 10:22:04	BASE	3.97	245	9.62	217	-7.8	79	-10.8	0	0	992.7	NA	0.0000		9999	1800	0	0	0
2019/05/28 10:23:03	BASE	3.89	252	9.41	254	-7.8	79	-10.8	0	0	992.6	NA	0.0000		9999	1900	0	0	0
2019/05/28 10:24:03	BASE	3.77	259	9.41	254	-7.8	79	-10.8	0	0	992.7	NA	0.0000		9999	1970	0	0	0
2019/05/28 10:25:03	BASE	3.71	260	9.41	254	-7.8	79	-10.8	0	0	992.6	NA	0.0000		9999	2000	0	0	0
2019/05/28 10:26:03	BASE	5.61	256	9.36	259	-7.8	79	-10.8	0	0	992.6	NA	0.0000		9999	2100	0	0	0
2019/05/28 10:27:04	BASE	6.54	259	9.00	259	-7.8	79	-10.8	0	0	992.6	NA	0.0000		9999	2000	0	0	0
2019/05/28 10:28:04	BASE	7.15	255	9.11	236	-7.8	79	-10.8	0	0	992.6	NA	0.0000		9999	2030	0	0	0
2019/05/28 10:29:03	BASE	8.34	237	9.16	231	-7.8	79	-10.8	0	0	992.5	NA	0.0000		9999	2030	0	0	0
2019/05/28 10:30:03	BASE	8.32	226	9.77	223	-7.8	79	-10.8	0	0	992.6	NA	0.0000		9999	1870	0	0	0
2019/05/28 10:31:03	BASE	7.89	230	9.77	223	-7.8	79	-10.8	0	0	992.6	NA	0.0000		9999	1870	0	0	0
2019/05/28 10:32:04	BASE	6.48	230	9.77	223	-7.8	79	-10.8	0	0	992.6	NA	0.0000		9999	1870	0	0	0
2019/05/28 10:33:03	BASE	4.46	232	9.77	223	-7.9	79	-10.9	0	0	992.7	NA	0.0000		9999	2100	0	0	0
2019/05/28 10:34:04	BASE	3.20	256	9.77	223	-7.9	79	-10.9	0	0	992.7	NA	0.0000		9999	2000	0	0	0
2019/05/28 10:35:03	BASE	3.36	259	9.77	223	-7.9	79	-10.9	0	0	992.7	NA	0.0000		9999	2030	0	0	0
2019/05/28 10:36:03	BASE	4.35	241	9.77	223	-7.9	79	-10.9	0	0	992.6	NA	0.0000		9999	2070	0	0	0
2019/05/28 10:37:03	BASE	6.31	231	9.77	223	-7.9	79	-11.0	0	0	992.6	NA	0.0000		9999	2000	0	0	0
2019/05/28 10:38:03	BASE	6.41	227	9.77	223	-7.9	78	-11.0	0	0	992.6	NA	0.0000		9999	2130	0	0	0
2019/05/28 10:39:04	BASE	4.82	216	9.77	223	-7.9	78	-11.0	0	0	992.6	NA	0.0000		9999	2230	0	0	0
2019/05/28 10:40:04	BASE	5.75	213	8.64	234	-7.9	78	-11.0	0	0	992.6	NA	0.0000		9999	2000	0	0	0
2019/05/28 10:41:03	BASE	7.15	216	9.00	213	-7.8	78	-11.0	0	0	992.5	NA	0.0000		9999	1940	0	0	0
2019/05/28 10:42:04	BASE	7.07	208	9.00	213	-7.8	78	-11.0	0	0	992.5	NA	0.0000		9999	1940	0	0	0
2019/05/28 10:43:03	BASE	5.75	200	9.00	213	-7.8	78	-11.0	0	0	992.6	NA	0.0000		9999	2070	0	0	0
2019/05/28 10:44:03	BASE	3.77	201	9.00	213	-7.8	78	-11.0	0	0	992.5	NA	0.0000		9999	1940	0	0	0
2019/05/28 10:45:03	BASE	2.30	197	9.00	213	-7.8	78	-11.0	0	0	992.4	NA	0.0000		9999	2070	0	0	0
2019/05/28 10:46:04	BASE	2.56	190	9.00	213	-7.9	78	-11.0	0	0	992.4	NA	0.0000		9999	1970	0	0	0
2019/05/28 10:47:03	BASE	4.47	203	9.00	213	-7.9	78	-11.1	0	0	992.4	NA	0.0000		9999	1970	0	0	0
2019/05/28 10:48:03	BASE	7.09	209	10.91	206	-7.9	78	-11.1	0	0	992.4	NA	0.0000		9999	1970	0	0	0
2019/05/28 10:49:03	BASE	8.26	204	10.91	206	-7.9	78	-11.0	0	0	992.4	NA	0.0000		9999	2030	0	0	0
2019/05/28 10:50:04	BASE	7.12	207	10.91	206	-7.9	78	-11.1	0	0	992.4	NA	0.0000		9999	2000	0	0	0
2019/05/28 10:51:03	BASE	5.21	218	10.91	206	-7.9	78	-11.0	0	0	992.4	NA	0.0000		9999	1840	0	0	0
2019/05/28 10:52:03	BASE	3.52	244	10.91	206	-7.9	78	-11.1	0	0	992.4	NA	0.0000		9999	1770	0	0	0
2019/05/28 10:53:04	BASE	2.65	241	10.91	206	-7.9	78	-11.1	0	0	992.4	NA	0.0000		9999	1770	0	0	0
2019/05/28 10:54:03	BASE	2.17	221	10.91	206	-8.0	78	-11.1	0	0	992.4	NA	0.0000		9999	1870	0	0	0
2019/05/28 10:55:03	BASE	2.39	220	10.91	206	-8.0	78	-11.1	0	0	992.4	NA	0.0000		9999	1870	0	0	0
2019/05/28 10:56:03	BASE	3.37	231	10.91	206	-8.0	78	-11.2	0	0	992.4	NA	0.0000		9999	1770	0	0	0
2019/05/28 10:57:03	BASE	4.00	250	10.91	206	-8.0	78	-11.2	0	0	992.4	NA	0.0000		9999	1840	0	0	0
2019/05/28 10:58:03	BASE	3.86	263	9.67	203	-8.0	78	-11.1	0	0	992.3	NA	0.0000		9999	1840	0	0	0
2019/05/28 10:59:03	BASE	3.42	265	7.82	206	-8.0	78	-11.1	0	0	992.3	NA	0.0000		9999	1870	0	0	0
2019/05/28 11:00:04	BASE	4.40	252	6.17	245	-8.0	78	-11.1	0	0	992.3	NA	0.0000		9999	1800	0	0	0
2019/05/28 11:01:03	BASE	5.91	241	7.56	237	-7.9	78	-11.1	0	0	992.3	NA	0.0000		9999	1740	0	0	0
2019/05/28 11:02:04	BASE	5.40	238	7.56	237	-7.9	78	-11.1	0	0	992.3	NA	0.0000		9999	1670	0	0	0
2019/05/28 11:03:03	BASE	4.57	241	7.56	237	-7.9	78	-11.0	0	0	992.3	NA	0.0000		9999	1710	0	0	0
2019/05/28 11:04:03	BASE	4.85	245	7.56	237	-7.8	78	-11.0	0	0	992.3	NA	0.0000		9999	1870	0	0	0
2019/05/28 11:05:05	BASE	5.06	243	7.56	237	-7.8	78	-11.0	0	0	992.3	NA	0.0000		9999	1770	0	0	0
2019/05/28 11:06:03	BASE	4.35	248	7.56	237	-7.8	78	-11.0	0	0	992.3	NA	0.0000		9999	1770	0	0	0
2019/05/28 11:07:04	BASE	3.63	248	7.56	237	-7.8	78	-10.9	0	0	992.3	NA	0.0000		9999	1870	0	0	0
2019/05/28 11:08:03	BASE	3.96	238	7.56	237	-7.8	79	-10.9	0	0	992.3	NA	0.0000		9999	1840	0	0	0
2019/05/28 11:09:04	BASE	4.87	222	7.56	237	-7.8	79	-10.9	0	0	992.3	NA	0.0000		9999	1800	0	0	0
2019/05/28 11:10:03	BASE	5.18	213	7.56	237	-7.8	79	-10.8	0	0	992.3	NA	0.0000		9999	1770	0	0	0
2019/05/28 11:11:03	BASE	4.42	225	6.28	202	-7.8	79	-10.8	0	0	992.3	NA	0.0000		9999	1840	0	0	0
2019/05/28 11:12:04	BASE	4.35	247	6.28	202	-7.8	79	-10.8	0	0	992.3	NA	0.0000		9999	1870	0	0	0
2019/05/28 11:13:03	BASE	4.68	249	6.28	202	-7.8	79	-10.8	0	0	992.3	NA	0.0000		9999	1800	0	0	0
2019/05/28 11:14:03	BASE	4.36	238	6.28	202	-7.8	79	-10.8	0	0	992.3	NA	0.0000		9999	1840	0	0	0
2019/05/28 11:15:03	BASE	4.19	228	6.28	202	-7.8	79	-10.8	0	0	992.3	NA	0.0000		9999	1770	0	0	0
2019/05/28 11:16:03	BASE	4.09	229	6.28	202	-7.7	79	-10.7	0	0	992.3	NA	0.0000		9999	1870	0	0	0
2019/05/28 11:17:03	BASE	4.32	241	6.28	202	-7.7	79	-10.7	0	0	992.3	NA	0.0000		9999	2030	0	0	0
2019/05/28 11:18:03	BASE	5.75	246	8.28	237	-7.7	79	-10.6	0	0	992.3	NA	0.0000		9999	2000	0	0	0
2019/05/28 11:19:03	BASE	7.73	248	9.77	249	-7.6	80	-10.6	0	0	992.2	NA	0.0000		9999	2000	0	0	0
2019/05/28 11:20:04	BASE	8.92	250	9.77	251	-7.7	80	-10.5	0	0	992.2	NA	0.0000		9999	1940	0	0	0
2019/05/28 11:21:04	BASE	8.76	249	9.77	251	-7.7	80	-10.5	0	0	992.3	NA	0.0000		9999	1800	0	0	0
2019/05/28 11:22:05	BASE	7.82	247	9.77	251	-7.7	80	-10.6	0	0	992.3	NA	0.0000		9999	1740	0	0	0
2019/05/28 11:23:04	BASE	7.07	239	9.77	251	-7.8	80	-10.6	0	0	992.3	NA	0.0000		9999	1970	0	0	0
2019/05/28 11:24:05	BASE	6.20	236	9.77	251	-7.8	80	-10.7	0	0	992.3	NA	0.0000		9999	2100	0	0	0
2019/05/28 11:25:04	BASE	5.10	237	9.77	251	-7.8	80	-10.7	0	0	992.3	NA	0.0000		9999	1870	0	0	0
2019/05/28 11:26:04	BASE	3.99	223	9.77	251	-7.8	80	-10.7	0	0	992.3	NA	0.0000		9999	2130	0	0	0
2019/05/28 11:27:04	BASE	2.85	206	9.77	251	-7.8	80	-10.7	0	0	992.3	NA	0.0000		9999	1840	0	0	0
2019/05/28 11:28:04	BASE	2.18	199	9.77	251	-7.8	79	-10.8	0	0	992.3	NA	0.0000		9999	1970	0	0	0
2019/05/28 11:29:04	BASE	1.70	202	9.77	251	-7.8	79	-10.8	0	0	992.3	NA	0.0000		9999	2100	0	0	0
2019/05/28 11:30:04	BASE	1.45	196	9.21	250	-7.8	79	-10.8	0	0	992.3	NA	0.0000		9999	2070	0	0	0
2019/05/28 11:31:04	BASE	1.83	195	9.11	247	-7.8	79	-10.9	0	0	992.2	NA	0.0000		9999	1940	0	0	0
2019/05/28 11:32:05	BASE	2.78	199	8.08	234	-7.8	79	-10.8	0	0	992.2	NA	0.0000		9999	1900	0	0	0
2019/05/28 11:33:04	BASE	3.33	212	6.12	236	-7.8	79	-10.8	0	0	992.2	NA	0.0000		9999	1940	0	0	0
2019/05/28 11:34:05	BASE	3.40	233	6.02	231	-7.8	79	-10.8	0	0	992.3	NA	0.0000		9999	1940	0	0	0
2019/05/28 11:35:04	BASE	4.90	234	7.67	239	-7.8	79	-10.8	0	0	992.3	NA	0.0000		9999	2030	0	0	0
2019/05/28 11:36:04	BASE	7.05	239	8.49	237	-7.8	79	-10.8	0	0	992.2	NA	0.0000		9999	2000	0	0	0
2019/05/28 11:37:04	BASE	8.10	237	9.98	216	-7.7	79	-10.7	0	0	992.2	NA	0.0000		9999	2030	0	0	0
2019/05/28 11:38:05	BASE	8.30	219	9.98	216	-7.7	79	-10.7	0	0	992.2	NA	0.0000		9999	2030	0	0	0
2019/05/28 11:39:04	BASE	7.85	209	9.98	216	-7.7	79	-10.7	0	0	992.2	NA	0.0000		9999	2130	0	0	0
2019/05/28 11:40:04	BASE	6.44	204	9.98	216	-7.7	79	-10.8	0	0	992.3	NA	0.0000		9999	2030	0	0	0
2019/05/28 11:41:04	BASE	4.83	220	9.98	216	-7.7	79	-10.8	0	0	992.3	NA	0.0000		9999	1970	0	0	0
2019/05/28 11:42:04	BASE	4.38	244	9.98	216	-7.8	78	-10.9	0	0	992.3	NA	0.0000		9999	1900	0	0	0
2019/05/28 11:43:05	BASE	3.95	246	9.98	216	-7.8	78	-10.9	0	0	992.3	NA	0.0000		9999	1870	0	0	0
2019/05/28 11:44:04	BASE	3.33	236	9.98	216	-7.8	78	-11.0	0	0	992.3	NA	0.0000		9999	1770	0	0	0
2019/05/28 11:45:04	BASE	3.91	224	9.98	216	-7.8	78	-11.0	0	0	992.3	NA	0.0000		9999	1840	0	0	0
2019/05/28 11:46:04	BASE	4.80	227	9.98	216	-7.8	78	-10.9	0	0	992.3	NA	0.0000		9999	2030	0	0	0
2019/05/28 11:47:04	BASE	4.40	234	9.41	209	-7.8	78	-11.0	0	0	992.3	NA	0.0000		9999	2100	0	0	0
2019/05/28 11:48:04	BASE	3.20	240	8.39	210	-7.7	78	-11.0	0	0	992.3	NA	0.0000		9999	1900	0	0	0
2019/05/28 11:49:04	BASE	4.02	239	7.92	227	-7.7	77	-11.0	0	0	992.3	NA	0.0000		9999	2000	0	0	0
2019/05/28 11:50:04	BASE	7.57	232	10.91	220	-7.6	77	-10.9	0	0	992.2	NA	0.0000		9999	1970	0	0	0
2019/05/28 11:51:04	BASE	9.22	229	10.91	220	-7.6	77	-10.9	0	0	992.2	NA	0.0000		9999	1940	0	0	0
2019/05/28 11:52:06	BASE	7.73	227	10.91	220	-7.6	78	-10.8	0	0	992.2	NA	0.0000		9999	1900	0	0	0
2019/05/28 11:53:05	BASE	6.97	222	10.91	220	-7.6	78	-10.8	0	0	992.2	NA	0.0000		9999	0	0	0	0
2019/05/28 11:54:04	BASE	6.32	219	10.91	220	-7.6	78	-10.8	0	0	992.2	NA	0.0000		9999	1970	0	0	0
2019/05/28 11:55:04	BASE	6.24	221	10.91	220	-7.6	77	-10.9	0	0	992.2	NA	0.0000		9999	1970	2760	0	0
2019/05/28 11:56:04	BASE	6.71	222	10.91	220	-7.7	77	-11.0	0	0	992.2	NA	0.0000		9999	2100	0	0	0
2019/05/28 11:57:04	BASE	6.46	218	10.91	220	-7.7	77	-11.0	0	0	992.2	NA	0.0000		9999	2130	0	0	0
2019/05/28 11:58:05	BASE	6.24	216	10.91	220	-7.6	77	-11.0	0	0	992.2	NA	0.0000		9999	2070	0	0	0
2019/05/28 11:59:04	BASE	5.74	221	10.91	220	-7.6	77	-11.0	0	0	992.2	NA	0.0000		9999	2000	0	0	0
2019/05/28 12:00:05	BASE	5.43	224	9.57	231	-7.6	77	-10.9	0	0	992.2	NA	0.0000		9999	2000	0	0	0
2019/05/28 12:01:04	BASE	6.33	219	8.49	222	-7.6	77	-10.9	0	0	992.1	NA	0.0000		9999	1940	0	0	0
2019/05/28 12:02:05	BASE	7.23	217	8.49	215	-7.6	77	-10.9	0	0	992.1	NA	0.0000		9999	1840	0	0	0
2019/05/28 12:03:04	BASE	7.62	222	8.80	215	-7.6	78	-10.8	0	0	992.1	NA	0.0000		9999	1840	0	0	0
2019/05/28 12:04:04	BASE	7.02	235	8.80	215	-7.6	78	-10.8	0	0	992.1	NA	0.0000		9999	1870	0	0	0
2019/05/28 12:05:04	BASE	5.19	239	8.80	215	-7.7	78	-10.8	0	0	992.2	NA	0.0000		9999	1840	0	0	0
2019/05/28 12:06:04	BASE	3.85	206	8.80	215	-7.7	78	-10.9	0	0	992.1	NA	0.0000		9999	1870	0	0	0
2019/05/28 12:07:04	BASE	3.10	181	8.80	215	-7.8	78	-10.9	0	0	992.2	NA	0.0000		9999	1970	0	0	0
2019/05/28 12:08:05	BASE	1.73	192	8.80	215	-7.8	78	-11.0	0	0	992.2	NA	0.0000		9999	1940	0	0	0
2019/05/28 12:09:05	BASE	1.38	197	8.80	215	-7.8	78	-11.0	0	0	992.2	NA	0.0000		9999	1940	0	0	0
2019/05/28 12:10:01	BASE	1.81	180	8.80	215	-7.8	78	-11.0	0	0	992.1	NA	0.0000		9999	1940	0	0	0
2019/05/28 12:11:04	BASE	1.92	174	8.80	215	-7.8	78	-11.0	0	0	992.2	NA	0.0000		9999	1970	0	0	0
2019/05/28 12:12:04	BASE	1.64	197	8.80	215	-7.8	78	-11.0	0	0	992.2	NA	0.0000		9999	1970	0	0	0
2019/05/28 12:13:04	BASE	1.06	212	8.75	256	-7.8	78	-11.0	0	0	992.1	NA	0.0000		9999	1970	0	0	0
2019/05/28 12:14:04	BASE	1.70	202	5.66	254	-7.8	78	-11.0	0	0	992.1	NA	0.0000		9999	1940	0	0	0
2019/05/28 12:15:04	BASE	2.66	199	4.58	181	-7.8	78	-11.0	0	0	992.1	NA	0.0000		9999	1940	0	0	0
2019/05/28 12:16:03	BASE	3.16	204	3.76	209	-7.8	78	-11.0	0	0	992.1	NA	0.0000		9999	1900	0	0	0
2019/05/28 12:17:04	BASE	4.18	203	5.92	196	-7.8	78	-11.0	0	0	992.1	NA	0.0000		9999	1900	0	0	0
2019/05/28 12:18:05	BASE	5.33	202	6.58	212	-7.7	78	-10.9	0	0	992.1	NA	0.0000		9999	1900	0	0	0
2019/05/28 12:19:04	BASE	6.17	207	7.41	212	-7.7	78	-10.9	0	0	992.1	NA	0.0000		9999	1940	0	0	0
2019/05/28 12:20:04	BASE	7.07	220	8.59	222	-7.7	78	-10.9	0	0	992.1	NA	0.0000		9999	1940	0	0	0
2019/05/28 12:21:04	BASE	7.51	224	8.59	222	-7.7	78	-10.8	0	0	992.1	NA	0.0000		9999	1940	0	0	0
2019/05/28 12:22:04	BASE	6.63	221	8.59	222	-7.7	78	-10.8	0	0	992.1	NA	0.0000		9999	1940	0	0	0
2019/05/28 12:23:04	BASE	5.53	218	8.59	222	-7.7	78	-10.9	0	0	992.2	NA	0.0000		9999	2030	0	0	0
2019/05/28 12:24:04	BASE	4.77	212	8.59	222	-7.7	78	-10.9	0	0	992.2	NA	0.0000		9999	2000	0	0	0
2019/05/28 12:25:04	BASE	4.78	210	8.59	222	-7.8	78	-10.9	0	0	992.1	NA	0.0000		9999	1940	0	0	0
2019/05/28 12:26:04	BASE	5.20	214	8.59	222	-7.8	78	-10.9	0	0	992.2	NA	0.0000		9999	2070	0	0	0
2019/05/28 12:27:03	BASE	6.34	224	8.59	222	-7.8	78	-11.0	0	0	992.2	NA	0.0000		9999	1970	0	0	0
2019/05/28 12:28:04	BASE	7.00	231	8.59	222	-7.8	78	-11.0	0	0	992.2	NA	0.0000		9999	2000	0	0	0
2019/05/28 12:29:04	BASE	6.49	234	8.59	222	-7.8	78	-11.0	0	0	992.2	NA	0.0000		9999	2030	0	0	0
2019/05/28 12:30:05	BASE	5.98	229	8.39	234	-7.8	78	-11.0	0	0	992.2	NA	0.0000		9999	2360	0	0	0
2019/05/28 12:31:01	BASE	4.92	220	8.39	234	-7.8	78	-11.0	0	0	992.2	NA	0.0000		9999	2590	0	0	0
2019/05/28 12:32:05	BASE	3.72	215	8.39	234	-7.9	78	-11.1	0	0	992.2	NA	0.0000		9999	2230	0	0	0
2019/05/28 12:33:04	BASE	3.34	217	8.39	234	-7.9	77	-11.1	0	0	992.2	NA	0.0000		9999	1970	0	0	0
2019/05/28 12:34:05	BASE	3.53	218	8.39	234	-7.9	77	-11.2	0	0	992.2	NA	0.0000		9999	1970	0	0	0
2019/05/28 12:35:04	BASE	4.27	212	8.39	234	-7.8	77	-11.2	0	0	992.2	NA	0.0000		9999	1970	0	0	0
2019/05/28 12:36:05	BASE	5.46	204	8.39	234	-7.8	77	-11.2	0	0	992.2	NA	0.0000		9999	1970	0	0	0
2019/05/28 12:37:04	BASE	6.48	210	8.08	222	-7.8	77	-11.1	0	0	992.2	NA	0.0000		9999	2000	0	0	0
2019/05/28 12:38:04	BASE	7.02	219	8.13	225	-7.7	77	-11.1	0	0	992.2	NA	0.0000		9999	2030	0	0	0
2019/05/28 12:39:04	BASE	6.50	218	8.13	225	-7.7	77	-11.1	0	0	992.2	NA	0.0000		9999	1970	0	0	0
2019/05/28 12:40:04	BASE	7.38	219	9.93	217	-7.7	77	-11.0	0	0	992.2	NA	0.0000		9999	1900	0	0	0
2019/05/28 12:41:04	BASE	7.64	222	9.93	217	-7.7	77	-11.0	0	0	992.2	NA	0.0000		9999	1940	0	0	0
2019/05/28 12:42:05	BASE	6.93	222	9.93	217	-7.7	78	-11.0	0	0	992.2	NA	0.0000		9999	1970	0	0	0
2019/05/28 12:43:04	BASE	6.56	222	9.93	217	-7.8	78	-11.0	0	0	992.3	NA	0.0000		9999	1970	0	0	0
2019/05/28 12:44:04	BASE	6.37	224	9.93	217	-7.8	78	-10.9	0	0	992.2	NA	0.0000		9999	2000	0	0	0
2019/05/28 12:45:04	BASE	6.64	219	9.93	217	-7.8	78	-11.0	0	0	992.3	NA	0.0000		9999	2130	0	0	0
2019/05/28 12:46:05	BASE	6.40	214	9.93	217	-7.8	78	-11.0	0	0	992.3	NA	0.0000		9999	1940	0	0	0
2019/05/28 12:47:04	BASE	6.01	221	9.93	217	-7.8	78	-11.0	0	0	992.2	NA	0.0000		9999	2360	0	0	0
2019/05/28 12:48:04	BASE	5.41	231	9.93	217	-7.8	78	-11.0	0	0	992.2	NA	0.0000		9999	2230	0	0	0
2019/05/28 12:49:04	BASE	5.24	227	9.93	217	-7.9	78	-11.0	0	0	992.2	NA	0.0000		9999	2100	0	0	0
2019/05/28 12:50:04	BASE	5.21	213	8.18	214	-7.9	78	-11.0	0	0	992.2	NA	0.0000		9999	2200	0	0	0
2019/05/28 12:51:04	BASE	4.36	199	8.18	214	-7.9	78	-11.1	0	0	992.2	NA	0.0000		9999	2100	0	0	0
2019/05/28 12:52:05	BASE	3.55	205	8.18	214	-7.9	78	-11.2	0	0	992.2	NA	0.0000		9999	2070	0	0	0
2019/05/28 12:53:04	BASE	3.57	228	8.18	214	-7.9	77	-11.2	0	0	992.2	NA	0.0000		9999	2070	0	0	0
2019/05/28 12:54:04	BASE	3.53	230	8.18	214	-7.9	77	-11.2	0	0	992.2	NA	0.0000		9999	2030	0	0	0
2019/05/28 12:55:04	BASE	4.17	216	8.18	214	-7.9	77	-11.2	0	0	992.2	NA	0.0000		9999	2070	0	0	0
2019/05/28 12:56:04	BASE	5.52	211	6.94	213	-7.9	77	-11.1	0	0	992.2	NA	0.0000		9999	2070	0	0	0
2019/05/28 12:57:04	BASE	6.04	214	6.94	213	-7.8	78	-11.1	0	0	992.2	NA	0.0000		9999	2000	0	0	0
2019/05/28 12:58:05	BASE	5.69	212	6.94	213	-7.8	78	-11.1	0	0	992.2	NA	0.0000		9999	2030	0	0	0
2019/05/28 12:59:05	BASE	5.27	205	6.94	213	-7.8	78	-11.1	0	0	992.2	NA	0.0000		9999	1940	0	0	0
2019/05/28 13:00:05	BASE	5.00	199	6.94	213	-7.8	77	-11.1	0	0	992.2	NA	0.0000		9999	2000	0	0	0
2019/05/28 13:01:03	BASE	3.23	201	6.94	213	-7.9	77	-11.2	0	0	992.2	NA	0.0000		9999	1940	0	0	0
2019/05/28 13:02:04	BASE	0.78	187	6.94	213	-7.9	77	-11.2	0	0	992.2	NA	0.0000		9999	2030	0	0	0
2019/05/28 13:03:04	BASE	0.81	182	6.94	213	-7.9	77	-11.2	0	0	992.2	NA	0.0000		9999	2030	0	0	0
2019/05/28 13:04:04	BASE	1.82	188	6.94	213	-7.9	77	-11.3	0	0	992.2	NA	0.0000		9999	2000	0	0	0
2019/05/28 13:05:04	BASE	2.22	188	6.94	213	-7.9	77	-11.3	1	0	992.2	NA	0.0000		9999	2030	0	0	0
2019/05/28 13:06:04	BASE	3.06	199	6.48	217	-8.0	77	-11.3	1	0	992.2	NA	0.0000		9999	1970	0	0	0
2019/05/28 13:07:04	BASE	4.59	222	6.28	243	-7.9	77	-11.3	1	0	992.2	NA	0.0000		9999	2070	0	0	0
2019/05/28 13:08:04	BASE	4.67	239	6.28	243	-7.9	77	-11.3	1	0	992.2	NA	0.0000		9999	2030	0	0	0
2019/05/28 13:09:05	BASE	3.94	233	6.28	243	-7.9	77	-11.2	1	0	992.2	NA	0.0000		9999	2030	0	0	0
2019/05/28 13:10:01	BASE	3.51	224	6.28	243	-7.8	77	-11.2	1	0	992.1	NA	0.0000		9999	1970	0	0	0
2019/05/28 13:11:04	BASE	2.62	227	6.28	243	-7.8	77	-11.2	1	0	992.1	NA	0.0000		9999	2000	0	0	0
2019/05/28 13:12:05	BASE	2.37	230	6.28	243	-7.8	77	-11.2	1	0	992.2	NA	0.0000		9999	1970	0	0	0
2019/05/28 13:13:03	BASE	2.86	226	6.28	243	-7.9	77	-11.2	1	0	992.2	NA	0.0000		9999	2030	0	0	0
2019/05/28 13:14:04	BASE	3.06	219	6.28	243	-7.9	77	-11.2	1	0	992.2	NA	0.0000		9999	2100	0	0	0
2019/05/28 13:15:04	BASE	3.21	218	6.28	243	-7.9	77	-11.2	1	0	992.2	NA	0.0000		9999	2170	0	0	0
2019/05/28 13:16:04	BASE	4.30	224	6.43	228	-7.8	77	-11.2	1	0	992.2	NA	0.0000		9999	2000	0	0	0
2019/05/28 13:17:04	BASE	5.27	237	6.43	228	-7.8	77	-11.1	1	0	992.2	NA	0.0000		9999	1970	0	0	0
2019/05/28 13:18:05	BASE	5.14	258	6.43	228	-7.8	77	-11.1	1	0	992.1	NA	0.0000		9999	2130	0	0	0
2019/05/28 13:19:04	BASE	4.29	262	6.43	228	-7.8	77	-11.1	1	0	992.1	NA	0.0000		9999	2030	0	0	0
2019/05/28 13:20:04	BASE	4.18	252	6.43	228	-7.8	77	-11.1	1	0	992.1	NA	0.0000		9999	2070	0	0	0
2019/05/28 13:21:03	BASE	4.40	251	6.43	228	-7.8	77	-11.1	1	0	992.2	NA	0.0000		9999	2070	0	0	0
2019/05/28 13:22:04	BASE	4.15	244	6.43	228	-7.8	77	-11.1	1	0	992.2	NA	0.0000		9999	2130	0	0	0
2019/05/28 13:23:03	BASE	4.39	233	6.43	228	-7.8	77	-11.1	2	0	992.2	NA	0.0000		9999	2070	0	0	0
2019/05/28 13:24:04	BASE	5.73	232	7.82	234	-7.8	77	-11.1	2	0	992.2	NA	0.0000		9999	2170	0	0	0
2019/05/28 13:25:04	BASE	5.72	235	7.82	234	-7.8	77	-11.1	2	0	992.2	NA	0.0000		9999	2230	0	0	0
2019/05/28 13:26:05	BASE	4.58	230	7.82	234	-7.8	77	-11.1	2	0	992.2	NA	0.0000		9999	2300	0	0	0
2019/05/28 13:27:04	BASE	5.23	221	7.82	234	-7.8	77	-11.1	2	0	992.2	NA	0.0000		9999	2130	0	0	0
2019/05/28 13:28:05	BASE	5.72	217	7.82	234	-7.8	77	-11.1	2	0	992.2	NA	0.0000		9999	2030	0	0	0
2019/05/28 13:29:04	BASE	5.86	218	7.82	234	-7.8	77	-11.1	2	0	992.2	NA	0.0000		9999	2030	0	0	0
2019/05/28 13:30:04	BASE	6.50	224	7.82	234	-7.8	77	-11.1	3	0	992.2	NA	0.0000		9999	2030	0	0	0
2019/05/28 13:31:04	BASE	6.72	229	7.92	234	-7.7	77	-11.1	3	0	992.2	NA	0.0000		9999	2000	0	0	0
2019/05/28 13:32:04	BASE	6.96	233	8.03	234	-7.7	77	-11.1	3	0	992.2	NA	0.0000		9999	2030	0	0	0
2019/05/28 13:33:04	BASE	6.72	230	8.03	234	-7.7	77	-11.1	3	0	992.2	NA	0.0000		9999	2070	0	0	0
2019/05/28 13:34:04	BASE	5.99	230	8.03	234	-7.7	77	-11.1	3	0	992.2	NA	0.0000		9999	2100	2720	0	0
2019/05/28 13:35:04	BASE	6.35	234	8.85	238	-7.8	77	-11.1	4	0	992.1	NA	0.0000		9999	2030	0	0	0
2019/05/28 13:36:04	BASE	5.85	241	8.85	238	-7.8	77	-11.1	4	0	992.2	NA	0.0000		9999	2070	0	0	0
2019/05/28 13:37:04	BASE	4.61	246	8.85	238	-7.8	77	-11.2	4	0	992.1	NA	0.0000		9999	2070	0	0	0
2019/05/28 13:38:04	BASE	4.22	237	8.85	238	-7.9	77	-11.2	4	0	992.1	NA	0.0000		9999	2130	0	0	0
2019/05/28 13:39:04	BASE	4.99	223	8.85	238	-7.9	77	-11.2	4	0	992.2	NA	0.0000		9999	2030	0	0	0
2019/05/28 13:40:04	BASE	6.02	210	8.85	238	-7.9	77	-11.2	4	0	992.2	NA	0.0000		9999	2070	0	0	0
2019/05/28 13:41:03	BASE	5.96	197	8.85	238	-7.8	77	-11.2	4	0	992.1	NA	0.0000		9999	2070	0	0	0
2019/05/28 13:42:04	BASE	5.36	192	8.85	238	-7.8	77	-11.2	5	0	992.1	NA	0.0000		9999	2070	0	0	0
2019/05/28 13:43:04	BASE	4.07	190	8.85	238	-7.8	77	-11.2	5	0	992.1	NA	0.0000		9999	2070	0	0	0
2019/05/28 13:44:04	BASE	2.66	179	8.85	238	-7.9	77	-11.2	5	0	992.1	NA	0.0000		9999	2030	0	0	0
2019/05/28 13:45:04	BASE	2.17	181	6.94	198	-7.9	77	-11.2	5	0	992.1	NA	0.0000		9999	2030	0	0	0
2019/05/28 13:46:04	BASE	1.45	186	6.94	198	-7.9	77	-11.2	5	0	992.0	NA	0.0000		9999	2030	0	0	0
2019/05/28 13:47:05	BASE	0.30	186	6.94	198	-7.9	77	-11.2	5	0	992.1	NA	0.0000		9999	2230	0	0	0
2019/05/28 13:48:04	BASE	1.20	203	6.94	198	-7.9	77	-11.2	5	0	992.1	NA	0.0000		9999	2070	0	0	0
2019/05/28 13:49:04	BASE	2.31	238	6.69	188	-7.9	77	-11.2	5	0	992.1	NA	0.0000		9999	1970	0	0	0
2019/05/28 13:50:04	BASE	1.37	244	6.69	188	-7.9	77	-11.2	5	0	992.1	NA	0.0000		9999	1970	0	0	0
2019/05/28 13:51:04	BASE	0.76	215	5.71	195	-7.9	77	-11.2	5	0	992.0	NA	0.0000		9999	2030	0	0	0
2019/05/28 13:52:04	BASE	1.47	207	4.17	195	-7.9	77	-11.2	5	0	992.0	NA	0.0000		9999	2070	0	0	0
2019/05/28 13:53:04	BASE	1.70	220	3.45	242	-7.9	77	-11.2	5	0	992.0	NA	0.0000		9999	2070	0	0	0
2019/05/28 13:54:04	BASE	1.56	237	3.45	242	-7.9	77	-11.2	5	0	992.0	NA	0.0000		9999	2030	0	0	0
2019/05/28 13:55:04	BASE	1.77	248	3.45	242	-7.9	77	-11.2	5	0	992.0	NA	0.0000		9999	1970	0	0	0
2019/05/28 13:56:04	BASE	2.39	224	3.45	206	-7.9	77	-11.2	5	0	992.0	NA	0.0000		9999	1970	0	0	0
2019/05/28 13:57:04	BASE	2.98	203	3.45	218	-7.9	77	-11.2	6	0	992.0	NA	0.0000		9999	1940	0	0	0
2019/05/28 13:58:04	BASE	3.35	212	4.17	224	-7.8	77	-11.2	6	0	992.0	NA	0.0000		9999	1900	0	0	0
2019/05/28 13:59:04	BASE	3.26	211	4.17	224	-7.8	77	-11.1	6	0	992.0	NA	0.0000		9999	1940	0	0	0
2019/05/28 14:00:04	BASE	3.25	199	4.17	224	-7.8	77	-11.1	6	0	992.0	NA	0.0000		9999	1940	0	0	0
2019/05/28 14:01:04	BASE	3.75	193	4.63	191	-7.8	77	-11.1	6	0	992.0	NA	0.0000		9999	1900	0	0	0
2019/05/28 14:02:05	BASE	4.43	198	7.82	220	-7.8	77	-11.1	6	0	992.0	NA	0.0000		9999	1940	0	0	0
2019/05/28 14:03:04	BASE	6.25	217	8.03	227	-7.8	77	-11.1	6	0	992.1	NA	0.0000		9999	1870	0	0	0
2019/05/28 14:04:04	BASE	8.00	226	9.31	216	-7.8	77	-11.1	6	0	992.0	NA	0.0000		9999	1840	0	0	0
2019/05/28 14:05:04	BASE	7.97	224	9.31	216	-7.8	77	-11.1	6	0	992.1	NA	0.0000		9999	1900	0	0	0
2019/05/28 14:06:04	BASE	6.52	229	9.31	216	-7.8	77	-11.1	6	0	992.0	NA	0.0000		9999	1870	0	0	0
2019/05/28 14:07:04	BASE	4.87	227	9.31	216	-7.8	78	-11.1	6	0	992.1	NA	0.0000		9999	1840	0	0	0
2019/05/28 14:08:04	BASE	3.28	211	9.31	216	-7.9	78	-11.1	6	0	992.1	NA	0.0000		9999	1870	0	0	0
2019/05/28 14:09:05	BASE	2.83	198	9.31	216	-7.9	78	-11.1	6	0	992.1	NA	0.0000		9999	1800	0	0	0
2019/05/28 14:10:01	BASE	3.61	196	9.31	216	-7.9	78	-11.1	6	0	992.1	NA	0.0000		9999	1870	0	0	0
2019/05/28 14:11:04	BASE	4.34	205	9.31	216	-7.9	78	-11.0	6	0	992.1	NA	0.0000		9999	1870	0	0	0
2019/05/28 14:12:05	BASE	4.14	207	9.31	216	-7.8	78	-11.0	6	0	992.1	NA	0.0000		9999	1940	0	0	0
2019/05/28 14:13:04	BASE	3.35	199	9.31	216	-7.8	78	-11.0	7	0	992.1	NA	0.0000		9999	1940	0	0	0
2019/05/28 14:14:04	BASE	4.29	197	8.23	220	-7.8	78	-11.0	7	0	992.1	NA	0.0000		9999	1940	0	0	0
2019/05/28 14:15:04	BASE	5.94	204	7.36	207	-7.8	78	-11.0	7	0	992.1	NA	0.0000		9999	1970	0	0	0
2019/05/28 14:16:05	BASE	6.74	209	7.56	205	-7.8	78	-11.0	8	0	992.2	NA	0.0000		9999	1970	0	0	0
2019/05/28 14:17:05	BASE	6.58	208	7.56	205	-7.9	79	-10.9	8	0	992.2	NA	0.0000		9999	1770	0	0	0
2019/05/28 14:18:04	BASE	6.17	206	7.56	205	-7.9	79	-10.9	8	0	992.2	NA	0.0000		9999	1800	0	0	0
2019/05/28 14:19:04	BASE	5.61	207	7.56	205	-7.9	79	-10.9	8	0	992.2	NA	0.0000		9999	1870	0	0	0
2019/05/28 14:20:04	BASE	5.12	207	7.56	205	-7.9	79	-10.9	8	0	992.2	NA	0.0000		9999	1970	0	0	0
2019/05/28 14:21:04	BASE	5.56	194	7.56	205	-7.9	79	-10.9	8	0	992.2	NA	0.0000		9999	1900	0	0	0
2019/05/28 14:22:04	BASE	5.34	187	7.56	205	-7.9	79	-10.9	8	0	992.2	NA	0.0000		9999	1900	0	0	0
2019/05/28 14:23:04	BASE	4.93	185	7.56	205	-7.9	79	-10.9	9	0	992.1	NA	0.0000		9999	1900	0	0	0
2019/05/28 14:24:04	BASE	5.27	189	7.56	205	-7.9	79	-10.9	9	0	992.2	NA	0.0000		9999	1900	0	0	0
2019/05/28 14:25:04	BASE	5.08	199	7.56	205	-7.9	79	-10.9	10	0	992.2	NA	0.0000		9999	1870	0	0	0
2019/05/28 14:26:04	BASE	4.88	213	7.41	207	-7.9	79	-10.9	9	0	992.2	NA	0.0000		9999	1840	0	0	0
2019/05/28 14:27:03	BASE	4.97	226	7.41	207	-7.9	79	-10.9	9	0	992.2	NA	0.0000		9999	1970	0	0	0
2019/05/28 14:28:04	BASE	4.36	224	6.69	183	-7.8	79	-10.8	8	0	992.2	NA	0.0000		9999	1940	0	0	0
2019/05/28 14:29:04	BASE	3.99	209	6.69	183	-7.8	79	-10.8	9	0	992.2	NA	0.0000		9999	1870	0	0	0
2019/05/28 14:30:04	BASE	4.52	202	6.69	183	-7.8	79	-10.8	9	0	992.2	NA	0.0000		9999	1870	0	0	0
2019/05/28 14:31:04	BASE	4.26	212	6.69	183	-7.8	79	-10.8	9	0	992.2	NA	0.0000		9999	1900	0	0	0
2019/05/28 14:32:05	BASE	4.05	226	6.69	183	-7.7	79	-10.7	9	0	992.2	NA	0.0000		9999	1940	0	0	0
2019/05/28 14:33:04	BASE	4.79	229	6.17	219	-7.8	79	-10.7	9	0	992.2	NA	0.0000		9999	1900	0	0	0
2019/05/28 14:34:04	BASE	5.08	232	6.33	235	-7.8	80	-10.7	9	0	992.2	NA	0.0000		9999	1940	0	0	0
2019/05/28 14:35:04	BASE	5.16	241	6.33	235	-7.8	80	-10.7	9	0	992.2	NA	0.0000		9999	1900	0	0	0
2019/05/28 14:36:04	BASE	5.46	253	6.53	257	-7.8	80	-10.6	9	0	992.1	NA	0.0000		9999	1840	0	0	0
2019/05/28 14:37:04	BASE	5.60	264	6.53	257	-7.8	80	-10.6	10	0	992.2	NA	0.0000		9999	1870	0	0	0
2019/05/28 14:38:04	BASE	5.35	264	6.53	257	-7.8	80	-10.6	10	0	992.2	NA	0.0000		9999	1840	0	0	0
2019/05/28 14:39:04	BASE	5.06	258	6.53	257	-7.8	80	-10.7	10	0	992.2	NA	0.0000		9999	1900	0	0	0
2019/05/28 14:40:04	BASE	4.29	260	6.53	257	-7.8	80	-10.7	9	0	992.2	NA	0.0000		9999	1900	0	0	0
2019/05/28 14:41:03	BASE	2.94	269	6.53	257	-7.8	79	-10.7	9	0	992.2	NA	0.0000		9999	1840	0	0	0
2019/05/28 14:42:04	BASE	2.77	269	6.53	257	-7.8	79	-10.8	9	0	992.2	NA	0.0000		9999	1870	0	0	0
2019/05/28 14:43:04	BASE	4.17	256	6.53	257	-7.8	79	-10.8	10	0	992.2	NA	0.0000		9999	1870	0	0	0
2019/05/28 14:44:04	BASE	4.82	242	6.69	248	-7.8	79	-10.8	10	0	992.2	NA	0.0000		9999	1870	0	0	0
2019/05/28 14:45:04	BASE	5.62	231	8.49	232	-7.7	79	-10.7	10	0	992.2	NA	0.0000		9999	1940	0	0	0
2019/05/28 14:46:05	BASE	6.53	228	8.49	232	-7.7	79	-10.7	10	0	992.2	NA	0.0000		9999	1870	0	0	0
2019/05/28 14:47:05	BASE	5.89	220	8.49	232	-7.7	79	-10.7	11	0	992.2	NA	0.0000		9999	1940	0	0	0
2019/05/28 14:48:04	BASE	4.43	223	8.49	232	-7.7	79	-10.7	11	0	992.2	NA	0.0000		9999	1900	0	0	0
2019/05/28 14:49:04	BASE	3.39	224	8.49	232	-7.8	79	-10.7	11	0	992.2	NA	0.0000		9999	1970	0	0	0
2019/05/28 14:50:04	BASE	4.38	224	8.49	232	-7.8	79	-10.8	11	0	992.2	NA	0.0000		9999	1940	0	0	0
2019/05/28 14:51:04	BASE	5.47	247	8.49	232	-7.8	79	-10.8	12	0	992.2	NA	0.0000		9999	1940	0	0	0
2019/05/28 14:52:04	BASE	5.79	253	8.49	232	-7.8	79	-10.8	12	0	992.2	NA	0.0000		9999	1870	0	0	0
2019/05/28 14:53:04	BASE	6.00	237	8.49	232	-7.8	79	-10.8	14	0	992.2	NA	0.0000		9999	1840	0	0	0
2019/05/28 14:54:04	BASE	5.17	231	8.49	232	-7.8	79	-10.8	15	0	992.2	NA	0.0000		9999	1900	0	0	0
2019/05/28 14:55:05	BASE	4.42	228	7.56	226	-7.7	79	-10.8	17	0	992.2	NA	0.0000		9999	1870	0	0	0
2019/05/28 14:56:04	BASE	5.04	235	7.25	233	-7.7	79	-10.8	18	0	992.2	NA	0.0000		9999	1870	0	0	0
2019/05/28 14:57:04	BASE	6.04	241	7.25	233	-7.7	79	-10.8	17	0	992.2	NA	0.0000		9999	1900	0	0	0
2019/05/28 14:58:04	BASE	5.84	230	7.25	233	-7.8	79	-10.8	16	0	992.2	NA	0.0000		9999	1970	0	0	0
2019/05/28 14:59:04	BASE	4.66	211	7.25	233	-7.8	79	-10.8	15	0	992.2	NA	0.0000		9999	1840	0	0	0
2019/05/28 15:00:05	BASE	3.96	200	7.25	233	-7.8	79	-10.8	14	0	992.2	NA	0.0000		9999	1840	0	0	0
2019/05/28 15:01:04	BASE	4.06	202	7.25	233	-7.8	79	-10.8	14	0	992.2	NA	0.0000		9999	1870	0	0	0
2019/05/28 15:02:05	BASE	3.86	203	6.74	237	-7.8	79	-10.8	13	0	992.1	NA	0.0000		9999	1840	0	0	0
2019/05/28 15:03:04	BASE	2.88	194	6.74	237	-7.8	79	-10.8	13	0	992.1	NA	0.0000		9999	1840	0	0	0
2019/05/28 15:04:04	BASE	2.30	202	6.74	237	-7.9	79	-10.9	14	0	992.1	NA	0.0000		9999	1800	0	0	0
2019/05/28 15:05:04	BASE	2.99	213	6.74	237	-7.9	79	-10.9	15	0	992.1	NA	0.0000		9999	1800	0	0	0
2019/05/28 15:06:04	BASE	4.12	215	6.74	237	-7.8	79	-10.8	15	0	992.1	NA	0.0000		9999	1840	0	0	0
2019/05/28 15:07:05	BASE	5.46	231	7.00	239	-7.8	79	-10.8	16	0	992.1	NA	0.0000		9999	1840	0	0	0
2019/05/28 15:08:04	BASE	5.67	233	7.00	239	-7.8	80	-10.7	15	0	992.1	NA	0.0000		9999	1870	0	0	0
2019/05/28 15:09:06	BASE	4.73	228	7.00	239	-7.8	80	-10.6	15	0	992.2	NA	0.0000		9999	1870	0	0	0
2019/05/28 15:10:02	BASE	5.12	226	7.15	211	-7.8	80	-10.6	15	0	992.2	NA	0.0000		9999	1840	0	0	0
2019/05/28 15:11:04	BASE	5.95	218	7.15	222	-7.8	80	-10.6	15	0	992.2	NA	0.0000		9999	1800	0	0	0
2019/05/28 15:12:04	BASE	6.06	214	7.15	222	-7.8	80	-10.6	15	0	992.1	NA	0.0000		9999	1800	0	0	0
2019/05/28 15:13:04	BASE	5.43	222	7.15	222	-7.8	80	-10.6	15	0	992.1	NA	0.0000		9999	1800	0	0	0
2019/05/28 15:14:05	BASE	4.78	227	7.15	222	-7.8	80	-10.6	14	0	992.1	NA	0.0000		9999	1800	0	0	0
2019/05/28 15:15:04	BASE	4.82	213	7.15	222	-7.8	80	-10.6	14	0	992.1	NA	0.0000		9999	1800	0	0	0
2019/05/28 15:16:04	BASE	4.76	193	7.15	222	-7.8	80	-10.6	13	0	992.1	NA	0.0000		9999	1840	0	0	0
2019/05/28 15:17:04	BASE	4.96	189	7.15	222	-7.8	80	-10.6	14	0	992.1	NA	0.0000		9999	1840	0	0	0
2019/05/28 15:18:05	BASE	5.72	195	7.15	222	-7.8	80	-10.6	14	0	992.1	NA	0.0000		9999	1870	0	0	0
2019/05/28 15:19:04	BASE	5.42	212	7.15	222	-7.8	80	-10.6	15	0	992.1	NA	0.0000		9999	1840	0	0	0
2019/05/28 15:20:04	BASE	6.04	230	8.18	236	-7.7	80	-10.6	15	0	992.1	NA	0.0000		9999	1900	0	0	0
2019/05/28 15:21:04	BASE	7.70	228	8.80	226	-7.7	80	-10.6	14	0	992.1	NA	0.0000		9999	1870	0	0	0
2019/05/28 15:22:04	BASE	7.57	227	8.80	226	-7.7	80	-10.6	14	0	992.1	NA	0.0000		9999	1840	0	0	0
2019/05/28 15:23:04	BASE	6.15	227	8.80	226	-7.7	80	-10.6	13	0	992.1	NA	0.0000		9999	1840	0	0	0
2019/05/28 15:24:04	BASE	4.80	221	8.80	226	-7.7	80	-10.6	13	0	992.1	NA	0.0000		9999	1840	0	0	0
2019/05/28 15:25:04	BASE	4.24	215	8.80	226	-7.7	80	-10.6	14	0	992.1	NA	0.0000		9999	1800	0	0	0
2019/05/28 15:26:05	BASE	5.42	215	8.85	235	-7.7	80	-10.6	14	0	992.1	NA	0.0000		9999	1840	0	0	0
2019/05/28 15:27:04	BASE	7.70	225	10.34	233	-7.7	80	-10.6	14	0	992.1	NA	0.0000		9999	1840	0	0	0
2019/05/28 15:28:04	BASE	8.44	235	10.34	233	-7.7	80	-10.6	15	0	992.1	NA	0.0000		9999	1870	0	0	0
2019/05/28 15:29:03	BASE	7.17	235	10.34	233	-7.7	80	-10.6	16	0	992.1	NA	0.0000		9999	1870	0	0	0
2019/05/28 15:30:04	BASE	6.47	242	10.34	233	-7.7	80	-10.6	17	0	992.2	NA	0.0000		9999	1800	0	0	0
2019/05/28 15:31:04	BASE	5.94	241	10.34	233	-7.8	80	-10.6	17	0	992.2	NA	0.0000		9999	1800	0	0	0
2019/05/28 15:32:04	BASE	4.73	238	10.34	233	-7.8	80	-10.7	19	0	992.2	NA	0.0000		9999	1900	0	0	0
2019/05/28 15:33:04	BASE	3.80	242	10.34	233	-7.9	80	-10.7	19	0	992.2	NA	0.0000		9999	1940	0	0	0
2019/05/28 15:34:04	BASE	3.20	251	10.34	233	-7.9	80	-10.7	19	0	992.2	NA	0.0000		9999	2000	0	0	0
2019/05/28 15:35:04	BASE	3.02	263	10.34	233	-7.9	80	-10.7	18	0	992.2	NA	0.0000		9999	1900	0	0	0
2019/05/28 15:36:04	BASE	2.30	267	10.34	233	-7.8	80	-10.7	17	0	992.2	NA	0.0000		9999	1940	0	0	0
2019/05/28 15:37:05	BASE	2.31	250	9.52	236	-7.8	80	-10.7	17	0	992.1	NA	0.0000		9999	1970	0	0	0
2019/05/28 15:38:04	BASE	3.12	226	8.08	244	-7.8	80	-10.6	17	0	992.2	NA	0.0000		9999	1940	0	0	0
2019/05/28 15:39:03	BASE	4.10	205	8.08	244	-7.8	80	-10.6	17	0	992.2	NA	0.0000		9999	1900	0	0	0
2019/05/28 15:40:04	BASE	5.21	208	6.69	208	-7.7	80	-10.6	15	0	992.2	NA	0.0000		9999	1840	0	0	0
2019/05/28 15:41:04	BASE	4.98	216	6.69	208	-7.7	80	-10.6	14	0	992.2	NA	0.0000		9999	1770	0	0	0
2019/05/28 15:42:04	BASE	4.80	209	6.69	208	-7.7	80	-10.5	13	0	992.2	NA	0.0000		9999	1840	0	0	0
2019/05/28 15:43:03	BASE	6.60	208	9.36	201	-7.7	80	-10.5	13	0	992.2	NA	0.0000		9999	1840	0	0	0
2019/05/28 15:44:04	BASE	7.97	212	9.36	201	-7.7	80	-10.5	13	0	992.2	NA	0.0000		9999	1870	0	0	0
2019/05/28 15:45:05	BASE	8.10	228	9.36	233	-7.6	80	-10.5	13	0	992.2	NA	0.0000		9999	1840	0	0	0
2019/05/28 15:46:04	BASE	7.88	240	9.36	233	-7.6	80	-10.5	14	0	992.2	NA	0.0000		9999	1840	0	0	0
2019/05/28 15:47:04	BASE	7.79	239	9.36	233	-7.6	80	-10.5	13	0	992.2	NA	0.0000		9999	1800	0	0	0
2019/05/28 15:48:03	BASE	7.95	227	9.36	233	-7.7	80	-10.5	13	0	992.2	NA	0.0000		9999	1800	0	0	0
2019/05/28 15:49:04	BASE	6.50	221	9.36	233	-7.7	80	-10.6	12	0	992.2	NA	0.0000		9999	1900	0	0	0
2019/05/28 15:50:04	BASE	5.09	228	9.36	233	-7.8	80	-10.6	12	0	992.1	NA	0.0000		9999	1800	0	0	0
2019/05/28 15:51:04	BASE	5.02	237	9.36	233	-7.8	80	-10.6	11	0	992.2	NA	0.0000		9999	1800	0	0	0
2019/05/28 15:52:04	BASE	5.30	237	9.36	233	-7.8	80	-10.7	10	0	992.2	NA	0.0000		9999	1900	0	0	0
2019/05/28 15:53:04	BASE	5.44	220	9.36	233	-7.8	80	-10.7	10	0	992.2	NA	0.0000		9999	1840	0	0	0
2019/05/28 15:54:04	BASE	5.34	198	9.36	233	-7.8	80	-10.7	11	0	992.2	NA	0.0000		9999	1840	0	0	0
2019/05/28 15:55:03	BASE	5.09	187	9.05	239	-7.8	80	-10.6	11	0	992.2	NA	0.0000		9999	1800	0	0	0
2019/05/28 15:56:04	BASE	4.34	183	9.05	239	-7.8	80	-10.6	11	0	992.2	NA	0.0000		9999	1870	0	0	0
2019/05/28 15:57:05	BASE	3.51	187	8.85	223	-7.8	80	-10.6	12	0	992.2	NA	0.0000		9999	1870	0	0	0
2019/05/28 15:58:04	BASE	2.73	189	6.58	214	-7.8	80	-10.7	13	0	992.2	NA	0.0000		9999	1870	0	0	0
2019/05/28 15:59:03	BASE	2.31	190	6.58	214	-7.8	80	-10.7	13	0	992.2	NA	0.0000		9999	1840	0	0	0
2019/05/28 16:00:04	BASE	1.70	194	6.58	214	-7.8	79	-10.7	14	0	992.2	NA	0.0000		9999	1840	0	0	0
2019/05/28 16:01:04	BASE	0.75	189	6.58	214	-7.8	79	-10.8	14	0	992.1	NA	0.0000		9999	1800	0	0	0
2019/05/28 16:02:05	BASE	1.01	182	6.58	214	-7.8	79	-10.8	15	0	992.2	NA	0.0000		9999	1840	0	0	0
2019/05/28 16:03:03	BASE	1.63	190	6.17	190	-7.8	79	-10.8	15	0	992.2	NA	0.0000		9999	1900	0	0	0
2019/05/28 16:04:04	BASE	2.39	208	6.12	178	-7.8	79	-10.8	15	0	992.2	NA	0.0000		9999	1900	0	0	0
2019/05/28 16:05:04	BASE	4.75	228	8.54	237	-7.8	79	-10.8	15	0	992.2	NA	0.0000		9999	1970	0	0	0
2019/05/28 16:06:04	BASE	6.64	243	8.54	237	-7.8	79	-10.8	14	0	992.2	NA	0.0000		9999	1900	0	0	0
2019/05/28 16:07:04	BASE	6.32	249	8.54	237	-7.8	79	-10.8	13	0	992.2	NA	0.0000		9999	1900	0	0	0
2019/05/28 16:08:05	BASE	4.34	253	8.54	237	-7.8	79	-10.8	12	0	992.2	NA	0.0000		9999	0	0	0	0
2019/05/28 16:09:05	BASE	3.31	249	8.54	237	-7.8	79	-10.8	12	0	992.2	NA	0.0000		9999	2890	0	0	0
2019/05/28 16:10:01	BASE	3.51	244	8.54	237	-7.8	79	-10.8	12	0	992.2	NA	0.0000		9999	2130	0	0	0
2019/05/28 16:11:04	BASE	3.16	244	8.54	237	-7.8	79	-10.8	12	0	992.2	NA	0.0000		9999	1970	0	0	0
2019/05/28 16:12:04	BASE	3.17	245	8.54	237	-7.8	79	-10.8	13	0	992.2	NA	0.0000		9999	1900	0	0	0
2019/05/28 16:13:04	BASE	3.62	236	8.54	237	-7.8	79	-10.9	13	0	992.2	NA	0.0000		9999	1940	0	0	0
2019/05/28 16:14:04	BASE	4.31	223	8.54	237	-7.8	78	-10.9	13	0	992.2	NA	0.0000		9999	1940	0	0	0
2019/05/28 16:15:04	BASE	4.55	220	7.46	243	-7.7	78	-10.8	11	0	992.2	NA	0.0000		9999	1970	0	0	0
2019/05/28 16:16:04	BASE	4.21	213	7.15	245	-7.7	78	-10.8	12	0	992.1	NA	0.0000		9999	1870	0	0	0
2019/05/28 16:17:04	BASE	3.91	200	5.04	226	-7.7	78	-10.8	13	0	992.1	NA	0.0000		9999	1900	0	0	0
2019/05/28 16:18:04	BASE	3.50	182	5.04	226	-7.7	79	-10.8	13	0	992.0	NA	0.0000		9999	1870	0	0	0
2019/05/28 16:19:04	BASE	2.79	178	5.04	226	-7.7	79	-10.7	14	0	992.1	NA	0.0000		9999	1900	0	0	0
2019/05/28 16:20:04	BASE	2.26	194	5.04	226	-7.7	79	-10.8	13	0	992.0	NA	0.0000		9999	1870	0	0	0
2019/05/28 16:21:04	BASE	2.64	206	5.04	226	-7.8	79	-10.8	13	0	992.1	NA	0.0000		9999	1840	0	0	0
2019/05/28 16:22:04	BASE	4.31	217	6.84	226	-7.8	79	-10.8	13	0	992.1	NA	0.0000		9999	1870	0	0	0
2019/05/28 16:23:04	BASE	6.18	227	7.72	228	-7.7	79	-10.8	13	0	992.1	NA	0.0000		9999	1840	0	0	0
2019/05/28 16:24:04	BASE	6.72	229	7.72	228	-7.7	79	-10.7	13	0	992.1	NA	0.0000		9999	1800	0	0	0
2019/05/28 16:25:04	BASE	6.67	224	8.08	210	-7.7	79	-10.7	13	0	992.1	NA	0.0000		9999	1870	0	0	0
2019/05/28 16:26:04	BASE	5.66	222	8.08	210	-7.7	79	-10.7	13	0	992.2	NA	0.0000		9999	1840	0	0	0
2019/05/28 16:27:04	BASE	4.30	215	8.08	210	-7.6	79	-10.6	12	0	992.1	NA	0.0000		9999	1970	0	0	0
2019/05/28 16:28:04	BASE	4.03	206	8.08	210	-7.6	79	-10.6	11	0	992.1	NA	0.0000		9999	1840	0	0	0
2019/05/28 16:29:04	BASE	3.71	205	8.08	210	-7.6	80	-10.5	11	0	992.1	NA	0.0000		9999	1840	0	0	0
2019/05/28 16:30:04	BASE	3.87	198	8.08	210	-7.6	80	-10.5	11	0	992.0	NA	0.0000		9999	1900	0	0	0
2019/05/28 16:31:04	BASE	4.67	190	8.08	210	-7.7	80	-10.5	11	0	992.1	NA	0.0000		9999	1870	0	0	0
2019/05/28 16:32:04	BASE	4.56	191	8.08	210	-7.7	80	-10.5	11	0	992.1	NA	0.0000		9999	1900	0	0	0
2019/05/28 16:33:04	BASE	4.41	195	8.08	210	-7.7	80	-10.6	11	0	992.1	NA	0.0000		9999	1870	0	0	0
2019/05/28 16:34:04	BASE	5.64	200	8.08	210	-7.7	80	-10.6	11	0	992.1	NA	0.0000		9999	1800	0	0	0
2019/05/28 16:35:04	BASE	7.09	212	8.18	219	-7.7	80	-10.6	9	0	992.1	NA	0.0000		9999	1870	0	0	0
2019/05/28 16:36:05	BASE	7.08	222	8.18	219	-7.8	80	-10.6	9	0	992.1	NA	0.0000		9999	1900	0	0	0
2019/05/28 16:37:04	BASE	5.66	219	8.18	219	-7.8	80	-10.6	9	0	992.1	NA	0.0000		9999	1800	0	0	0
2019/05/28 16:38:05	BASE	4.70	213	8.18	219	-7.8	80	-10.6	9	0	992.1	NA	0.0000		9999	1800	0	0	0
2019/05/28 16:39:04	BASE	4.04	222	8.18	219	-7.8	80	-10.6	9	0	992.1	NA	0.0000		9999	1840	0	0	0
2019/05/28 16:40:03	BASE	3.40	232	8.18	219	-7.8	80	-10.6	9	0	992.1	NA	0.0000		9999	1800	0	0	0
2019/05/28 16:41:04	BASE	4.14	222	8.18	219	-7.8	80	-10.6	11	0	992.0	NA	0.0000		9999	1800	0	0	0
2019/05/28 16:42:04	BASE	5.48	217	8.18	219	-7.8	80	-10.6	13	0	992.0	NA	0.0000		9999	1770	0	0	0
2019/05/28 16:43:04	BASE	5.85	220	8.18	219	-7.7	80	-10.6	14	0	992.0	NA	0.0000		9999	1770	0	0	0
2019/05/28 16:44:04	BASE	5.13	217	8.18	219	-7.7	80	-10.6	13	0	992.0	NA	0.0000		9999	1740	0	0	0
2019/05/28 16:45:04	BASE	3.28	221	7.61	223	-7.7	80	-10.6	12	0	992.0	NA	0.0000		9999	1740	0	0	0
2019/05/28 16:46:04	BASE	2.79	225	6.48	222	-7.7	80	-10.6	11	0	992.0	NA	0.0000		9999	1770	0	0	0
2019/05/28 16:47:04	BASE	4.56	226	6.48	222	-7.7	80	-10.6	11	0	992.0	NA	0.0000		9999	1770	0	0	0
2019/05/28 16:48:04	BASE	6.05	227	7.10	214	-7.7	80	-10.5	10	0	991.9	NA	0.0000		9999	1800	0	0	0
2019/05/28 16:49:04	BASE	6.95	219	7.97	206	-7.7	81	-10.5	10	0	992.0	NA	0.0000		9999	1840	0	0	0
2019/05/28 16:50:04	BASE	6.83	212	7.97	206	-7.7	81	-10.4	9	0	992.0	NA	0.0000		9999	1800	0	0	0
2019/05/28 16:51:04	BASE	6.06	207	7.97	206	-7.7	81	-10.4	9	0	992.0	NA	0.0000		9999	1840	0	0	0
2019/05/28 16:52:04	BASE	6.29	204	7.97	206	-7.7	81	-10.4	9	0	992.0	NA	0.0000		9999	1800	0	0	0
2019/05/28 16:53:04	BASE	6.82	216	9.11	241	-7.7	81	-10.4	9	0	992.0	NA	0.0000		9999	1840	0	0	0
2019/05/28 16:54:03	BASE	7.40	235	9.11	241	-7.8	81	-10.4	9	0	992.0	NA	0.0000		9999	1840	0	0	0
2019/05/28 16:55:04	BASE	7.57	245	9.11	241	-7.8	81	-10.5	9	0	992.0	NA	0.0000		9999	2030	0	0	0
2019/05/28 16:56:04	BASE	7.92	247	9.67	256	-7.8	81	-10.5	9	0	992.0	NA	0.0000		9999	1900	0	0	0
2019/05/28 16:57:04	BASE	7.13	258	9.67	256	-7.8	81	-10.5	10	0	992.0	NA	0.0000		9999	1840	0	0	0
2019/05/28 16:58:04	BASE	4.63	265	9.67	256	-7.8	81	-10.5	10	0	992.0	NA	0.0000		9999	1840	0	0	0
2019/05/28 16:59:04	BASE	3.33	262	9.67	256	-7.9	81	-10.5	10	0	992.0	NA	0.0000		9999	2000	0	0	0
2019/05/28 17:00:04	BASE	3.23	250	9.67	256	-7.9	81	-10.6	10	0	992.0	NA	0.0000		9999	1900	0	0	0
2019/05/28 17:01:03	BASE	4.62	232	9.67	256	-7.9	81	-10.6	9	0	991.9	NA	0.0000		9999	1870	0	0	0
2019/05/28 17:02:04	BASE	6.32	214	9.67	256	-7.9	81	-10.7	9	0	991.8	NA	0.0000		9999	1940	0	0	0
2019/05/28 17:03:03	BASE	5.54	203	9.67	256	-7.9	80	-10.7	9	0	991.8	NA	0.0000		9999	1940	0	0	0
2019/05/28 17:04:04	BASE	3.83	205	9.67	256	-7.9	80	-10.7	9	0	991.8	NA	0.0000		9999	1940	0	0	0
2019/05/28 17:05:04	BASE	3.63	208	9.67	256	-7.9	80	-10.7	8	0	991.8	NA	0.0000		9999	1840	0	0	0
2019/05/28 17:06:04	BASE	4.58	210	8.54	206	-7.9	80	-10.7	8	0	991.8	NA	0.0000		9999	1970	0	0	0
2019/05/28 17:07:03	BASE	5.74	215	8.54	206	-7.9	80	-10.7	8	0	991.8	NA	0.0000		9999	1970	0	0	0
2019/05/28 17:08:04	BASE	5.72	210	8.54	206	-7.8	80	-10.7	8	0	991.8	NA	0.0000		9999	1800	0	0	0
2019/05/28 17:09:05	BASE	5.45	211	8.54	206	-7.8	80	-10.7	8	0	991.8	NA	0.0000		9999	1740	0	0	0
2019/05/28 17:10:01	BASE	5.05	219	8.54	206	-7.8	80	-10.7	8	0	991.8	NA	0.0000		9999	1800	0	0	0
2019/05/28 17:11:04	BASE	4.24	219	8.13	212	-7.8	80	-10.6	8	0	991.8	NA	0.0000		9999	1740	0	0	0
2019/05/28 17:12:04	BASE	4.40	229	7.31	216	-7.8	80	-10.6	8	0	991.8	NA	0.0000		9999	1800	0	0	0
2019/05/28 17:13:04	BASE	5.37	234	7.31	216	-7.8	80	-10.6	8	0	991.8	NA	0.0000		9999	1800	0	0	0
2019/05/28 17:14:04	BASE	6.99	211	8.69	198	-7.8	80	-10.6	7	0	991.8	NA	0.0000		9999	1870	0	0	0
2019/05/28 17:15:03	BASE	7.64	200	8.69	198	-7.8	80	-10.6	7	0	991.8	NA	0.0000		9999	1940	0	0	0
2019/05/28 17:16:04	BASE	7.52	207	8.69	198	-7.8	80	-10.6	7	0	991.8	NA	0.0000		9999	1840	0	0	0
2019/05/28 17:17:04	BASE	8.47	207	10.03	209	-7.8	80	-10.6	7	0	991.8	NA	0.0000		9999	1940	0	0	0
2019/05/28 17:18:05	BASE	8.05	201	10.03	209	-7.8	80	-10.6	7	0	991.8	NA	0.0000		9999	2000	0	0	0
2019/05/28 17:19:04	BASE	6.18	203	10.03	209	-7.8	80	-10.7	7	0	991.9	NA	0.0000		9999	1840	0	0	0
2019/05/28 17:20:04	BASE	4.94	216	10.03	209	-7.8	80	-10.7	7	0	991.9	NA	0.0000		9999	1770	0	0	0
2019/05/28 17:21:04	BASE	4.87	224	10.03	209	-7.8	80	-10.7	7	0	991.9	NA	0.0000		9999	1900	0	0	0
2019/05/28 17:22:04	BASE	4.73	227	10.03	209	-7.8	80	-10.7	7	0	991.8	NA	0.0000		9999	1800	0	0	0
2019/05/28 17:23:03	BASE	4.29	223	10.03	209	-7.8	80	-10.7	7	0	991.9	NA	0.0000		9999	1840	0	0	0
2019/05/28 17:24:04	BASE	4.55	222	10.03	209	-7.8	80	-10.7	7	0	991.9	NA	0.0000		9999	1900	0	0	0
2019/05/28 17:25:03	BASE	4.90	221	10.03	209	-7.8	80	-10.6	7	0	991.9	NA	0.0000		9999	1900	0	0	0
2019/05/28 17:26:03	BASE	5.02	208	10.03	209	-7.7	80	-10.6	7	0	991.8	NA	0.0000		9999	1940	0	0	0
2019/05/28 17:27:03	BASE	4.56	208	8.18	199	-7.7	80	-10.5	7	0	991.8	NA	0.0000		9999	1870	0	0	0
2019/05/28 17:28:04	BASE	6.43	225	10.75	228	-7.7	80	-10.5	7	0	991.8	NA	0.0000		9999	2000	0	0	0
2019/05/28 17:29:03	BASE	9.35	229	11.94	221	-7.6	80	-10.5	6	0	991.8	NA	0.0000		9999	1970	0	0	0
2019/05/28 17:30:04	BASE	8.71	237	11.94	221	-7.6	80	-10.5	6	0	991.8	NA	0.0000		9999	2070	0	0	0
2019/05/28 17:31:04	BASE	6.51	246	11.94	221	-7.7	80	-10.5	7	0	991.8	NA	0.0000		9999	1840	0	0	0
2019/05/28 17:32:04	BASE	5.76	244	11.94	221	-7.8	80	-10.6	7	0	991.7	NA	0.0000		9999	1800	0	0	0
2019/05/28 17:33:03	BASE	5.82	233	11.94	221	-7.8	80	-10.6	7	0	991.7	NA	0.0000		9999	1900	0	0	0
2019/05/28 17:34:04	BASE	5.58	221	11.94	221	-7.8	80	-10.7	7	0	991.7	NA	0.0000		9999	1970	0	0	0
2019/05/28 17:35:04	BASE	4.71	213	11.94	221	-7.8	80	-10.7	7	0	991.7	NA	0.0000		9999	1970	0	0	0
2019/05/28 17:36:05	BASE	3.67	223	11.94	221	-7.8	80	-10.7	7	0	991.7	NA	0.0000		9999	1970	0	0	0
2019/05/28 17:37:04	BASE	3.83	243	11.94	221	-7.8	80	-10.6	7	0	991.7	NA	0.0000		9999	1870	0	0	0
2019/05/28 17:38:05	BASE	4.62	250	11.94	221	-7.8	80	-10.6	7	0	991.7	NA	0.0000		9999	1840	0	0	0
2019/05/28 17:39:04	BASE	4.87	246	10.44	231	-7.8	80	-10.6	6	0	991.7	NA	0.0000		9999	1770	0	0	0
2019/05/28 17:40:03	BASE	5.83	239	7.87	242	-7.7	80	-10.6	6	0	991.7	NA	0.0000		9999	1770	0	0	0
2019/05/28 17:41:03	BASE	6.03	238	7.87	242	-7.7	80	-10.6	6	0	991.7	NA	0.0000		9999	1840	0	0	0
2019/05/28 17:42:04	BASE	5.55	242	7.87	242	-7.7	80	-10.6	6	0	991.7	NA	0.0000		9999	1870	0	0	0
2019/05/28 17:43:04	BASE	6.02	234	7.87	242	-7.7	80	-10.6	6	0	991.8	NA	0.0000		9999	1970	0	0	0
2019/05/28 17:44:03	BASE	5.39	226	7.87	242	-7.7	80	-10.6	7	0	991.8	NA	0.0000		9999	1900	0	0	0
2019/05/28 17:45:04	BASE	4.19	218	7.87	242	-7.7	80	-10.6	7	0	991.8	NA	0.0000		9999	1970	0	0	0
2019/05/28 17:46:04	BASE	3.83	205	7.87	242	-7.7	80	-10.6	7	0	991.8	NA	0.0000		9999	1970	0	0	0
2019/05/28 17:47:04	BASE	4.12	196	7.87	242	-7.7	80	-10.6	6	0	991.8	NA	0.0000		9999	1970	0	0	0
2019/05/28 17:48:03	BASE	4.65	204	7.87	242	-7.7	80	-10.6	6	0	991.8	NA	0.0000		9999	1970	0	0	0
2019/05/28 17:49:05	BASE	5.12	222	7.87	242	-7.7	80	-10.6	6	0	991.8	NA	0.0000		9999	1900	0	0	0
2019/05/28 17:50:04	BASE	6.42	222	8.85	226	-7.7	80	-10.6	6	0	991.8	NA	0.0000		9999	1940	0	0	0
2019/05/28 17:51:04	BASE	8.13	221	9.52	228	-7.7	80	-10.6	6	0	991.7	NA	0.0000		9999	2000	0	0	0
2019/05/28 17:52:04	BASE	8.29	220	9.52	228	-7.7	80	-10.5	6	0	991.7	NA	0.0000		9999	1970	0	0	0
2019/05/28 17:53:05	BASE	7.53	218	9.52	228	-7.7	80	-10.5	6	0	991.7	NA	0.0000		9999	2170	2690	0	0
2019/05/28 17:54:05	BASE	6.88	223	9.52	228	-7.7	80	-10.6	6	0	991.7	NA	0.0000		9999	2100	0	0	0
2019/05/28 17:55:03	BASE	6.58	221	9.52	228	-7.7	79	-10.6	6	0	991.8	NA	0.0000		9999	2260	0	0	0
2019/05/28 17:56:04	BASE	7.36	221	9.52	228	-7.7	79	-10.7	6	0	991.8	NA	0.0000		9999	2100	0	0	0
2019/05/28 17:57:04	BASE	8.40	230	9.88	234	-7.7	79	-10.7	6	0	991.8	NA	0.0000		9999	2030	0	0	0
2019/05/28 17:58:04	BASE	7.30	226	9.88	234	-7.7	79	-10.7	6	0	991.8	NA	0.0000		9999	2130	0	0	0
2019/05/28 17:59:03	BASE	5.28	217	9.88	234	-7.7	79	-10.7	6	0	991.8	NA	0.0000		9999	1940	0	0	0
2019/05/28 18:00:04	BASE	3.87	216	9.88	234	-7.8	79	-10.8	6	0	991.8	NA	0.0000		9999	1970	0	0	0
2019/05/28 18:01:03	BASE	3.57	222	9.88	234	-7.8	79	-10.8	6	0	991.8	NA	0.0000		9999	1900	0	0	0
2019/05/28 18:02:03	BASE	4.14	228	9.88	234	-7.8	78	-10.9	6	0	991.8	NA	0.0000		9999	1940	0	0	0
2019/05/28 18:03:03	BASE	5.13	232	9.88	234	-7.7	78	-10.9	6	0	991.7	NA	0.0000		9999	1900	0	0	0
2019/05/28 18:04:03	BASE	5.76	238	9.88	234	-7.7	78	-10.9	6	0	991.7	NA	0.0000		9999	2100	0	0	0
2019/05/28 18:05:04	BASE	5.68	239	9.88	234	-7.7	78	-10.9	6	0	991.7	NA	0.0000		9999	2030	0	0	0
2019/05/28 18:06:04	BASE	5.55	232	9.88	234	-7.7	78	-10.8	5	0	991.7	NA	0.0000		9999	2070	0	0	0
2019/05/28 18:07:04	BASE	5.88	224	7.46	214	-7.7	78	-10.8	5	0	991.7	NA	0.0000		9999	2360	0	0	0
2019/05/28 18:08:04	BASE	7.07	224	8.08	223	-7.7	78	-10.8	5	0	991.7	NA	0.0000		9999	2100	2660	0	0
2019/05/28 18:09:04	BASE	7.31	228	8.08	223	-7.6	78	-10.8	5	0	991.6	NA	0.0000		9999	1940	0	0	0
2019/05/28 18:10:01	BASE	7.16	234	8.13	237	-7.6	78	-10.8	5	0	991.6	NA	0.0000		9999	2100	0	0	0
2019/05/28 18:11:04	BASE	7.14	238	8.13	237	-7.6	78	-10.7	5	0	991.6	NA	0.0000		9999	1970	0	0	0
2019/05/28 18:12:05	BASE	6.57	238	8.13	237	-7.6	78	-10.8	5	0	991.6	NA	0.0000		9999	2130	0	0	0
2019/05/28 18:13:04	BASE	6.02	234	8.13	237	-7.6	78	-10.8	5	0	991.6	NA	0.0000		9999	2030	0	0	0
2019/05/28 18:14:04	BASE	5.89	226	8.13	237	-7.5	77	-10.8	5	0	991.6	NA	0.0000		9999	1970	0	0	0
2019/05/28 18:15:04	BASE	7.29	220	10.08	223	-7.5	77	-10.9	4	0	991.6	NA	0.0000		9999	2070	0	0	0
2019/05/28 18:16:04	BASE	9.16	222	10.08	229	-7.5	77	-10.8	4	0	991.6	NA	0.0000		9999	2170	0	0	0
2019/05/28 18:17:04	BASE	9.20	228	10.08	229	-7.5	77	-10.8	4	0	991.6	NA	0.0000		9999	2200	0	0	0
2019/05/28 18:18:04	BASE	8.07	231	10.08	229	-7.5	78	-10.8	4	0	991.6	NA	0.0000		9999	1940	0	0	0
2019/05/28 18:19:04	BASE	6.34	237	10.08	229	-7.5	78	-10.7	4	0	991.7	NA	0.0000		9999	1940	0	0	0
2019/05/28 18:20:03	BASE	5.93	234	10.08	229	-7.6	78	-10.7	4	0	991.7	NA	0.0000		9999	2030	0	0	0
2019/05/28 18:21:04	BASE	6.40	226	10.08	229	-7.6	78	-10.8	4	0	991.7	NA	0.0000		9999	2100	0	0	0
2019/05/28 18:22:04	BASE	6.28	216	10.08	229	-7.6	78	-10.8	4	0	991.7	NA	0.0000		9999	1940	0	0	0
2019/05/28 18:23:04	BASE	7.54	210	10.55	227	-7.5	78	-10.7	4	0	991.6	NA	0.0000		9999	1900	0	0	0
2019/05/28 18:24:04	BASE	8.76	214	10.55	227	-7.5	78	-10.7	3	0	991.6	NA	0.0000		9999	1870	0	0	0
2019/05/28 18:25:04	BASE	8.42	219	10.55	227	-7.5	78	-10.7	3	0	991.6	NA	0.0000		9999	1900	0	0	0
2019/05/28 18:26:04	BASE	8.62	215	10.91	219	-7.5	78	-10.6	3	0	991.6	NA	0.0000		9999	1940	0	0	0
2019/05/28 18:27:04	BASE	8.95	209	10.91	219	-7.4	78	-10.5	3	0	991.6	NA	0.0000		9999	1870	0	0	0
2019/05/28 18:28:04	BASE	9.06	210	10.91	219	-7.4	79	-10.5	3	0	991.6	NA	0.0000		9999	1970	0	0	0
2019/05/28 18:29:04	BASE	8.57	210	10.91	219	-7.4	79	-10.5	3	0	991.7	NA	0.0000		9999	1940	0	0	0
2019/05/28 18:30:04	BASE	6.79	212	10.91	219	-7.4	79	-10.4	3	0	991.7	NA	0.0000		9999	1870	0	0	0
2019/05/28 18:31:04	BASE	5.47	218	10.91	219	-7.4	79	-10.4	3	0	991.7	NA	0.0000		9999	1900	0	0	0
2019/05/28 18:32:04	BASE	5.27	215	10.91	219	-7.5	79	-10.5	3	0	991.7	NA	0.0000		9999	1840	0	0	0
2019/05/28 18:33:04	BASE	7.19	213	12.71	229	-7.5	79	-10.5	3	0	991.7	NA	0.0000		9999	1900	0	0	0
2019/05/28 18:34:04	BASE	10.07	223	12.71	229	-7.5	79	-10.5	3	0	991.7	NA	0.0000		9999	1870	0	0	0
2019/05/28 18:35:04	BASE	9.73	225	12.71	229	-7.5	79	-10.5	3	0	991.7	NA	0.0000		9999	1870	0	0	0
2019/05/28 18:36:04	BASE	8.08	225	12.71	229	-7.5	79	-10.6	3	0	991.8	NA	0.0000		9999	1800	0	0	0
2019/05/28 18:37:04	BASE	8.43	228	12.71	229	-7.6	79	-10.6	3	0	991.8	NA	0.0000		9999	1870	0	0	0
2019/05/28 18:38:05	BASE	8.86	231	12.71	229	-7.6	79	-10.6	3	0	991.8	NA	0.0000		9999	2030	0	0	0
2019/05/28 18:39:03	BASE	8.63	226	12.71	229	-7.6	79	-10.6	2	0	991.8	NA	0.0000		9999	1900	0	0	0
2019/05/28 18:40:03	BASE	7.63	218	12.71	229	-7.6	79	-10.6	2	0	991.8	NA	0.0000		9999	2000	0	0	0
2019/05/28 18:41:04	BASE	6.88	213	12.71	229	-7.6	79	-10.6	2	0	991.8	NA	0.0000		9999	1940	0	0	0
2019/05/28 18:42:04	BASE	7.58	215	12.71	229	-7.6	79	-10.6	2	0	991.8	NA	0.0000		9999	1900	0	0	0
2019/05/28 18:43:04	BASE	9.11	225	12.04	233	-7.6	79	-10.6	2	0	991.7	NA	0.0000		9999	2000	0	0	0
2019/05/28 18:44:04	BASE	10.01	234	11.11	234	-7.6	79	-10.6	2	0	991.8	NA	0.0000		9999	1940	0	0	0
2019/05/28 18:45:04	BASE	9.11	238	11.11	234	-7.5	79	-10.5	2	0	991.8	NA	0.0000		9999	2000	0	0	0
2019/05/28 18:46:04	BASE	7.93	233	11.11	234	-7.5	79	-10.5	2	0	991.8	NA	0.0000		9999	1840	0	0	0
2019/05/28 18:47:05	BASE	6.72	229	11.11	234	-7.5	79	-10.5	2	0	991.7	NA	0.0000		9999	1900	0	0	0
2019/05/28 18:48:04	BASE	5.36	238	11.11	234	-7.5	79	-10.6	2	0	991.7	NA	0.0000		9999	1840	0	0	0
2019/05/28 18:49:05	BASE	5.87	248	11.11	234	-7.6	79	-10.6	2	0	991.7	NA	0.0000		9999	1800	0	0	0
2019/05/28 18:50:04	BASE	7.25	251	11.11	234	-7.6	79	-10.6	2	0	991.7	NA	0.0000		9999	1940	0	0	0
2019/05/28 18:51:04	BASE	7.20	251	11.11	234	-7.6	79	-10.6	2	0	991.8	NA	0.0000		9999	1840	0	0	0
2019/05/28 18:52:04	BASE	6.40	246	11.11	234	-7.6	79	-10.6	2	0	991.8	NA	0.0000		9999	1840	0	0	0
2019/05/28 18:53:04	BASE	6.00	239	11.11	234	-7.6	79	-10.6	2	0	991.8	NA	0.0000		9999	1870	0	0	0
2019/05/28 18:54:04	BASE	7.76	229	10.13	221	-7.6	79	-10.6	2	0	991.8	NA	0.0000		9999	1970	0	0	0
2019/05/28 18:55:04	BASE	9.92	223	11.01	225	-7.6	79	-10.5	2	0	991.7	NA	0.0000		9999	1870	0	0	0
2019/05/28 18:56:04	BASE	9.42	226	11.01	225	-7.6	80	-10.5	2	0	991.7	NA	0.0000		9999	1870	0	0	0
2019/05/28 18:57:04	BASE	8.11	225	11.01	225	-7.5	80	-10.4	1	0	991.7	NA	0.0000		9999	2000	0	0	0
2019/05/28 18:58:04	BASE	7.79	223	11.01	225	-7.5	80	-10.4	1	0	991.7	NA	0.0000		9999	1970	0	0	0
2019/05/28 18:59:03	BASE	7.44	227	11.01	225	-7.5	80	-10.4	1	0	991.7	NA	0.0000		9999	2000	0	0	0
2019/05/28 19:00:03	BASE	6.74	229	11.01	225	-7.5	80	-10.5	1	0	991.7	NA	0.0000		9999	1940	0	0	0
2019/05/28 19:01:04	BASE	7.46	226	11.01	225	-7.6	79	-10.5	1	0	991.7	NA	0.0000		9999	1970	0	0	0
2019/05/28 19:02:06	BASE	8.93	228	11.01	225	-7.6	79	-10.6	1	0	991.7	NA	0.0000		9999	1970	0	0	0
2019/05/28 19:03:04	BASE	8.71	233	11.01	225	-7.6	79	-10.6	1	0	991.8	NA	0.0000		9999	0	0	0	0
2019/05/28 19:04:04	BASE	7.82	228	11.01	225	-7.6	79	-10.6	1	0	991.8	NA	0.0000		9999	2030	0	0	0
2019/05/28 19:05:04	BASE	6.98	229	10.80	245	-7.6	79	-10.6	1	0	991.8	NA	0.0000		9999	2100	0	0	0
2019/05/28 19:06:04	BASE	5.98	240	10.80	245	-7.6	79	-10.6	1	0	991.9	NA	0.0000		9999	1800	0	0	0
2019/05/28 19:07:04	BASE	6.13	247	10.80	245	-7.6	79	-10.6	1	0	991.9	NA	0.0000		9999	1870	0	0	0
2019/05/28 19:08:04	BASE	6.40	242	10.80	245	-7.6	79	-10.6	1	0	992.0	NA	0.0000		9999	1870	0	0	0
2019/05/28 19:09:06	BASE	6.43	224	10.80	245	-7.6	79	-10.6	1	0	991.9	NA	0.0000		9999	1870	0	0	0
2019/05/28 19:10:01	BASE	7.16	219	10.80	245	-7.6	79	-10.5	1	0	991.8	NA	0.0000		9999	1710	0	0	0
2019/05/28 19:11:03	BASE	7.13	232	10.80	245	-7.5	79	-10.5	1	0	991.8	NA	0.0000		9999	1900	0	0	0
2019/05/28 19:12:04	BASE	6.15	240	10.80	245	-7.5	80	-10.4	1	0	991.8	NA	0.0000		9999	1870	0	0	0
2019/05/28 19:13:04	BASE	5.20	238	9.41	226	-7.5	80	-10.4	1	0	991.8	NA	0.0000		9999	1770	0	0	0
2019/05/28 19:14:04	BASE	7.27	230	11.68	225	-7.6	80	-10.4	1	0	991.8	NA	0.0000		9999	1900	0	0	0
2019/05/28 19:15:04	BASE	10.05	229	12.24	233	-7.6	80	-10.4	1	0	991.8	NA	0.0000		9999	1870	0	0	0
2019/05/28 19:16:04	BASE	10.03	232	12.24	233	-7.6	80	-10.5	1	0	991.8	NA	0.0000		9999	1870	0	0	0
2019/05/28 19:17:04	BASE	9.73	237	12.24	233	-7.6	80	-10.5	0	0	991.8	NA	0.0000		9999	1870	0	0	0
2019/05/28 19:18:04	BASE	9.58	245	12.24	233	-7.6	80	-10.5	0	0	991.8	NA	0.0000		9999	2030	2530	0	0
2019/05/28 19:19:04	BASE	8.36	245	12.24	233	-7.7	80	-10.6	0	0	991.8	NA	0.0000		9999	1970	0	0	0
2019/05/28 19:20:04	BASE	6.55	240	12.24	233	-7.7	80	-10.6	0	0	991.8	NA	0.0000		9999	1800	0	0	0
2019/05/28 19:21:04	BASE	5.53	244	12.24	233	-7.8	79	-10.7	0	0	991.8	NA	0.0000		9999	1970	0	0	0
2019/05/28 19:22:04	BASE	4.95	251	12.24	233	-7.8	79	-10.8	0	0	991.8	NA	0.0000		9999	2000	0	0	0
2019/05/28 19:23:04	BASE	4.57	255	12.24	233	-7.8	79	-10.8	0	0	991.8	NA	0.0000		9999	1940	0	0	0
2019/05/28 19:24:04	BASE	6.34	250	12.24	233	-7.8	79	-10.8	0	0	991.8	NA	0.0000		9999	1940	0	0	0
2019/05/28 19:25:04	BASE	7.74	247	11.01	242	-7.7	79	-10.7	0	0	991.9	NA	0.0000		9999	2000	0	0	0
2019/05/28 19:26:05	BASE	7.91	253	11.01	242	-7.7	79	-10.7	0	0	991.9	NA	0.0000		9999	1870	0	0	0
2019/05/28 19:27:04	BASE	8.65	253	10.24	250	-7.7	79	-10.7	0	0	991.9	NA	0.0000		9999	2000	0	0	0
2019/05/28 19:28:05	BASE	8.53	252	10.24	250	-7.7	79	-10.7	0	0	991.9	NA	0.0000		9999	2200	0	0	0
2019/05/28 19:29:04	BASE	7.38	252	10.24	250	-7.7	79	-10.7	0	0	992.0	NA	0.0000		9999	1870	0	0	0
2019/05/28 19:30:04	BASE	6.86	257	10.24	250	-7.7	79	-10.7	0	0	991.9	NA	0.0000		9999	1800	0	0	0
2019/05/28 19:31:05	BASE	6.63	263	10.24	250	-7.7	79	-10.6	0	0	991.9	NA	0.0000		9999	1840	0	0	0
2019/05/28 19:32:04	BASE	7.01	253	10.24	250	-7.7	80	-10.6	0	0	991.9	NA	0.0000		9999	1870	0	0	0
2019/05/28 19:33:03	BASE	8.96	231	11.01	221	-7.6	80	-10.5	0	0	992.0	NA	0.0000		9999	1870	0	0	0
2019/05/28 19:34:05	BASE	10.63	219	12.50	213	-7.6	80	-10.4	0	0	991.9	NA	0.0000		9999	1900	0	0	0
2019/05/28 19:35:04	BASE	11.26	222	12.50	213	-7.5	80	-10.4	0	0	992.0	NA	0.0000		9999	1770	0	0	0
2019/05/28 19:36:04	BASE	10.80	229	12.50	213	-7.5	80	-10.4	0	0	992.0	NA	0.0000		9999	1870	0	0	0
2019/05/28 19:37:05	BASE	8.73	230	12.50	213	-7.5	80	-10.4	0	0	992.0	NA	0.0000		9999	1770	0	0	0
2019/05/28 19:38:05	BASE	7.24	219	12.50	213	-7.5	80	-10.4	0	0	992.0	NA	0.0000		9999	1800	0	0	0
2019/05/28 19:39:03	BASE	9.36	219	13.17	221	-7.5	80	-10.4	0	0	991.9	NA	0.0000		9999	1870	0	0	0
2019/05/28 19:40:04	BASE	11.34	223	13.17	221	-7.6	80	-10.4	0	0	992.0	NA	0.0000		9999	1940	0	0	0
2019/05/28 19:41:05	BASE	11.38	221	13.17	221	-7.6	80	-10.4	0	0	991.9	NA	0.0000		9999	1900	0	0	0
2019/05/28 19:42:04	BASE	11.63	219	13.17	221	-7.6	80	-10.4	0	0	992.0	NA	0.0000		9999	1870	0	0	0
2019/05/28 19:43:03	BASE	9.95	218	13.17	221	-7.6	80	-10.4	0	0	992.1	NA	0.0000		9999	2100	0	0	0
2019/05/28 19:44:04	BASE	7.34	221	13.17	221	-7.6	80	-10.5	0	0	992.1	NA	0.0000		9999	2000	0	0	0
2019/05/28 19:45:04	BASE	6.13	225	13.17	221	-7.6	80	-10.5	0	0	992.0	NA	0.0000		9999	1900	0	0	0
2019/05/28 19:46:05	BASE	4.79	230	13.17	221	-7.7	80	-10.5	0	0	992.0	NA	0.0000		9999	1940	0	0	0
2019/05/28 19:47:04	BASE	5.89	231	13.17	221	-7.7	80	-10.5	0	0	992.0	NA	0.0000		9999	1940	0	0	0
2019/05/28 19:48:04	BASE	9.02	227	13.17	221	-7.6	80	-10.5	0	0	992.0	NA	0.0000		9999	1840	0	0	0
2019/05/28 19:49:04	BASE	9.98	225	12.91	220	-7.6	80	-10.5	0	0	992.0	NA	0.0000		9999	1870	0	0	0
2019/05/28 19:50:04	BASE	9.18	239	12.91	220	-7.6	80	-10.5	0	0	992.0	NA	0.0000		9999	1900	0	0	0
2019/05/28 19:51:03	BASE	7.87	249	12.91	220	-7.6	80	-10.5	0	0	992.0	NA	0.0000		9999	1870	0	0	0
2019/05/28 19:52:04	BASE	6.85	244	11.68	228	-7.6	80	-10.5	0	0	992.0	NA	0.0000		9999	1870	0	0	0
2019/05/28 19:53:04	BASE	6.07	235	11.68	228	-7.7	80	-10.5	0	0	992.0	NA	0.0000		9999	1840	0	0	0
2019/05/28 19:54:04	BASE	6.02	231	11.68	228	-7.7	80	-10.5	0	0	992.0	NA	0.0000		9999	1870	0	0	0
2019/05/28 19:55:04	BASE	6.26	229	11.68	228	-7.7	80	-10.5	0	0	992.0	NA	0.0000		9999	1870	0	0	0
2019/05/28 19:56:04	BASE	5.77	234	11.68	228	-7.7	80	-10.5	0	0	992.0	NA	0.0000		9999	1870	0	0	0
2019/05/28 19:57:04	BASE	5.90	241	11.68	228	-7.7	80	-10.5	0	0	992.0	NA	0.0000		9999	1840	0	0	0
2019/05/28 19:58:04	BASE	6.64	238	10.55	230	-7.7	80	-10.5	0	0	992.0	NA	0.0000		9999	1800	0	0	0
2019/05/28 19:59:04	BASE	7.14	242	9.88	236	-7.6	80	-10.5	0	0	992.0	NA	0.0000		9999	1840	0	0	0
2019/05/28 20:00:04	BASE	7.96	250	9.72	249	-7.6	80	-10.5	0	0	992.0	NA	0.0000		9999	1800	0	0	0
2019/05/28 20:01:03	BASE	8.47	247	9.72	249	-7.6	80	-10.4	0	0	992.0	NA	0.0000		9999	1840	0	0	0
2019/05/28 20:02:04	BASE	8.91	246	12.30	248	-7.6	80	-10.4	0	0	992.0	NA	0.0000		9999	1900	0	0	0
2019/05/28 20:03:04	BASE	9.80	245	12.30	248	-7.6	80	-10.4	0	0	992.0	NA	0.0000		9999	1840	0	0	0
2019/05/28 20:04:04	BASE	10.18	240	12.30	248	-7.6	80	-10.4	0	0	992.0	NA	0.0000		9999	1870	0	0	0
2019/05/28 20:05:04	BASE	9.02	242	12.30	248	-7.6	80	-10.4	0	0	992.0	NA	0.0000		9999	1840	0	0	0
2019/05/28 20:06:04	BASE	8.03	250	12.30	248	-7.7	80	-10.5	0	0	992.0	NA	0.0000		9999	1740	0	0	0
2019/05/28 20:07:04	BASE	9.14	251	12.30	248	-7.7	81	-10.5	0	0	992.0	NA	0.0000		9999	1840	0	0	0
2019/05/28 20:08:04	BASE	9.12	249	12.30	248	-7.7	80	-10.5	0	0	992.0	NA	0.0000		9999	1870	0	0	0
2019/05/28 20:09:04	BASE	8.05	247	12.30	248	-7.8	80	-10.6	0	0	992.0	NA	0.0000		9999	0	0	0	0
2019/05/28 20:10:01	BASE	6.88	248	12.30	248	-7.8	80	-10.6	0	0	992.0	NA	0.0000		9999	0	0	0	0
2019/05/28 20:11:04	BASE	6.14	258	12.30	248	-7.8	80	-10.7	0	0	991.9	NA	0.0000		9999	1740	0	0	0
2019/05/28 20:12:06	BASE	7.11	260	11.21	240	-7.8	80	-10.7	0	0	991.9	NA	0.0000		9999	1770	0	0	0
2019/05/28 20:13:04	BASE	8.12	252	11.11	244	-7.8	80	-10.6	0	0	991.9	NA	0.0000		9999	1840	0	0	0
2019/05/28 20:14:05	BASE	8.00	249	10.65	253	-7.7	80	-10.6	0	0	991.9	NA	0.0000		9999	1870	0	0	0
2019/05/28 20:15:04	BASE	8.33	245	10.70	245	-7.7	80	-10.6	0	0	991.8	NA	0.0000		9999	1940	0	0	0
2019/05/28 20:16:04	BASE	9.03	241	10.70	245	-7.7	80	-10.5	0	0	991.8	NA	0.0000		9999	1900	0	0	0
2019/05/28 20:17:04	BASE	7.72	244	10.70	245	-7.7	80	-10.5	0	0	991.8	NA	0.0000		9999	1840	0	0	0
2019/05/28 20:18:04	BASE	5.85	253	10.70	245	-7.7	80	-10.5	0	0	991.8	NA	0.0000		9999	1840	0	0	0
2019/05/28 20:19:03	BASE	6.48	254	10.70	245	-7.7	80	-10.6	0	0	991.8	NA	0.0000		9999	1900	0	0	0
2019/05/28 20:20:04	BASE	7.82	247	10.70	245	-7.7	80	-10.6	0	0	991.8	NA	0.0000		9999	1870	0	0	0
2019/05/28 20:21:03	BASE	7.71	244	10.70	245	-7.7	80	-10.6	0	0	991.8	NA	0.0000		9999	1940	0	0	0
2019/05/28 20:22:04	BASE	8.30	245	10.70	245	-7.7	80	-10.6	0	0	991.8	NA	0.0000		9999	1900	0	0	0
2019/05/28 20:23:03	BASE	8.84	243	10.70	245	-7.7	80	-10.6	0	0	991.8	NA	0.0000		9999	1940	0	0	0
2019/05/28 20:24:04	BASE	9.11	241	10.70	245	-7.7	80	-10.6	0	0	991.8	NA	0.0000		9999	0	0	0	0
2019/05/28 20:25:04	BASE	8.86	243	10.60	250	-7.7	80	-10.6	0	0	991.8	NA	0.0000		9999	0	0	0	0
2019/05/28 20:26:04	BASE	7.65	241	10.60	250	-7.8	80	-10.6	0	0	991.8	NA	0.0000		9999	0	0	0	0
2019/05/28 20:27:04	BASE	6.86	234	10.60	250	-7.8	80	-10.7	0	0	991.8	NA	0.0000		9999	0	0	0	0
2019/05/28 20:28:04	BASE	7.42	230	11.52	236	-7.8	80	-10.7	0	0	991.8	NA	0.0000		9999	2070	0	0	0
2019/05/28 20:29:03	BASE	8.36	230	11.52	236	-7.9	80	-10.7	0	0	991.8	NA	0.0000		9999	2070	0	0	0
2019/05/28 20:30:03	BASE	7.83	230	11.52	236	-7.9	80	-10.7	0	0	991.9	NA	0.0000		9999	1800	0	0	0
2019/05/28 20:31:04	BASE	7.23	231	11.52	236	-7.8	80	-10.7	0	0	991.9	NA	0.0000		9999	1770	0	0	0
2019/05/28 20:32:04	BASE	6.67	237	11.52	236	-7.8	80	-10.7	0	0	992.0	NA	0.0000		9999	1870	0	0	0
2019/05/28 20:33:03	BASE	6.21	237	11.52	236	-7.8	80	-10.7	0	0	992.0	NA	0.0000		9999	1900	0	0	0
2019/05/28 20:34:04	BASE	6.25	241	11.52	236	-7.8	80	-10.7	0	0	992.0	NA	0.0000		9999	1940	0	0	0
2019/05/28 20:35:04	BASE	6.50	253	11.52	236	-7.8	80	-10.7	0	0	992.0	NA	0.0000		9999	1940	0	0	0
2019/05/28 20:36:04	BASE	6.43	265	11.52	236	-7.8	80	-10.7	0	0	992.0	NA	0.0000		9999	1970	0	0	0
2019/05/28 20:37:03	BASE	5.63	265	11.52	236	-7.8	80	-10.7	0	0	992.0	NA	0.0000		9999	1940	0	0	0
2019/05/28 20:38:04	BASE	5.77	250	10.44	233	-7.8	80	-10.7	0	0	992.0	NA	0.0000		9999	1840	0	0	0
2019/05/28 20:39:03	BASE	7.78	229	11.27	217	-7.9	80	-10.7	0	0	992.0	NA	0.0000		9999	1840	0	0	0
2019/05/28 20:40:04	BASE	8.82	227	12.55	224	-7.9	80	-10.7	0	0	992.0	NA	0.0000		9999	1870	0	0	0
2019/05/28 20:41:03	BASE	7.43	231	12.55	224	-7.9	80	-10.7	0	0	992.1	NA	0.0000		9999	1640	2030	0	0
2019/05/28 20:42:04	BASE	6.43	228	12.55	224	-7.9	80	-10.7	0	0	992.1	NA	0.0000		9999	1710	0	0	0
2019/05/28 20:43:03	BASE	5.84	223	12.55	224	-7.9	80	-10.7	0	0	992.1	NA	0.0000		9999	1800	0	0	0
2019/05/28 20:44:03	BASE	4.38	219	12.55	224	-7.9	80	-10.7	0	0	992.1	NA	0.0000		9999	1840	0	0	0
2019/05/28 20:45:04	BASE	3.82	225	12.55	224	-7.9	80	-10.7	0	0	992.1	NA	0.0000		9999	1800	0	0	0
2019/05/28 20:46:04	BASE	5.15	230	12.55	224	-7.8	80	-10.7	0	0	992.1	NA	0.0000		9999	1740	0	0	0
2019/05/28 20:47:03	BASE	8.10	232	12.55	224	-7.8	80	-10.7	0	0	992.0	NA	0.0000		9999	1740	0	0	0
2019/05/28 20:48:04	BASE	10.35	229	12.55	224	-7.8	80	-10.7	0	0	992.0	NA	0.0000		9999	1770	0	0	0
2019/05/28 20:49:03	BASE	10.72	230	12.55	224	-7.8	80	-10.7	0	0	992.0	NA	0.0000		9999	1840	0	0	0
2019/05/28 20:50:04	BASE	9.77	239	11.78	232	-7.8	80	-10.6	0	0	992.0	NA	0.0000		9999	1770	0	0	0
2019/05/28 20:51:04	BASE	8.36	251	11.78	232	-7.8	80	-10.6	0	0	992.1	NA	0.0000		9999	1740	0	0	0
2019/05/28 20:52:04	BASE	6.94	259	11.78	232	-7.8	80	-10.6	0	0	992.1	NA	0.0000		9999	1800	0	0	0
2019/05/28 20:53:04	BASE	5.74	257	11.78	232	-7.8	80	-10.7	0	0	992.1	NA	0.0000		9999	1840	0	0	0
2019/05/28 20:54:04	BASE	4.98	238	11.78	232	-7.8	80	-10.7	0	0	992.1	NA	0.0000		9999	1770	0	0	0
2019/05/28 20:55:04	BASE	4.53	229	11.78	232	-7.8	80	-10.7	0	0	992.1	NA	0.0000		9999	1710	0	0	0
2019/05/28 20:56:04	BASE	5.05	234	11.78	232	-7.8	80	-10.6	0	0	992.1	NA	0.0000		9999	1740	0	0	0
2019/05/28 20:57:04	BASE	4.87	236	11.78	232	-7.8	81	-10.6	0	0	992.1	NA	0.0000		9999	1740	0	0	0
2019/05/28 20:58:04	BASE	4.15	249	11.78	232	-7.8	81	-10.6	0	0	992.1	NA	0.0000		9999	1710	0	0	0
2019/05/28 20:59:03	BASE	3.71	252	10.19	238	-7.8	81	-10.5	0	0	992.1	NA	0.0000		9999	1770	0	0	0
2019/05/28 21:00:04	BASE	3.36	246	9.21	254	-7.8	81	-10.5	0	0	992.1	NA	0.0000		9999	1770	0	0	0
2019/05/28 21:01:03	BASE	3.73	239	7.51	273	-7.8	81	-10.5	0	0	992.1	NA	0.0000		9999	1940	2460	0	0
2019/05/28 21:02:05	BASE	6.15	228	9.26	227	-7.8	81	-10.5	0	0	992.1	NA	0.0000		9999	1840	0	0	0
2019/05/28 21:03:04	BASE	7.30	225	9.26	227	-7.8	81	-10.5	0	0	992.2	NA	0.0000		9999	1840	0	0	0
2019/05/28 21:04:04	BASE	6.27	223	9.26	227	-7.8	81	-10.5	0	0	992.2	NA	0.0000		9999	1900	0	0	0
2019/05/28 21:05:04	BASE	5.42	213	9.26	227	-7.8	81	-10.5	0	0	992.2	NA	0.0000		9999	1800	0	0	0
2019/05/28 21:06:04	BASE	4.27	196	9.26	227	-7.8	81	-10.5	0	0	992.2	NA	0.0000		9999	1770	0	0	0
2019/05/28 21:07:04	BASE	3.67	199	9.26	227	-7.8	81	-10.5	0	0	992.2	NA	0.0000		9999	1740	0	0	0
2019/05/28 21:08:04	BASE	4.59	210	9.26	227	-7.8	81	-10.5	0	0	992.2	NA	0.0000		9999	1800	0	0	0
2019/05/28 21:09:06	BASE	5.85	214	9.26	227	-7.8	81	-10.5	0	0	992.1	NA	0.0000		9999	1770	0	0	0
2019/05/28 21:10:00	BASE	8.19	220	11.78	222	-7.7	81	-10.4	0	0	992.1	NA	0.0000		9999	1770	0	0	0
2019/05/28 21:11:04	BASE	9.94	221	11.78	222	-7.7	81	-10.4	0	0	992.1	NA	0.0000		9999	1740	0	0	0
2019/05/28 21:12:04	BASE	9.70	217	11.78	222	-7.6	81	-10.3	0	0	992.1	NA	0.0000		9999	1740	0	0	0
2019/05/28 21:13:05	BASE	9.27	220	11.78	222	-7.6	81	-10.3	0	0	992.1	NA	0.0000		9999	1740	0	0	0
2019/05/28 21:14:04	BASE	8.58	217	11.78	222	-7.6	81	-10.3	0	0	992.1	NA	0.0000		9999	1710	0	0	0
2019/05/28 21:15:04	BASE	7.93	211	11.78	222	-7.7	81	-10.4	0	0	992.1	NA	0.0000		9999	1770	0	0	0
2019/05/28 21:16:04	BASE	7.79	216	11.78	222	-7.7	81	-10.3	0	0	992.1	NA	0.0000		9999	1800	0	0	0
2019/05/28 21:17:04	BASE	8.72	221	11.78	222	-7.6	81	-10.3	0	0	992.1	NA	0.0000		9999	1800	0	0	0
2019/05/28 21:18:04	BASE	9.61	218	11.78	222	-7.6	82	-10.2	0	0	992.1	NA	0.0000		9999	1870	0	0	0
2019/05/28 21:19:04	BASE	11.21	221	13.94	227	-7.6	82	-10.2	0	0	992.1	NA	0.0000		9999	1870	0	0	0
2019/05/28 21:20:04	BASE	10.57	225	13.94	227	-7.7	82	-10.2	0	0	992.2	NA	0.0000		9999	2030	0	0	0
2019/05/28 21:21:03	BASE	9.07	216	13.94	227	-7.7	82	-10.3	0	0	992.2	NA	0.0000		9999	1970	0	0	0
2019/05/28 21:22:04	BASE	8.58	206	13.94	227	-7.8	82	-10.4	0	0	992.2	NA	0.0000		9999	2000	0	0	0
2019/05/28 21:23:03	BASE	7.53	204	13.94	227	-7.9	81	-10.5	0	0	992.2	NA	0.0000		9999	1970	0	0	0
2019/05/28 21:24:04	BASE	7.28	199	13.94	227	-7.9	81	-10.6	0	0	992.2	NA	0.0000		9999	2070	0	0	0
2019/05/28 21:25:03	BASE	7.83	203	13.94	227	-8.0	81	-10.6	0	0	992.2	NA	0.0000		9999	2100	0	0	0
2019/05/28 21:26:04	BASE	7.88	229	13.94	227	-8.0	81	-10.7	0	0	992.2	NA	0.0000		9999	2070	0	0	0
2019/05/28 21:27:03	BASE	7.17	247	13.94	227	-8.0	81	-10.7	0	0	992.2	NA	0.0000		9999	1940	0	0	0
2019/05/28 21:28:04	BASE	6.14	248	13.94	227	-8.0	81	-10.7	0	0	992.2	NA	0.0000		9999	2030	0	0	0
2019/05/28 21:29:03	BASE	4.83	244	10.70	225	-8.1	81	-10.7	0	0	992.2	NA	0.0000		9999	1900	0	0	0
2019/05/28 21:30:03	BASE	4.28	234	10.70	225	-8.1	81	-10.8	0	0	992.2	NA	0.0000		9999	2030	0	0	0
2019/05/28 21:31:03	BASE	4.09	229	10.70	225	-8.1	81	-10.8	0	0	992.2	NA	0.0000		9999	1900	0	0	0
2019/05/28 21:32:04	BASE	3.74	231	10.70	225	-8.0	80	-10.8	0	0	992.2	NA	0.0000		9999	1900	0	0	0
2019/05/28 21:33:03	BASE	5.75	231	10.70	225	-8.0	80	-10.8	0	0	992.1	NA	0.0000		9999	1900	0	0	0
2019/05/28 21:34:04	BASE	8.48	227	10.70	225	-7.9	80	-10.7	0	0	992.1	NA	0.0000		9999	1900	0	0	0
2019/05/28 21:35:04	BASE	8.91	222	10.44	233	-7.9	80	-10.7	0	0	992.1	NA	0.0000		9999	1800	0	0	0
2019/05/28 21:36:04	BASE	7.70	220	10.44	233	-7.8	80	-10.7	0	0	992.1	NA	0.0000		9999	1870	0	0	0
2019/05/28 21:37:03	BASE	6.80	224	10.44	233	-7.8	80	-10.6	0	0	992.1	NA	0.0000		9999	1840	0	0	0
2019/05/28 21:38:04	BASE	7.12	238	10.55	254	-7.8	80	-10.6	0	0	992.1	NA	0.0000		9999	1900	0	0	0
2019/05/28 21:39:03	BASE	6.39	246	10.55	254	-7.9	80	-10.7	0	0	992.2	NA	0.0000		9999	1900	0	0	0
2019/05/28 21:40:03	BASE	6.34	238	10.55	254	-7.9	80	-10.8	0	0	992.1	NA	0.0000		9999	1900	0	0	0
2019/05/28 21:41:04	BASE	6.21	223	10.55	254	-7.9	80	-10.8	0	0	992.1	NA	0.0000		9999	1840	0	0	0
2019/05/28 21:42:04	BASE	5.07	210	10.55	254	-7.9	80	-10.8	0	0	992.1	NA	0.0000		9999	1870	0	0	0
2019/05/28 21:43:03	BASE	4.82	207	10.55	254	-7.9	80	-10.8	0	0	992.1	NA	0.0000		9999	1770	0	0	0
2019/05/28 21:44:04	BASE	5.16	214	10.55	254	-7.9	80	-10.7	0	0	992.1	NA	0.0000		9999	1840	0	0	0
2019/05/28 21:45:04	BASE	4.88	229	10.55	254	-7.8	80	-10.7	0	0	992.1	NA	0.0000		9999	1840	0	0	0
2019/05/28 21:46:04	BASE	4.73	235	10.55	254	-7.8	80	-10.7	0	0	992.1	NA	0.0000		9999	1800	0	0	0
2019/05/28 21:47:03	BASE	4.64	232	10.55	254	-7.8	80	-10.6	0	0	992.1	NA	0.0000		9999	1870	0	0	0
2019/05/28 21:48:04	BASE	5.50	236	11.11	233	-7.8	80	-10.6	0	0	992.0	NA	0.0000		9999	1840	0	0	0
2019/05/28 21:49:04	BASE	9.16	233	12.40	233	-7.8	80	-10.6	0	0	992.0	NA	0.0000		9999	1870	0	0	0
2019/05/28 21:50:04	BASE	11.67	223	13.17	225	-7.8	80	-10.6	0	0	992.0	NA	0.0000		9999	1870	0	0	0
2019/05/28 21:51:04	BASE	10.74	220	13.17	225	-7.8	80	-10.6	0	0	992.0	NA	0.0000		9999	1840	0	0	0
2019/05/28 21:52:04	BASE	9.61	231	13.17	225	-7.8	81	-10.6	0	0	992.1	NA	0.0000		9999	1740	0	0	0
2019/05/28 21:53:04	BASE	9.22	238	13.17	225	-7.9	81	-10.6	0	0	992.1	NA	0.0000		9999	1840	2530	0	0
2019/05/28 21:54:04	BASE	8.11	240	13.17	225	-7.9	80	-10.7	0	0	992.1	NA	0.0000		9999	1800	0	0	0
2019/05/28 21:55:04	BASE	7.87	243	13.17	225	-7.9	80	-10.7	0	0	992.1	NA	0.0000		9999	1940	0	0	0
2019/05/28 21:56:04	BASE	8.03	243	13.17	225	-8.0	80	-10.8	0	0	992.2	NA	0.0000		9999	1970	0	0	0
2019/05/28 21:57:04	BASE	7.39	248	13.17	225	-8.0	80	-10.9	0	0	992.2	NA	0.0000		9999	2030	0	0	0
2019/05/28 21:58:04	BASE	7.07	246	13.17	225	-8.0	80	-10.9	0	0	992.2	NA	0.0000		9999	2000	0	0	0
2019/05/28 21:59:03	BASE	8.15	236	13.17	225	-8.0	80	-10.9	0	0	992.2	NA	0.0000		9999	1970	0	0	0
2019/05/28 22:00:04	BASE	9.13	235	12.24	226	-8.0	80	-10.8	0	0	992.2	NA	0.0000		9999	1940	0	0	0
2019/05/28 22:01:04	BASE	8.53	239	11.42	241	-8.0	80	-10.8	0	0	992.2	NA	0.0000		9999	1970	0	0	0
2019/05/28 22:02:05	BASE	7.50	240	11.16	235	-8.0	80	-10.8	0	0	992.2	NA	0.0000		9999	2030	0	0	0
2019/05/28 22:03:03	BASE	8.58	233	11.01	226	-7.9	80	-10.8	0	0	992.2	NA	0.0000		9999	1940	0	0	0
2019/05/28 22:04:04	BASE	10.19	224	11.01	220	-7.9	80	-10.8	0	0	992.1	NA	0.0000		9999	2070	0	0	0
2019/05/28 22:05:03	BASE	9.87	218	11.01	220	-7.9	80	-10.8	0	0	992.2	NA	0.0000		9999	2130	0	0	0
2019/05/28 22:06:05	BASE	10.07	212	12.60	214	-8.0	80	-10.8	0	0	992.1	NA	0.0000		9999	2070	0	0	0
2019/05/28 22:07:05	BASE	9.72	224	12.60	214	-8.0	80	-10.9	0	0	992.2	NA	0.0000		9999	2000	0	0	0
2019/05/28 22:08:04	BASE	8.51	242	12.60	214	-8.0	79	-10.9	0	0	992.2	NA	0.0000		9999	2030	0	0	0
2019/05/28 22:09:04	BASE	8.25	247	12.60	214	-8.0	79	-11.0	0	0	992.2	NA	0.0000		9999	2100	0	0	0
2019/05/28 22:10:01	BASE	7.55	241	12.60	214	-8.1	79	-11.1	0	0	992.2	NA	0.0000		9999	2000	0	0	0
2019/05/28 22:11:04	BASE	6.66	238	12.60	214	-8.1	79	-11.1	0	0	992.2	NA	0.0000		9999	2130	0	0	0
2019/05/28 22:12:04	BASE	6.77	235	12.60	214	-8.1	79	-11.1	0	0	992.2	NA	0.0000		9999	2100	0	0	0
2019/05/28 22:13:03	BASE	8.93	226	12.60	214	-8.1	79	-11.1	0	0	992.2	NA	0.0000		9999	2070	0	0	0
2019/05/28 22:14:12	BASE	10.15	221	12.60	214	-8.1	79	-11.1	0	0	992.2	NA	0.0000		9999	2100	0	0	0
2019/05/28 22:15:03	BASE	8.84	228	12.60	214	-8.1	79	-11.1	0	0	992.2	NA	0.0000		9999	2200	0	0	0
2019/05/28 22:16:04	BASE	7.50	237	11.42	216	-8.1	79	-11.1	0	0	992.2	NA	0.0000		9999	2230	0	0	0
2019/05/28 22:17:04	BASE	7.45	232	11.42	216	-8.0	78	-11.1	0	0	992.2	NA	0.0000		9999	2100	0	0	0
2019/05/28 22:18:03	BASE	9.16	226	11.99	230	-8.0	78	-11.1	0	0	992.1	NA	0.0000		9999	2030	0	0	0
2019/05/28 22:19:04	BASE	10.65	227	11.99	230	-8.0	78	-11.1	0	0	992.1	NA	0.0000		9999	2130	0	0	0
2019/05/28 22:20:04	BASE	10.30	226	11.99	230	-8.0	78	-11.1	0	0	992.1	NA	0.0000		9999	2030	0	0	0
2019/05/28 22:21:03	BASE	9.30	227	11.99	230	-8.0	78	-11.1	0	0	992.1	NA	0.0000		9999	2100	0	0	0
2019/05/28 22:22:04	BASE	7.98	230	11.99	230	-8.0	78	-11.1	0	0	992.2	NA	0.0000		9999	2100	0	0	0
2019/05/28 22:23:03	BASE	6.14	234	11.99	230	-8.1	78	-11.2	0	0	992.2	NA	0.0000		9999	1970	0	0	0
2019/05/28 22:24:04	BASE	5.74	235	11.99	230	-8.1	78	-11.2	0	0	992.2	NA	0.0000		9999	1970	0	0	0
2019/05/28 22:25:04	BASE	7.24	233	11.99	230	-8.1	78	-11.2	0	0	992.2	NA	0.0000		9999	2100	0	0	0
2019/05/28 22:26:04	BASE	8.64	230	11.99	230	-8.0	78	-11.2	0	0	992.1	NA	0.0000		9999	1940	0	0	0
2019/05/28 22:27:04	BASE	9.44	237	12.04	252	-8.0	78	-11.1	0	0	992.1	NA	0.0000		9999	2170	0	0	0
2019/05/28 22:28:04	BASE	8.71	249	12.04	252	-8.0	79	-11.0	0	0	992.2	NA	0.0000		9999	2200	0	0	0
2019/05/28 22:29:03	BASE	8.16	252	12.04	252	-7.9	79	-11.0	0	0	992.1	NA	0.0000		9999	2000	0	0	0
2019/05/28 22:30:03	BASE	7.99	246	12.04	252	-7.9	79	-10.9	0	0	992.2	NA	0.0000		9999	2030	0	0	0
2019/05/28 22:31:04	BASE	8.06	241	12.04	252	-8.0	79	-11.0	0	0	992.1	NA	0.0000		9999	2030	0	0	0
2019/05/28 22:32:04	BASE	8.47	243	12.04	252	-8.0	79	-11.0	0	0	992.1	NA	0.0000		9999	1970	0	0	0
2019/05/28 22:33:04	BASE	9.12	235	14.20	213	-8.0	79	-11.0	0	0	992.0	NA	0.0000		9999	2030	0	0	0
2019/05/28 22:34:03	BASE	12.42	224	15.59	228	-7.9	79	-10.9	0	0	992.1	NA	0.0000		9999	2000	0	0	0
2019/05/28 22:35:04	BASE	12.27	226	15.59	228	-7.9	79	-10.9	0	0	992.1	NA	0.0000		9999	2170	0	0	0
2019/05/28 22:36:04	BASE	8.95	232	15.59	228	-7.9	79	-10.9	0	0	992.1	NA	0.0000		9999	2200	0	0	0
2019/05/28 22:37:04	BASE	8.14	240	15.59	228	-7.9	79	-10.9	0	0	992.2	NA	0.0000		9999	1970	0	0	0
2019/05/28 22:38:04	BASE	7.82	243	15.59	228	-7.9	79	-10.9	0	0	992.1	NA	0.0000		9999	1840	0	0	0
2019/05/28 22:39:03	BASE	6.97	249	15.59	228	-7.9	79	-10.9	0	0	992.1	NA	0.0000		9999	1670	0	0	0
2019/05/28 22:40:04	BASE	6.70	250	15.59	228	-7.9	79	-10.9	0	0	992.1	NA	0.0000		9999	1740	0	0	0
2019/05/28 22:41:04	BASE	6.53	244	15.59	228	-7.9	79	-10.9	0	0	992.1	NA	0.0000		9999	1740	0	0	0
2019/05/28 22:42:04	BASE	7.46	244	15.59	228	-7.9	79	-10.9	0	0	992.1	NA	0.0000		9999	1740	0	0	0
2019/05/28 22:43:03	BASE	10.89	245	15.90	238	-7.9	79	-10.8	0	0	992.1	NA	0.0000		9999	1870	0	0	0
2019/05/28 22:44:04	BASE	12.68	244	15.90	238	-7.9	80	-10.8	0	0	992.1	NA	0.0000		9999	1940	0	0	0
2019/05/28 22:45:04	BASE	11.79	243	15.90	238	-7.9	80	-10.8	0	0	992.1	NA	0.0000		9999	1940	0	0	0
2019/05/28 22:46:04	BASE	10.42	243	15.90	238	-7.9	80	-10.7	0	0	992.1	NA	0.0000		9999	2030	0	0	0
2019/05/28 22:47:03	BASE	9.27	243	15.90	238	-7.9	80	-10.8	0	0	992.1	NA	0.0000		9999	2100	2620	0	0
2019/05/28 22:48:04	BASE	9.64	244	15.90	238	-8.0	80	-10.8	0	0	992.1	NA	0.0000		9999	1940	0	0	0
2019/05/28 22:49:03	BASE	10.60	250	15.90	238	-8.0	80	-10.8	0	0	992.1	NA	0.0000		9999	2000	0	0	0
2019/05/28 22:50:03	BASE	10.42	249	15.90	238	-8.0	80	-10.8	0	0	992.1	NA	0.0000		9999	2030	0	0	0
2019/05/28 22:51:03	BASE	10.88	244	15.90	238	-8.0	80	-10.8	0	0	992.1	NA	0.0000		9999	1940	0	0	0
2019/05/28 22:52:04	BASE	10.97	241	15.90	238	-8.0	80	-10.8	0	0	992.1	NA	0.0000		9999	1740	2260	0	0
2019/05/28 22:53:04	BASE	10.26	238	14.46	240	-8.0	80	-10.8	0	0	992.1	NA	0.0000		9999	1770	0	0	0
2019/05/28 22:54:03	BASE	10.19	244	13.74	250	-8.0	80	-10.8	0	0	992.2	NA	0.0000		9999	1740	0	0	0
2019/05/28 22:55:04	BASE	9.92	252	13.74	250	-8.0	80	-10.8	0	0	992.2	NA	0.0000		9999	1770	0	0	0
2019/05/28 22:56:03	BASE	8.64	254	13.74	250	-8.0	80	-10.9	0	0	992.2	NA	0.0000		9999	1840	0	0	0
2019/05/28 22:57:04	BASE	8.28	248	13.74	250	-8.0	80	-10.8	0	0	992.2	NA	0.0000		9999	1710	0	0	0
2019/05/28 22:58:03	BASE	7.98	238	13.74	250	-7.9	80	-10.8	0	0	992.2	NA	0.0000		9999	1770	0	0	0
2019/05/28 22:59:04	BASE	9.14	230	14.25	216	-7.9	80	-10.7	0	0	992.1	NA	0.0000		9999	1800	0	0	0
2019/05/28 23:00:04	BASE	12.28	222	14.51	226	-7.9	80	-10.7	0	0	992.1	NA	0.0000		9999	1870	0	0	0
2019/05/28 23:01:03	BASE	12.99	224	14.51	226	-7.8	80	-10.7	0	0	992.1	NA	0.0000		9999	1940	0	0	0
2019/05/28 23:02:04	BASE	11.25	234	14.51	226	-7.8	80	-10.6	0	0	992.2	NA	0.0000		9999	1710	0	0	0
2019/05/28 23:03:04	BASE	10.05	244	14.51	226	-7.8	80	-10.7	0	0	992.2	NA	0.0000		9999	1770	0	0	0
2019/05/28 23:04:04	BASE	11.33	254	14.51	226	-7.9	80	-10.7	0	0	992.2	NA	0.0000		9999	1940	0	0	0
2019/05/28 23:05:05	BASE	12.15	251	14.51	226	-7.9	80	-10.7	0	0	992.2	NA	0.0000		9999	2070	0	0	0
2019/05/28 23:06:04	BASE	12.20	244	14.51	226	-8.0	80	-10.8	0	0	992.2	NA	0.0000		9999	2030	0	0	0
2019/05/28 23:07:04	BASE	11.33	238	14.51	226	-8.0	80	-10.9	0	0	992.2	NA	0.0000		9999	2100	0	0	0
2019/05/28 23:08:04	BASE	10.14	236	14.51	226	-8.1	80	-10.9	0	0	992.2	NA	0.0000		9999	0	0	0	0
2019/05/28 23:09:05	BASE	9.24	244	14.51	226	-8.1	80	-11.0	0	0	992.2	NA	0.0000		9999	0	0	0	0
2019/05/28 23:10:01	BASE	9.03	247	13.94	251	-8.2	80	-11.0	0	0	992.2	NA	0.0000		9999	0	0	0	0
2019/05/28 23:11:04	BASE	9.00	245	13.94	251	-8.2	80	-11.1	0	0	992.2	NA	0.0000		9999	2230	0	0	0
2019/05/28 23:12:04	BASE	9.38	243	13.94	251	-8.2	79	-11.2	0	0	992.2	NA	0.0000		9999	2170	0	0	0
2019/05/28 23:13:03	BASE	10.18	232	13.94	251	-8.2	79	-11.2	0	0	992.1	NA	0.0000		9999	2170	0	0	0
2019/05/28 23:14:04	BASE	10.06	217	13.94	251	-8.2	79	-11.2	0	0	992.2	NA	0.0000		9999	2100	0	0	0
2019/05/28 23:15:03	BASE	9.90	218	13.94	251	-8.2	79	-11.2	0	0	992.2	NA	0.0000		9999	1940	0	0	0
2019/05/28 23:16:04	BASE	9.45	224	12.55	230	-8.1	78	-11.2	0	0	992.2	NA	0.0000		9999	2030	0	0	0
2019/05/28 23:17:04	BASE	8.50	225	12.55	230	-8.1	78	-11.2	0	0	992.2	NA	0.0000		9999	2030	0	0	0
2019/05/28 23:18:04	BASE	7.38	223	11.47	239	-8.1	78	-11.3	0	0	992.2	NA	0.0000		9999	2130	0	0	0
2019/05/28 23:19:04	BASE	7.45	226	11.47	239	-8.1	78	-11.3	0	0	992.2	NA	0.0000		9999	2230	0	0	0
2019/05/28 23:20:04	BASE	9.05	232	12.24	234	-8.1	78	-11.3	0	0	992.2	NA	0.0000		9999	2460	0	0	0
2019/05/28 23:21:03	BASE	10.06	240	12.24	234	-8.1	77	-11.4	0	0	992.2	NA	0.0000		9999	2330	0	0	0
2019/05/28 23:22:04	BASE	10.40	249	12.24	234	-8.1	77	-11.4	0	0	992.2	NA	0.0000		9999	0	0	0	0
2019/05/28 23:23:03	BASE	10.53	251	12.24	234	-8.1	77	-11.4	0	0	992.1	NA	0.0000		9999	0	0	0	0
2019/05/28 23:24:04	BASE	9.31	244	12.24	234	-8.1	77	-11.5	0	0	992.2	NA	0.0000		9999	2260	0	0	0
2019/05/28 23:25:04	BASE	7.63	239	12.24	234	-8.2	77	-11.5	0	0	992.2	NA	0.0000		9999	2260	0	0	0
2019/05/28 23:26:04	BASE	7.69	241	12.24	234	-8.2	77	-11.5	0	0	992.1	NA	0.0000		9999	2330	0	0	0
2019/05/28 23:27:04	BASE	9.57	245	12.35	240	-8.2	77	-11.5	0	0	992.2	NA	0.0000		9999	2360	0	0	0
2019/05/28 23:28:04	BASE	10.55	244	12.71	245	-8.2	77	-11.6	0	0	992.2	NA	0.0000		9999	2230	0	0	0
2019/05/28 23:29:05	BASE	9.73	245	12.71	245	-8.2	76	-11.6	0	0	992.2	NA	0.0000		9999	1940	0	0	0
2019/05/28 23:30:03	BASE	9.09	254	12.71	245	-8.2	76	-11.6	0	0	992.2	NA	0.0000		9999	1940	0	0	0
2019/05/28 23:31:03	BASE	9.15	255	13.27	239	-8.2	76	-11.6	0	0	992.2	NA	0.0000		9999	2000	0	0	0
2019/05/28 23:32:03	BASE	10.46	246	13.48	238	-8.1	76	-11.6	0	0	992.2	NA	0.0000		9999	1940	0	0	0
2019/05/28 23:33:03	BASE	10.63	239	13.48	238	-8.1	76	-11.6	0	0	992.2	NA	0.0000		9999	1940	0	0	0
2019/05/28 23:34:04	BASE	8.89	237	13.48	238	-8.1	76	-11.5	0	0	992.2	NA	0.0000		9999	2030	0	0	0
2019/05/28 23:35:04	BASE	9.13	241	13.48	238	-8.0	76	-11.5	0	0	992.2	NA	0.0000		9999	2130	0	0	0
2019/05/28 23:36:03	BASE	10.24	244	13.48	238	-8.0	76	-11.4	0	0	992.2	NA	0.0000		9999	2200	0	0	0
2019/05/28 23:37:04	BASE	11.10	239	13.48	227	-8.0	76	-11.4	0	0	992.2	NA	0.0000		9999	2100	0	0	0
2019/05/28 23:38:04	BASE	11.46	229	13.48	227	-8.0	77	-11.4	0	0	992.2	NA	0.0000		9999	2070	0	0	0
2019/05/28 23:39:03	BASE	11.16	228	13.48	227	-8.0	77	-11.3	0	0	992.2	NA	0.0000		9999	2030	0	0	0
2019/05/28 23:40:03	BASE	11.51	230	13.48	227	-8.0	77	-11.4	0	0	992.2	NA	0.0000		9999	2070	0	0	0
2019/05/28 23:41:04	BASE	12.05	230	14.61	232	-8.0	77	-11.4	0	0	992.2	NA	0.0000		9999	2130	0	0	0
2019/05/28 23:42:04	BASE	10.51	231	14.61	232	-8.1	76	-11.5	0	0	992.2	NA	0.0000		9999	2460	0	0	0
2019/05/28 23:43:03	BASE	8.37	230	14.61	232	-8.1	76	-11.6	0	0	992.2	NA	0.0000		9999	2170	0	0	0
2019/05/28 23:44:04	BASE	7.69	229	14.61	232	-8.1	76	-11.6	0	0	992.2	NA	0.0000		9999	2070	0	0	0
2019/05/28 23:45:04	BASE	6.72	235	14.61	232	-8.1	76	-11.7	0	0	992.2	NA	0.0000		9999	2130	0	0	0
2019/05/28 23:46:04	BASE	7.16	238	14.61	232	-8.1	76	-11.7	0	0	992.2	NA	0.0000		9999	2260	0	0	0
2019/05/28 23:47:03	BASE	8.55	237	14.61	232	-8.1	76	-11.7	0	0	992.2	NA	0.0000		9999	2620	0	0	0
2019/05/28 23:48:04	BASE	10.80	236	14.61	233	-8.1	76	-11.6	0	0	992.2	NA	0.0000		9999	2560	0	0	0
2019/05/28 23:49:04	BASE	11.74	232	14.61	233	-8.1	76	-11.6	0	0	992.2	NA	0.0000		9999	2230	0	0	0
2019/05/28 23:50:11	BASE	10.17	235	14.61	233	-8.0	76	-11.6	0	0	992.2	NA	0.0000		9999	2330	0	0	0
2019/05/28 23:51:04	BASE	9.94	233	14.61	233	-8.0	76	-11.6	0	0	992.2	NA	0.0000		9999	2400	0	0	0
2019/05/28 23:52:03	BASE	9.82	235	14.61	233	-8.0	75	-11.6	0	0	992.2	NA	0.0000		9999	2360	0	0	0
2019/05/28 23:53:03	BASE	9.96	237	14.61	233	-8.0	75	-11.7	0	0	992.2	NA	0.0000		9999	2430	0	0	0
2019/05/28 23:54:03	BASE	11.65	229	14.61	233	-8.0	75	-11.6	0	0	992.2	NA	0.0000		9999	2260	0	0	0
2019/05/28 23:55:03	BASE	10.63	227	14.61	233	-8.0	75	-11.7	0	0	992.2	NA	0.0000		9999	2200	0	0	0
2019/05/28 23:56:04	BASE	8.53	228	14.61	233	-8.1	75	-11.7	0	0	992.2	NA	0.0000		9999	2230	0	0	0
2019/05/28 23:57:03	BASE	9.19	227	14.61	233	-8.1	75	-11.7	0	0	992.1	NA	0.0000		9999	2230	0	0	0
2019/05/28 23:58:04	BASE	10.95	220	14.15	229	-8.0	75	-11.7	0	0	992.1	NA	0.0000		9999	2460	0	0	0
2019/05/28 23:59:04	BASE	11.59	218	14.15	229	-8.0	74	-11.8	0	0	992.2	NA	0.0000		9999	2360	0	0	0